[[{"header":{"parameterUnit":"m.s-1","parameterCategory":1,"la1":30.6,"la2":28.766,"lo1":-90.7593,"lo2":-88.6598,"dy":0.0162,"dx":0.0183,"nx":116,"ny":114,"refTime":"2024-04-20T12:00:00:Z","depth":0,"parameterNumber":2,"parameterNumberName":"U-component_of_WINDS"},"data":[0.0,0.0,0.0,0.0,0.0,0.0,0.0,0.0,0.0,0.0,0.0,0.0,0.0,0.0,0.0,0.0,0.0,0.0,0.0,0.0,0.0,0.0,0.0,0.0,0.0,0.0,0.0,0.0,0.0,0.0,0.0,0.0,0.0,0.0,0.0,0.0,0.0,0.0,0.0,0.0,0.0,0.0,0.0,0.0,0.0,0.0,0.0,0.0,0.0,0.0,0.0,0.0,0.0,0.0,0.0,0.0,0.0,0.0,0.0,0.0,0.0,0.0,0.0,0.0,0.0,0.0,0.0,0.0,0.0,0.0,0.0,0.0,0.0,0.0,0.0,0.0,0.0,0.0,0.0,0.0,0.0,0.0,0.0,0.0,0.0,0.0,0.0,0.0,0.0,0.0,0.0,0.0,0.0,0.0,0.0,0.0,0.0,0.0,0.0,0.0,0.0,0.0,0.0,0.0,0.0,0.0,0.0,0.0,0.0,0.0,0.0,0.0,0.0,0.0,0.0,0.0,0.0,0.0,0.0,0.0,0.0,0.0,0.0,0.0,0.0,0.0,0.0,0.0,0.0,0.0,0.0,0.0,0.0,0.0,0.0,0.0,0.0,0.0,0.0,0.0,0.0,0.0,0.0,0.0,0.0,0.0,0.0,0.0,0.0,0.0,0.0,0.0,0.0,0.0,0.0,0.0,0.0,0.0,0.0,0.0,0.0,0.0,0.0,0.0,0.0,0.0,0.0,0.0,0.0,0.0,0.0,0.0,0.0,0.0,0.0,0.0,0.0,0.0,0.0,0.0,0.0,0.0,0.0,0.0,0.0,0.0,0.0,0.0,0.0,0.0,0.0,0.0,0.0,0.0,0.0,0.0,0.0,0.0,0.0,0.0,0.0,0.0,0.0,0.0,0.0,0.0,0.0,0.0,0.0,0.0,0.0,0.0,0.0,0.0,0.0,0.0,0.0,0.0,0.0,0.0,0.0,0.0,0.0,0.0,0.0,0.0,0.0,0.0,0.0,0.0,0.0,0.0,0.0,0.0,0.0,0.0,0.0,0.0,0.0,0.0,0.0,0.0,0.0,0.0,0.0,0.0,0.0,0.0,0.0,0.0,0.0,0.0,0.0,0.0,0.0,0.0,0.0,0.0,0.0,0.0,0.0,0.0,0.0,0.0,0.0,0.0,0.0,0.0,0.0,0.0,0.0,0.0,0.0,0.0,0.0,0.0,0.0,0.0,0.0,0.0,0.0,0.0,0.0,0.0,0.0,0.0,0.0,0.0,0.0,0.0,0.0,0.0,0.0,0.0,0.0,0.0,0.0,0.0,0.0,0.0,0.0,0.0,0.0,0.0,0.0,0.0,0.0,0.0,0.0,0.0,0.0,0.0,0.0,0.0,0.0,0.0,0.0,0.0,0.0,0.0,0.0,0.0,0.0,0.0,0.0,0.0,0.0,0.0,0.0,0.0,0.0,0.0,0.0,0.0,0.0,0.0,0.0,0.0,0.0,0.0,0.0,0.0,0.0,0.0,0.0,0.0,0.0,0.0,0.0,0.0,0.0,0.0,0.0,0.0,0.0,0.0,0.0,0.0,0.0,0.0,0.0,0.0,0.0,0.0,0.0,0.0,0.0,0.0,0.0,0.0,0.0,0.0,0.0,0.0,0.0,0.0,0.0,0.0,0.0,0.0,0.0,0.0,0.0,0.0,0.0,0.0,0.0,0.0,0.0,0.0,0.0,0.0,0.0,0.0,0.0,0.0,0.0,0.0,0.0,0.0,0.0,0.0,0.0,0.0,0.0,0.0,0.0,0.0,0.0,0.0,0.0,0.0,0.0,0.0,0.0,0.0,0.0,0.0,0.0,0.0,0.0,0.0,0.0,0.0,0.0,0.0,0.0,0.0,0.0,0.0,0.0,0.0,0.0,0.0,0.0,0.0,0.0,0.0,0.0,0.0,0.0,0.0,0.0,0.0,0.0,0.0,0.0,0.0,0.0,0.0,0.0,0.0,0.0,0.0,0.0,0.0,0.0,0.0,0.0,0.0,0.0,0.0,0.0,0.0,0.0,0.0,0.0,0.0,0.0,0.0,0.0,0.0,0.0,0.0,0.0,0.0,0.0,0.0,0.0,0.0,0.0,0.0,0.0,0.0,0.0,0.0,0.0,0.0,0.0,0.0,0.0,0.0,0.0,0.0,0.0,0.0,0.0,0.0,0.0,0.0,0.0,0.0,0.0,0.0,0.0,0.0,0.0,0.0,0.0,0.0,0.0,0.0,0.0,0.0,0.0,0.0,0.0,0.0,0.0,0.0,0.0,0.0,0.0,0.0,0.0,0.0,0.0,0.0,0.0,0.0,0.0,0.0,0.0,0.0,0.0,0.0,0.0,0.0,0.0,0.0,0.0,0.0,0.0,0.0,0.0,0.0,0.0,0.0,0.0,0.0,0.0,0.0,0.0,0.0,0.0,0.0,0.0,0.0,0.0,0.0,0.0,0.0,0.0,0.0,0.0,0.0,0.0,0.0,0.0,0.0,0.0,0.0,0.0,0.0,0.0,0.0,0.0,0.0,0.0,0.0,0.0,0.0,0.0,0.0,0.0,0.0,0.0,0.0,0.0,0.0,0.0,0.0,0.0,0.0,0.0,0.0,0.0,0.0,0.0,0.0,0.0,0.0,0.0,0.0,0.0,0.0,0.0,0.0,0.0,0.0,0.0,0.0,0.0,0.0,0.0,0.0,0.0,0.0,0.0,0.0,0.0,0.0,0.0,0.0,0.0,0.0,0.0,0.0,0.0,0.0,0.0,0.0,0.0,0.0,0.0,0.0,0.0,0.0,0.0,0.0,0.0,0.0,0.0,0.0,0.0,0.0,0.0,0.0,0.0,0.0,0.0,0.0,0.0,0.0,0.0,0.0,0.0,0.0,0.0,0.0,0.0,0.0,0.0,0.0,0.0,0.0,0.0,0.0,0.0,0.0,0.0,0.0,0.0,0.0,0.0,0.0,0.0,0.0,0.0,0.0,0.0,0.0,0.0,0.0,0.0,0.0,0.0,0.0,0.0,0.0,0.0,0.0,0.0,0.0,0.0,0.0,0.0,0.0,0.0,0.0,0.0,0.0,0.0,0.0,0.0,0.0,0.0,0.0,0.0,0.0,0.0,0.0,0.0,0.0,0.0,0.0,0.0,0.0,0.0,0.0,0.0,0.0,0.0,0.0,0.0,0.0,0.0,0.0,0.0,0.0,0.0,0.0,0.0,0.0,0.0,0.0,0.0,0.0,0.0,0.0,0.0,0.0,0.0,0.0,0.0,0.0,0.0,0.0,0.0,0.0,0.0,0.0,0.0,0.0,0.0,0.0,0.0,0.0,0.0,0.0,0.0,0.0,0.0,0.0,0.0,0.0,0.0,0.0,0.0,0.0,0.0,0.0,0.0,0.0,0.0,0.0,0.0,0.0,0.0,0.0,0.0,0.0,0.0,0.0,0.0,0.0,0.0,0.0,0.0,0.0,0.0,0.0,0.0,0.0,0.0,0.0,0.0,0.0,0.0,0.0,0.0,0.0,0.0,0.0,0.0,0.0,0.0,0.0,0.0,0.0,0.0,0.0,0.0,0.0,0.0,0.0,0.0,0.0,0.0,0.0,0.0,0.0,0.0,0.0,0.0,0.0,0.0,0.0,0.0,0.0,0.0,0.0,0.0,0.0,0.0,0.0,0.0,0.0,0.0,0.0,0.0,0.0,0.0,0.0,0.0,0.0,0.0,0.0,0.0,0.0,0.0,0.0,0.0,0.0,0.0,0.0,0.0,0.0,0.0,0.0,0.0,0.0,0.0,0.0,0.0,0.0,0.0,0.0,0.0,0.0,0.0,0.0,0.0,0.0,0.0,0.0,0.0,0.0,0.0,0.0,0.0,0.0,0.0,0.0,0.0,0.0,0.0,0.0,0.0,0.0,0.0,0.0,0.0,0.0,0.0,0.0,0.0,0.0,0.0,0.0,0.0,0.0,0.0,0.0,0.0,0.0,0.0,0.0,0.0,0.0,0.0,0.0,0.0,0.0,0.0,0.0,0.0,0.0,0.0,0.0,0.0,0.0,0.0,0.0,0.0,0.0,0.0,0.0,0.0,0.0,0.0,0.0,0.0,0.0,0.0,0.0,0.0,0.0,0.0,0.0,0.0,0.0,0.0,0.0,0.0,0.0,0.0,0.0,0.0,0.0,0.0,0.0,0.0,0.0,0.0,0.0,0.0,0.0,0.0,0.0,0.0,0.0,0.0,0.0,0.0,0.0,0.0,0.0,0.0,0.0,0.0,0.0,0.0,0.0,0.0,0.0,0.0,0.0,0.0,0.0,0.0,0.0,0.0,0.0,0.0,0.0,0.0,0.0,0.0,0.0,0.0,0.0,0.0,0.0,0.0,0.0,0.0,0.0,0.0,0.0,0.0,0.0,0.0,0.0,0.0,0.0,0.0,0.0,0.0,0.0,0.0,0.0,0.0,0.0,0.0,0.0,0.0,0.0,0.0,0.0,0.0,0.0,0.0,0.0,0.0,0.0,0.0,0.0,0.0,0.0,0.0,0.0,0.0,0.0,0.0,0.0,0.0,0.0,0.0,0.0,0.0,0.0,0.0,0.0,0.0,0.0,0.0,0.0,0.0,0.0,0.0,0.0,0.0,0.0,0.0,0.0,0.0,0.0,0.0,0.0,0.0,0.0,0.0,0.0,0.0,0.0,0.0,0.0,0.0,0.0,0.0,0.0,0.0,0.0,0.0,0.0,0.0,0.0,0.0,0.0,0.0,0.0,0.0,0.0,0.0,0.0,0.0,0.0,0.0,0.0,0.0,0.0,0.0,0.0,0.0,0.0,0.0,0.0,0.0,0.0,0.0,0.0,0.0,0.0,0.0,0.0,0.0,0.0,0.0,0.0,0.0,0.0,0.0,0.0,0.0,0.0,0.0,0.0,0.0,0.0,0.0,0.0,0.0,0.0,0.0,0.0,0.0,0.0,0.0,0.0,0.0,0.0,0.0,0.0,0.0,0.0,0.0,0.0,0.0,0.0,0.0,0.0,0.0,0.0,0.0,0.0,0.0,0.0,0.0,0.0,0.0,0.0,0.0,0.0,0.0,0.0,0.0,0.0,0.0,0.0,0.0,0.0,0.0,0.0,0.0,0.0,0.0,0.0,0.0,0.0,0.0,0.0,0.0,0.0,0.0,0.0,0.0,0.0,0.0,0.0,0.0,0.0,0.0,0.0,0.0,0.0,0.0,0.0,0.0,0.0,0.0,0.0,0.0,0.0,0.0,0.0,0.0,0.0,0.0,0.0,0.0,0.0,0.0,0.0,0.0,0.0,0.0,0.0,0.0,0.0,0.0,0.0,0.0,0.0,0.0,0.0,0.0,0.0,0.0,0.0,0.0,0.0,0.0,0.0,0.0,0.0,0.0,0.0,0.0,0.0,0.0,0.0,0.0,0.0,0.0,0.0,0.0,0.0,0.0,0.0,0.0,0.0,0.0,0.0,0.0,0.0,0.0,0.0,0.0,0.0,0.0,0.0,0.0,0.0,0.0,0.0,0.0,0.0,0.0,0.0,0.0,0.0,0.0,0.0,0.0,0.0,0.0,0.0,0.0,0.0,0.0,0.0,0.0,0.0,0.0,0.0,0.0,0.0,0.0,0.0,0.0,0.0,0.0,0.0,0.0,0.0,0.0,0.0,0.0,0.0,0.0,0.0,0.0,0.0,0.0,0.0,0.0,0.0,0.0,0.0,0.0,0.0,0.0,0.0,0.0,0.0,0.0,0.0,0.0,0.0,0.0,0.0,0.0,0.0,0.0,0.0,0.0,0.0,0.0,0.0,0.0,0.0,0.0,0.0,0.0,0.0,0.0,0.0,0.0,0.0,0.0,0.0,0.0,0.0,0.0,0.0,0.0,0.0,0.0,0.0,0.0,0.0,0.0,0.0,0.0,0.0,0.0,0.0,0.0,0.0,0.0,0.0,0.0,0.0,0.0,0.0,0.0,0.0,0.0,0.0,0.0,0.0,0.0,0.0,0.0,0.0,0.0,0.0,0.0,0.0,0.0,0.0,0.0,0.0,0.0,0.0,0.0,0.0,0.0,0.0,3.8079,0.0,0.0,0.0,0.0,0.0,0.0,0.0,0.0,0.0,0.0,0.0,0.0,0.0,0.0,0.0,0.0,0.0,0.0,0.0,0.0,0.0,0.0,0.0,0.0,2.9176,2.9701,2.9701,2.9719,2.9923,3.0449,0.0,0.0,0.0,0.0,0.0,0.0,0.0,2.5405,2.5822,2.5849,2.6102,2.6579,2.6118,2.5898,2.5908,0.0,0.0,0.0,0.0,0.0,0.0,0.0,0.0,0.0,0.0,0.0,0.0,0.0,0.0,0.0,0.0,0.0,0.0,0.0,0.0,0.0,0.0,0.0,0.0,0.0,0.0,0.0,0.0,0.0,0.0,0.0,0.0,0.0,0.0,0.0,0.0,0.0,0.0,0.0,0.0,0.0,0.0,0.0,0.0,0.0,0.0,0.0,0.0,0.0,0.0,0.0,0.0,0.0,0.0,0.0,0.0,0.0,0.0,0.0,0.0,0.0,0.0,0.0,0.0,0.0,0.0,0.0,0.0,0.0,0.0,0.0,3.8632,0.0,0.0,0.0,0.0,0.0,0.0,0.0,0.0,0.0,0.0,0.0,0.0,0.0,0.0,0.0,0.0,0.0,0.0,0.0,0.0,0.0,2.6465,2.8184,2.9289,2.9889,2.9927,3.0039,3.0094,3.0034,2.9918,2.9244,2.7885,2.7657,2.7203,2.6428,2.5753,2.5853,2.6718,2.6002,2.6113,2.7039,2.6879,2.69,2.7054,2.689,0.0,0.0,0.0,0.0,0.0,0.0,0.0,0.0,0.0,0.0,0.0,0.0,0.0,0.0,0.0,0.0,0.0,0.0,0.0,0.0,0.0,0.0,0.0,0.0,0.0,0.0,0.0,0.0,0.0,0.0,0.0,0.0,0.0,0.0,0.0,0.0,0.0,0.0,0.0,0.0,0.0,0.0,0.0,0.0,0.0,0.0,0.0,0.0,0.0,0.0,0.0,0.0,0.0,0.0,0.0,0.0,0.0,0.0,0.0,0.0,0.0,0.0,0.0,3.7991,3.8466,3.9304,3.8584,3.8984,4.0165,3.9526,3.9585,4.0196,0.0,0.0,0.0,0.0,0.0,0.0,0.0,0.0,0.0,0.0,0.0,0.0,0.0,0.0,0.0,0.0,0.0,0.0,0.0,0.0,2.6376,2.811,2.9719,3.0677,3.0733,3.1391,3.1562,3.0977,3.0223,2.946,2.8677,2.7947,2.7227,2.6403,2.6314,2.6656,2.7522,2.7466,2.7923,2.8768,2.8065,2.8124,2.8807,2.7995,2.7588,2.7435,0.0,0.0,0.0,0.0,0.0,0.0,0.0,0.0,0.0,0.0,0.0,0.0,0.0,0.0,0.0,0.0,0.0,0.0,0.0,0.0,0.0,0.0,0.0,0.0,0.0,0.0,0.0,0.0,0.0,0.0,0.0,0.0,0.0,0.0,0.0,0.0,0.0,0.0,0.0,0.0,0.0,3.6445,3.7243,0.0,0.0,0.0,0.0,0.0,0.0,0.0,0.0,0.0,0.0,0.0,0.0,0.0,3.8416,3.8529,3.9207,3.9927,4.0707,4.0685,4.1101,4.192,4.1806,4.1503,4.1032,4.0967,0.0,4.0196,4.0196,0.0,0.0,0.0,0.0,0.0,0.0,0.0,0.0,0.0,0.0,0.0,0.0,0.0,0.0,0.0,0.0,0.0,0.0,0.0,0.0,0.0,2.912,3.032,3.0846,3.0828,3.0829,3.1015,3.0261,2.9481,2.8829,2.8441,2.8141,2.7801,2.7345,2.7344,2.775,2.7808,2.8302,2.911,2.8758,2.9088,2.9858,2.9473,2.9049,2.8538,2.8219,0.0,0.0,0.0,0.0,0.0,0.0,0.0,0.0,0.0,0.0,0.0,0.0,0.0,0.0,0.0,0.0,0.0,0.0,0.0,0.0,0.0,0.0,0.0,0.0,0.0,0.0,0.0,0.0,0.0,0.0,0.0,0.0,0.0,0.0,0.0,0.0,0.0,0.0,0.0,3.6611,3.7028,3.7409,3.7785,3.8029,0.0,0.0,0.0,0.0,0.0,0.0,0.0,0.0,0.0,3.8622,3.9535,4.0216,4.0669,4.0509,4.091,4.1813,4.1288,4.1765,4.3133,4.2593,4.2465,4.261,4.1727,4.1144,4.0844,4.0406,4.0309,4.0398,0.0,0.0,0.0,0.0,0.0,3.9931,0.0,0.0,0.0,0.0,0.0,0.0,0.0,0.0,0.0,0.0,0.0,0.0,2.7268,2.8708,2.9926,3.0789,3.0527,3.0547,3.0977,3.0261,2.9595,2.9133,2.8897,2.8812,2.8907,2.8338,2.8058,2.813,2.8176,2.8632,2.944,2.9511,2.983,3.0447,3.0479,3.0142,2.9515,2.907,2.8155,2.6939,0.0,0.0,0.0,0.0,0.0,0.0,0.0,0.0,0.0,0.0,0.0,0.0,0.0,0.0,0.0,0.0,0.0,0.0,0.0,0.0,0.0,0.0,0.0,0.0,0.0,0.0,0.0,0.0,0.0,0.0,0.0,0.0,0.0,0.0,0.0,0.0,0.0,3.7467,3.7618,3.7683,3.8357,3.8561,0.0,0.0,0.0,0.0,0.0,0.0,3.8418,3.8893,3.9383,3.9986,4.0839,4.148,4.1895,4.1243,4.1405,4.227,4.1593,4.2184,4.398,4.3288,4.3237,4.3696,4.2487,4.1846,4.1604,4.0635,4.0309,4.0398,4.0398,4.0427,4.0508,4.0508,4.0508,4.0508,0.0,0.0,0.0,0.0,0.0,0.0,0.0,0.0,0.0,0.0,0.0,2.619,2.796,2.8969,2.9887,3.0712,3.1522,3.1731,3.1128,3.0298,2.9822,2.9931,2.9209,2.8836,2.8907,2.8899,2.8989,2.9044,2.9044,2.949,3.0359,3.0413,3.0462,3.0479,3.05,3.0462,3.0325,2.8666,2.7943,2.7777,2.6078,0.0,0.0,0.0,0.0,0.0,0.0,0.0,0.0,0.0,0.0,0.0,0.0,0.0,0.0,0.0,0.0,0.0,0.0,0.0,0.0,0.0,0.0,0.0,0.0,0.0,0.0,0.0,0.0,0.0,0.0,0.0,0.0,0.0,0.0,0.0,0.0,0.0,0.0,3.8448,3.9165,0.0,0.0,0.0,0.0,3.8351,3.9051,3.9151,3.8338,3.9852,4.0804,4.0841,4.1682,4.1782,4.1089,4.1014,4.1391,4.2184,4.2146,4.3039,4.4739,4.4701,4.431,4.3701,4.3688,4.3216,4.2335,4.0804,4.0291,4.0398,4.0398,4.0427,4.0508,4.0508,4.0508,4.0508,0.0,0.0,0.0,0.0,0.0,2.2411,2.3293,2.3955,2.4551,2.4946,2.624,2.717,2.7419,2.8631,2.979,3.0712,3.0619,3.064,3.0998,2.979,2.9049,2.9093,2.8381,2.828,2.8872,2.8977,2.9269,2.9867,2.9917,3.0094,3.0398,3.0479,3.051,3.0569,3.0579,3.0559,3.0539,2.9892,2.9003,2.7937,2.7381,2.6808,0.0,0.0,0.0,0.0,0.0,0.0,0.0,0.0,0.0,0.0,0.0,0.0,0.0,0.0,0.0,0.0,0.0,0.0,0.0,0.0,0.0,0.0,0.0,0.0,0.0,0.0,0.0,0.0,0.0,0.0,0.0,0.0,0.0,0.0,0.0,0.0,0.0,3.83,3.8964,0.0,3.9413,3.9439,3.9937,4.122,4.1108,4.1135,4.1295,4.1921,4.2248,4.2248,4.31,4.3427,4.3182,4.213,4.2295,4.3728,4.2585,4.3038,4.4815,4.4764,4.4663,4.4421,4.3938,4.3567,4.3254,4.2193,4.1799,4.1933,4.197,4.2078,4.2162,4.2162,4.2162,4.2162,0.0,0.0,0.0,0.0,0.0,2.322,2.4064,2.4553,2.497,2.5348,2.6442,2.7096,2.6953,2.8182,2.9339,3.0241,2.9869,2.9776,3.0151,2.917,2.8617,2.8644,2.8472,2.8522,2.8886,2.9245,2.9716,3.034,3.0402,3.0425,3.0447,3.049,3.0569,3.0598,3.0616,3.0595,3.0621,3.0905,3.0053,2.8435,2.8218,2.776,2.7256,0.0,0.0,0.0,0.0,0.0,0.0,0.0,0.0,0.0,0.0,0.0,0.0,0.0,0.0,0.0,0.0,0.0,0.0,0.0,0.0,0.0,0.0,0.0,0.0,0.0,0.0,0.0,0.0,0.0,0.0,0.0,0.0,0.0,0.0,0.0,3.8462,3.8514,3.9485,4.013,4.0076,4.0626,4.1549,4.2864,4.2482,4.2324,4.2585,4.2847,4.2967,4.2967,4.3855,4.4213,4.4008,4.2885,4.294,4.4137,4.301,4.3276,4.4764,4.4764,4.4815,4.4876,4.4369,4.4151,4.4167,4.3678,4.3555,4.3637,4.3081,4.2979,4.3085,4.3085,4.3085,4.3047,0.0,0.0,0.0,0.0,0.0,2.3992,2.486,2.4522,2.4461,2.5307,2.5594,2.5986,2.6726,2.766,2.8537,2.9282,2.9474,2.9289,2.857,2.8567,2.8634,2.8676,2.9528,2.9656,2.8937,2.9794,3.0302,3.0398,3.0469,3.0479,3.049,3.0579,3.0598,3.0598,3.0604,3.0582,3.0668,3.1482,3.0939,2.935,2.8512,2.8171,2.8155,0.0,0.0,0.0,0.0,0.0,0.0,0.0,0.0,0.0,0.0,0.0,0.0,0.0,0.0,0.0,0.0,0.0,0.0,0.0,0.0,0.0,0.0,0.0,0.0,0.0,0.0,0.0,0.0,0.0,0.0,0.0,0.0,0.0,3.7646,3.8544,3.9082,3.9082,4.0645,4.1679,4.1571,4.317,4.3863,4.2962,4.2976,4.2669,4.1885,4.2594,4.3042,4.3042,4.3893,4.3997,4.3297,4.3259,4.325,4.3332,4.3375,4.3841,4.4712,4.4789,4.484,4.4914,4.4986,4.501,4.5033,4.5186,4.5295,4.5227,4.3618,4.3056,4.3162,4.3162,4.3162,4.3047,0.0,0.0,0.0,2.3021,2.3374,2.3858,2.4784,2.5361,2.5819,2.6124,2.7359,2.7853,2.6911,2.814,2.8703,2.7793,2.8838,2.9195,2.8462,2.855,2.8369,2.7858,2.8122,2.8474,2.8899,2.9206,2.969,3.0402,3.0402,3.0436,3.049,3.051,3.0559,3.0604,3.0621,3.0645,3.0676,3.0933,3.0777,3.0326,3.0071,2.9598,2.9101,0.0,0.0,0.0,0.0,0.0,0.0,0.0,0.0,0.0,0.0,0.0,0.0,0.0,0.0,0.0,0.0,0.0,0.0,0.0,0.0,0.0,0.0,0.0,0.0,0.0,0.0,0.0,0.0,0.0,0.0,0.0,3.5302,3.6286,3.7426,3.8317,3.8892,3.895,3.9933,4.0563,4.0533,4.1586,4.2365,4.2674,4.3293,4.3515,4.3267,4.3515,4.3918,4.4512,4.4835,4.4966,4.4804,4.4266,4.4026,4.4102,4.3557,4.3815,4.4712,4.4738,4.4789,4.4952,4.5583,4.5556,4.5118,4.5811,4.5829,4.5342,4.4902,4.4784,4.4893,4.4893,4.4893,4.4795,0.0,0.0,0.0,2.3307,2.372,2.4313,2.5242,2.5665,2.6089,2.6849,2.7374,2.7446,2.6817,2.7712,2.7977,2.7103,2.8203,2.8502,2.7396,2.7834,2.7894,2.7502,2.8207,2.8713,2.8911,2.9334,2.9819,3.0367,3.039,3.0436,3.0528,3.0868,3.0878,3.0621,3.0995,3.1018,3.0768,3.1445,3.1328,3.0754,3.1445,3.1243,3.0506,3.1018,3.1188,3.131,3.2502,3.2416,3.1736,3.1538,0.0,0.0,0.0,0.0,0.0,0.0,0.0,0.0,0.0,0.0,0.0,0.0,0.0,0.0,0.0,0.0,0.0,0.0,0.0,0.0,0.0,0.0,0.0,0.0,3.5705,3.6338,3.703,3.7784,3.8345,3.8676,3.9209,3.9792,4.0462,4.1335,4.2216,4.3028,4.3541,4.3837,4.3804,4.4132,4.4572,4.5016,4.5152,4.5249,4.5313,4.4624,4.4304,4.4383,4.398,4.41,4.4659,4.5115,4.5318,0.0,4.6316,4.6315,4.5673,4.6168,4.5998,0.0,0.0,0.0,0.0,0.0,4.5586,4.5488,0.0,0.0,0.0,2.3436,2.4159,2.4968,2.5901,2.5642,2.5812,2.7255,2.6434,2.591,2.6499,2.6746,2.6823,2.6656,2.7587,2.7643,2.6293,2.7118,2.7629,2.7532,2.9011,2.9582,2.906,2.9844,3.0343,3.0458,3.0595,3.0717,3.0799,3.1584,3.1516,3.0784,3.1639,3.1584,3.0923,3.2415,3.2252,3.1127,3.261,3.2726,3.2066,3.2042,3.218,3.2541,3.4129,3.3654,3.2408,3.3296,0.0,0.0,0.0,0.0,0.0,0.0,0.0,0.0,0.0,0.0,0.0,0.0,0.0,0.0,0.0,0.0,0.0,0.0,0.0,0.0,0.0,0.0,0.0,0.0,3.6364,3.6434,3.6642,3.6926,3.7357,3.8036,3.8328,3.9044,4.0524,4.1544,4.2492,4.3406,4.3627,4.3775,4.3848,0.0,0.0,0.0,0.0,4.523,4.5291,4.4643,4.4319,4.4383,4.444,4.4524,4.4616,4.5644,4.61,4.6138,4.7124,4.7112,4.6397,4.6587,4.6244,4.5533,4.5438,4.5475,4.5586,4.5586,4.5586,0.0,0.0,0.0,2.3162,2.397,2.4317,2.4772,2.5718,2.5829,2.6007,2.6426,2.6454,2.6197,2.5698,2.6334,2.6339,2.5094,2.6954,2.811,2.7939,2.8743,2.9002,2.8401,2.8752,2.9247,2.9861,3.0109,3.0598,3.1354,3.2084,3.2442,3.2524,3.2733,3.2406,3.1676,3.1872,3.1895,3.1778,3.2081,3.2431,3.2819,3.3153,3.3153,3.2943,3.3014,3.386,3.5172,3.6135,3.625,3.6091,3.6794,3.6392,3.546,3.4518,3.3684,0.0,0.0,0.0,0.0,0.0,0.0,0.0,0.0,0.0,0.0,0.0,0.0,0.0,0.0,0.0,0.0,0.0,0.0,0.0,3.6622,3.635,3.6075,3.6292,3.5493,3.5281,3.6266,3.6468,3.6894,3.788,3.9401,4.0573,4.1311,4.2624,4.3649,4.4273,4.4491,0.0,4.6654,4.6138,4.5909,4.6116,4.5366,4.4755,4.4244,0.0,0.0,4.4561,4.5563,4.6048,4.6176,4.7768,4.7656,4.644,4.7819,4.764,4.6377,4.5707,4.555,4.5586,4.5586,4.5586,4.5586,0.0,2.2729,2.3094,2.4042,2.4919,2.5694,2.6232,2.678,2.704,2.685,2.6271,2.5596,2.4887,2.5206,2.5023,2.3911,2.5726,2.7494,2.8745,2.897,2.9062,2.9166,2.9271,2.9542,3.003,3.0547,3.1054,3.1558,3.248,3.2929,3.3003,3.307,3.2658,3.193,3.2399,3.2384,3.2043,3.2905,3.3254,3.3332,3.3782,3.3944,3.3913,3.3937,3.473,3.5909,3.6726,3.6985,3.7007,3.7295,3.7339,3.7079,3.609,3.5399,3.4774,0.0,0.0,0.0,0.0,0.0,0.0,0.0,0.0,0.0,0.0,0.0,0.0,0.0,0.0,3.5242,3.5663,0.0,3.692,3.7123,3.662,3.5976,3.5322,3.4517,3.4396,3.5544,3.5416,3.5701,3.693,3.8227,3.9316,4.0117,4.1752,4.2919,4.3286,4.4126,4.4784,4.5259,4.4998,4.4881,4.5053,4.4337,4.4023,4.4184,4.4296,4.4383,4.4571,4.5978,4.6652,4.6781,4.8526,4.8643,4.7555,4.7615,4.728,4.6627,4.5784,4.5532,4.5603,4.5659,4.5659,4.5659,0.0,0.0,2.2978,2.4085,2.5407,2.6493,2.7004,2.7539,2.7772,2.7392,2.6086,2.4981,2.4405,2.4263,2.4081,2.3823,2.5097,2.6897,2.9163,2.9045,2.9213,2.9907,3.0052,3.0137,3.0219,3.0997,3.1493,3.1718,3.2683,3.3173,3.3249,3.3473,3.3063,3.2174,3.3042,3.3075,3.2555,3.3915,3.4225,3.3845,3.4567,3.4853,3.4828,3.4659,3.5096,3.5918,3.6532,3.6704,3.6714,3.6935,3.7286,3.7491,3.6819,3.6558,3.6453,3.6122,3.5341,0.0,0.0,0.0,0.0,0.0,0.0,0.0,0.0,3.4157,3.3919,3.3888,3.4873,3.5824,3.6263,3.7433,3.8196,3.7706,3.6965,3.5959,3.4619,3.377,3.3776,3.5001,3.4523,3.4758,3.6266,3.7344,3.828,3.9143,4.1026,4.2118,4.2081,4.3541,4.4124,4.3463,4.3385,4.3413,4.3545,4.2976,4.3101,4.396,4.4349,4.4616,4.4768,4.6591,4.7483,4.764,4.9083,4.9466,4.891,4.7167,4.6615,4.6837,4.5784,4.5457,4.5586,4.5676,4.5693,4.5693,0.0,0.0,0.0,2.4676,2.5199,2.5904,2.7437,2.7275,2.6987,2.7118,2.5888,2.499,2.4918,2.4433,2.4684,2.6164,2.6539,2.7432,2.918,3.0048,3.0617,3.0753,3.0866,3.0956,3.1042,3.1217,3.173,3.2569,3.3523,3.3991,3.4097,3.4928,3.4494,3.3006,3.3943,3.4287,3.4225,3.442,3.4894,3.5531,3.5677,3.5762,3.5684,3.4906,3.5139,3.5903,3.5853,3.5844,3.6024,3.7423,3.7318,3.6752,3.7224,3.7705,3.7887,3.7031,3.6403,3.5944,3.5751,3.5679,3.5504,3.5048,3.5483,3.6008,0.0,3.4993,3.4374,3.4843,3.4971,3.5471,3.6868,3.7869,3.8472,3.8405,3.7126,3.5839,3.4939,3.3329,3.2616,3.3635,3.341,3.3557,3.4681,3.6121,3.7277,3.8108,4.0419,4.1723,4.1649,4.2704,4.3251,4.3251,4.2591,4.2396,4.2627,4.2617,4.2749,4.2976,4.458,4.541,4.5536,4.7391,4.8352,4.8472,4.8795,4.9328,4.9784,4.7457,4.6975,4.7618,4.6032,4.5438,4.5532,4.5586,4.5603,4.5603,0.0,0.0,0.0,2.4579,2.5345,2.6075,2.6848,2.7561,2.7628,2.6478,2.6258,2.5506,2.3789,2.3462,2.4202,2.6371,2.6638,2.7401,2.9067,2.9646,3.018,3.0767,3.0941,3.1279,3.1899,3.2458,3.2978,3.3401,3.432,3.4817,3.4903,3.4828,3.4438,3.3798,3.4246,3.4447,3.452,3.5033,3.5741,3.6495,3.6044,3.6137,3.6448,3.5125,3.5125,3.5772,3.5193,3.5291,0.0,3.6292,3.6166,3.5911,3.6483,3.6449,3.6302,3.7128,3.6711,3.6163,3.7041,3.6779,3.6282,3.6301,3.6146,3.5752,3.4925,3.432,3.3781,3.3393,3.3907,3.4792,3.5959,3.7129,3.7972,0.0,3.6935,3.5765,3.5161,3.3843,3.3137,3.3717,3.4156,3.4482,3.4657,3.5466,3.6283,3.7004,3.8721,3.9875,4.0311,4.1251,4.161,4.1241,4.0909,4.0891,4.1108,4.1625,4.2199,4.2835,4.417,4.5073,4.5656,4.7024,4.8258,4.9315,4.944,4.9708,4.9974,4.8562,4.793,4.7848,4.7182,4.6628,4.6224,4.583,4.5671,4.5671,0.0,0.0,0.0,2.3799,2.4966,2.5971,2.6596,2.7757,2.8006,2.6526,2.6747,2.6101,2.384,2.3676,2.4559,2.6593,2.6841,2.7625,2.9287,2.9539,3.006,3.0984,3.1446,3.1864,3.2336,3.3296,3.3802,3.3887,3.4611,3.4994,3.5014,3.4712,3.4583,3.4693,3.4979,3.5263,3.5551,3.5957,3.6509,3.7031,3.6153,3.6316,3.6946,3.5461,3.5453,3.5982,3.4641,3.4623,3.5218,3.4854,3.4654,3.4617,3.4927,3.476,3.4801,3.6472,3.6869,3.7003,3.7905,3.7875,3.7525,3.7192,3.6605,3.5732,3.43,3.3491,3.2831,3.2013,3.2627,3.3595,3.46,3.6011,3.7102,3.746,3.6495,3.5564,3.503,3.403,3.3541,3.4151,3.5007,3.5625,3.5832,3.5863,3.6042,3.6328,3.768,3.8645,3.8974,3.9872,4.0115,3.9447,3.9443,3.957,3.9778,4.0849,4.1755,4.25,4.3946,4.4998,4.5619,4.6939,4.8362,4.9807,4.9933,5.0076,5.0051,4.9349,4.8694,4.8209,4.8064,4.7644,4.7089,4.6596,4.6259,4.6012,0.0,0.0,0.0,0.0,2.3575,2.5278,2.7065,2.7526,2.7677,2.7718,2.7315,2.6744,2.6069,2.6136,2.6531,2.7391,2.7593,2.8379,3.0063,3.0323,3.0872,3.1837,3.2793,3.2992,3.2317,3.324,3.3747,3.3798,3.4014,3.4127,3.418,3.5059,3.5483,3.5581,3.6466,3.7334,3.8152,3.7288,3.7005,3.7016,3.6153,3.6324,3.7,3.6083,3.6301,3.6703,3.4175,3.3771,3.429,3.3327,3.2819,3.2651,3.2411,3.32,3.4328,3.4917,3.7138,3.9141,3.7986,3.8952,3.9642,3.7199,3.6768,3.6455,3.4857,3.3016,3.1614,3.1453,3.1339,3.1684,3.3129,3.4632,3.5808,3.6394,3.5776,3.4998,3.4415,3.3591,3.3446,3.4576,3.5454,3.6654,0.0,3.7656,3.6889,3.6256,3.7863,3.8618,3.7971,3.8831,3.9073,3.8437,3.8533,3.8689,3.8929,4.0554,4.1459,4.1646,4.4244,4.5522,4.5656,4.7655,4.9012,4.9807,5.0024,5.0127,5.0051,4.9358,4.906,4.9006,4.8273,4.7969,4.7971,4.8158,4.7653,4.6771,0.0,0.0,0.0,0.0,0.0,2.5501,2.6233,2.6902,2.7257,2.7034,2.7004,0.0,0.0,0.0,0.0,0.0,2.7851,2.8067,2.9258,2.9926,3.0729,3.1727,3.2702,3.3473,3.386,3.4283,3.4565,3.4674,3.4754,3.4833,3.4894,3.5325,3.5817,3.6408,3.6752,3.7378,3.8225,3.7967,3.82,3.8684,3.7847,3.805,3.8672,3.7217,3.685,3.6763,0.0,3.3654,3.4156,3.3173,3.2316,3.1732,3.2034,3.1896,3.1961,3.3701,3.5474,3.6806,3.6679,3.7149,3.7364,3.6288,3.586,3.5337,3.3957,3.2424,3.1082,3.0347,3.0154,3.0592,3.1967,3.3396,3.4767,3.6069,3.602,3.5864,3.5969,3.55,3.5333,3.5827,3.6868,0.0,0.0,0.0,0.0,3.7439,3.7633,3.7927,3.8249,3.9075,3.9475,3.9337,3.9553,3.9797,4.0097,4.1429,4.2142,4.2335,4.4475,4.5559,4.5656,4.6977,4.807,4.8881,4.9136,4.9569,5.0089,4.9968,4.958,4.9127,4.952,4.9332,4.8894,4.9062,4.8904,4.8441,0.0,0.0,0.0,0.0,0.0,0.0,0.0,0.0,0.0,0.0,0.0,0.0,0.0,0.0,0.0,0.0,0.0,2.8482,2.8821,2.9428,3.0083,3.0806,3.1778,3.2622,3.333,3.379,3.4225,3.4618,3.4721,3.4971,3.5315,3.5412,3.593,3.6832,3.7179,3.7846,3.8682,3.8722,3.9073,3.951,3.8723,3.8926,3.9529,3.8433,3.7977,0.0,3.4941,3.4079,3.3994,3.2377,3.1516,3.1269,3.1784,3.2033,3.2428,3.3983,3.5028,3.5842,3.641,3.6303,3.596,3.5822,3.5247,3.4441,3.335,3.1914,3.0573,2.962,2.9396,2.9633,3.0843,3.2296,3.386,3.5571,3.5907,3.6084,3.6578,3.6533,3.654,3.6776,3.7998,3.8692,0.0,0.0,0.0,3.8146,3.7936,3.8028,3.8677,3.9009,3.9341,3.9783,4.0088,4.0239,4.0263,4.1632,4.2599,4.315,4.4475,4.526,4.5619,4.6685,4.7627,4.8409,4.8996,4.9391,4.9708,5.0121,4.9847,4.9204,5.0155,5.0197,4.9739,4.9874,4.9735,4.929,0.0,0.0,0.0,0.0,0.0,0.0,0.0,0.0,0.0,0.0,0.0,0.0,0.0,0.0,0.0,0.0,0.0,0.0,2.8822,2.8942,2.914,2.9339,3.0251,3.0822,3.096,3.1902,3.2861,3.3709,3.392,3.4435,3.5239,3.5345,3.5916,3.6845,3.7681,3.8543,3.9429,3.9553,3.9596,3.9549,3.8801,3.8947,3.9588,3.9588,3.9536,3.9108,3.6497,3.4969,3.3758,3.1054,3.0624,3.1242,3.1697,3.3413,3.5259,3.5492,3.5745,3.6093,3.7076,3.639,3.5454,3.5819,3.4981,3.3881,3.306,3.1473,2.999,2.9317,2.891,2.8914,2.9819,0.0,3.3215,3.4881,3.546,3.5882,3.6268,3.6731,3.7182,0.0,0.0,0.0,0.0,0.0,0.0,3.8333,0.0,3.8981,3.9161,3.862,3.8793,3.9779,3.9932,3.9876,3.9537,4.1204,4.2717,4.3986,4.417,4.4699,4.5581,4.6638,4.7579,4.8409,4.9489,4.9556,4.9023,4.993,4.9862,4.9274,5.0214,5.0542,5.0521,5.0645,5.0239,4.9314,0.0,0.0,0.0,0.0,0.0,0.0,0.0,0.0,0.0,0.0,0.0,0.0,0.0,0.0,0.0,0.0,0.0,0.0,2.8858,2.9478,2.9987,3.0191,3.1102,3.164,3.1804,0.0,0.0,3.2817,3.3565,3.4098,3.4434,3.5076,3.5849,3.6752,3.7077,3.7655,3.8505,3.9209,3.9514,3.9564,4.0023,3.9966,3.9588,3.9547,3.9127,3.8268,3.624,3.5262,3.4504,3.1882,3.16,3.2535,3.3488,3.3876,3.4129,3.5005,3.4993,3.4802,3.5276,3.5233,3.4961,3.4673,3.4116,3.3413,3.2486,3.1128,2.9811,2.8958,2.8651,2.8704,2.9198,3.1093,0.0,3.3758,3.5156,0.0,3.7095,3.7529,0.0,3.7983,0.0,3.8718,3.8634,3.9153,0.0,0.0,3.8764,3.8905,3.8459,3.9548,4.012,3.987,4.0341,4.0392,3.9949,4.0915,4.23,4.3929,4.3543,4.381,4.4662,4.5754,4.6694,4.7569,4.8617,4.9353,4.9822,5.0159,5.0214,5.015,5.0423,5.0563,5.0644,5.0664,5.0604,5.0293,0.0,0.0,0.0,0.0,0.0,0.0,0.0,0.0,0.0,0.0,0.0,0.0,0.0,0.0,0.0,0.0,0.0,0.0,0.0,3.0418,3.082,3.0997,3.16,3.1976,3.206,0.0,0.0,0.0,0.0,0.0,3.4634,3.5124,3.5667,3.6199,3.6614,3.7064,3.7604,3.8929,0.0,0.0,0.0,3.9962,3.9547,3.9503,3.9146,3.8428,3.6598,3.5239,3.4281,3.373,3.3641,3.387,3.463,3.4939,3.4961,3.4809,3.4428,3.4139,3.43,3.4014,3.353,3.3105,3.2918,3.2527,3.1329,3.0431,2.9636,2.9002,2.8836,2.8907,2.9337,3.122,3.3004,0.0,0.0,0.0,3.7831,3.8492,3.8841,0.0,3.8937,0.0,3.8344,3.8926,3.8829,0.0,3.8387,3.8768,3.8554,3.8973,3.9411,3.979,4.0009,4.0162,4.0273,4.0544,4.1562,4.3347,4.3103,4.3445,4.4333,4.5453,4.642,4.7267,0.0,4.9087,4.9594,5.0121,5.0138,4.9942,5.0368,5.0584,5.0682,5.0683,5.0701,5.0678,0.0,0.0,0.0,0.0,0.0,0.0,0.0,0.0,0.0,0.0,2.946,0.0,0.0,0.0,0.0,0.0,0.0,0.0,0.0,0.0,0.0,0.0,3.1868,3.2014,3.1998,3.2182,3.2657,3.3431,3.3691,0.0,0.0,0.0,0.0,0.0,0.0,0.0,0.0,0.0,0.0,0.0,3.9429,3.9402,3.9336,0.0,0.0,3.8729,3.7048,3.5192,3.3896,3.5599,3.569,3.5075,3.5346,3.6076,3.6521,3.4891,3.4141,3.39,3.3889,3.299,3.2081,3.1787,3.1873,3.1632,3.0135,2.9732,2.96,2.9228,2.9182,2.9281,2.9724,3.1513,3.3291,3.4259,0.0,3.748,3.8407,3.9323,3.9645,3.9089,3.9656,3.9628,3.8491,3.8727,3.8418,3.6958,3.7814,3.8505,3.8688,3.7772,3.7922,3.9444,3.9223,3.9451,4.0347,4.0097,4.0861,4.2617,4.2962,4.3557,4.4371,4.5669,4.6636,4.7267,0.0,0.0,4.9099,4.9968,4.9908,4.9362,5.0274,5.0622,5.0642,5.0682,5.0702,5.0701,0.0,0.0,0.0,0.0,0.0,0.0,0.0,0.0,0.0,0.0,3.007,3.0129,0.0,0.0,0.0,0.0,0.0,0.0,0.0,0.0,0.0,0.0,3.1912,3.2019,3.2084,3.2221,3.2392,3.2599,3.3425,3.3963,0.0,0.0,0.0,0.0,0.0,0.0,0.0,0.0,0.0,0.0,3.9083,3.8955,3.8491,0.0,0.0,0.0,3.633,3.5706,3.5192,3.5165,3.5367,3.5706,3.6039,3.6236,3.6146,3.4718,3.4326,3.4235,3.3713,3.3266,3.2748,3.2228,3.2099,3.1744,3.0027,2.9983,2.9988,2.8591,2.9046,2.9695,2.9639,3.1482,3.3229,3.3972,3.5579,3.7268,3.8682,3.9161,3.9216,0.0,3.9023,3.8747,3.7916,3.7875,0.0,0.0,0.0,3.7656,3.7217,3.7643,3.8036,3.8349,3.8054,3.8438,3.9478,3.9808,4.0835,4.2617,4.3595,4.4154,4.4371,4.6835,4.7692,4.7305,4.9086,0.0,4.9898,5.0197,5.0275,5.027,5.0423,5.0584,5.0702,5.0702,5.0702,5.0701,0.0,0.0,0.0,0.0,0.0,0.0,0.0,2.8254,2.9179,3.0211,3.0732,3.1253,3.2007,3.2268,3.2424,0.0,0.0,0.0,0.0,0.0,0.0,0.0,0.0,0.0,0.0,3.3501,3.3638,3.3658,0.0,3.4501,3.4585,3.5021,3.5277,3.533,3.5398,3.5427,3.5507,3.6392,3.7266,3.8064,3.8445,3.8614,0.0,0.0,0.0,0.0,0.0,3.6803,3.5477,3.5944,3.555,3.4986,3.5368,3.5311,3.4954,3.4385,3.4021,3.3762,3.3443,3.3203,3.2788,3.1873,3.1891,3.1688,3.0081,3.0098,3.0231,2.933,2.9601,2.9958,2.9986,3.1626,3.314,3.3591,3.5769,3.7734,3.8641,3.9174,3.938,3.9025,3.8715,3.8216,3.7484,3.7626,3.7674,0.0,0.0,3.7682,3.7665,3.801,3.8215,3.8134,3.7745,3.79,3.8749,3.9516,4.0583,4.1989,4.3558,4.449,4.5006,4.6459,4.7391,4.7871,4.8491,0.0,5.0127,5.0188,5.0344,5.0457,5.0457,5.0521,5.0663,5.0663,5.0664,5.0702,0.0,0.0,0.0,0.0,0.0,0.0,2.7163,2.8425,2.9558,3.0211,3.1498,3.2441,3.282,3.2909,3.2997,0.0,0.0,0.0,0.0,0.0,0.0,0.0,0.0,0.0,0.0,0.0,0.0,3.4788,3.4946,0.0,0.0,0.0,0.0,0.0,3.53,3.5431,3.5705,3.6381,3.7241,0.0,0.0,3.8569,0.0,0.0,0.0,0.0,0.0,3.728,3.5533,3.6316,3.5439,3.4082,3.4376,3.4356,3.4117,3.3917,3.3617,3.3388,3.3308,3.3096,3.2648,3.1658,3.1647,3.1511,3.0256,3.0243,3.0466,3.0214,3.0218,3.0397,3.0655,3.2009,3.3232,3.3865,3.623,3.8135,3.8775,3.9344,3.9606,3.9277,3.8748,0.0,3.7802,3.8003,0.0,0.0,0.0,0.0,3.822,3.8167,3.813,3.8174,3.7709,3.7829,3.8561,3.9658,4.0688,4.1693,4.3632,4.4901,4.5499,4.6008,4.7051,4.8372,4.7946,0.0,0.0,5.0163,5.0259,5.0412,5.0412,5.0478,5.0622,5.0622,5.0663,5.0721,0.0,0.0,0.0,0.0,0.0,0.0,2.7879,2.8768,2.9971,3.1672,3.2577,3.3245,3.3634,3.3166,3.2902,0.0,0.0,0.0,0.0,0.0,0.0,0.0,0.0,0.0,0.0,0.0,0.0,3.4788,3.487,0.0,0.0,0.0,0.0,0.0,0.0,3.5745,3.6504,3.6511,0.0,0.0,0.0,0.0,0.0,0.0,0.0,0.0,0.0,3.5836,3.5864,3.4888,3.4217,3.3774,3.3456,3.3978,3.4525,3.3436,3.3571,3.3903,3.3435,3.3096,3.2773,3.2241,3.1702,3.1189,3.0794,3.0573,3.0466,3.0297,3.0687,3.125,3.196,3.2731,3.3925,3.5908,3.703,3.8266,3.9864,3.9558,3.9462,4.0128,0.0,0.0,3.9563,3.9262,0.0,0.0,0.0,0.0,3.7849,3.7352,3.7413,3.7977,3.7785,3.8222,3.9361,4.0492,4.1562,4.2506,4.4451,4.5424,4.5536,4.6572,4.7579,4.8409,4.8617,0.0,0.0,5.0163,5.0259,5.0412,5.0412,5.0478,5.0622,5.0622,5.0663,5.0702,0.0,0.0,0.0,0.0,0.0,0.0,2.7947,2.8459,2.9524,3.1705,3.2298,3.3001,3.427,3.4269,3.3904,3.3158,0.0,0.0,0.0,0.0,0.0,0.0,0.0,0.0,0.0,0.0,3.5421,3.5442,3.5567,0.0,0.0,0.0,0.0,0.0,0.0,3.5293,3.6463,3.5414,0.0,0.0,0.0,0.0,0.0,0.0,0.0,0.0,0.0,0.0,3.603,3.58,3.5114,3.427,3.3865,3.3774,3.3719,3.3071,3.2912,3.3,3.3316,3.3203,3.2935,3.2523,3.2118,3.1793,3.1683,3.146,3.1234,3.1063,3.1426,3.1871,3.2108,3.3057,3.4282,3.5669,3.7014,3.828,3.9566,3.9339,3.9172,3.9754,3.9125,0.0,0.0,0.0,3.9307,0.0,0.0,0.0,3.9192,3.9303,3.9475,3.954,3.8818,3.8978,4.0197,4.0826,4.1899,4.3356,4.5301,4.647,4.7025,4.7625,4.8372,4.9164,4.8867,0.0,0.0,5.0089,5.0188,5.0259,5.0306,5.0412,5.0478,5.0478,5.0542,5.0663,0.0,0.0,0.0,0.0,0.0,2.6928,2.7674,2.8082,2.911,3.1288,3.1881,3.2791,3.4586,3.5155,3.4975,3.3912,3.4377,0.0,0.0,0.0,0.0,0.0,0.0,0.0,0.0,0.0,3.6039,3.6287,3.6411,3.6364,0.0,0.0,3.5356,3.5174,0.0,0.0,0.0,0.0,0.0,0.0,0.0,0.0,0.0,0.0,0.0,0.0,0.0,0.0,0.0,0.0,0.0,3.4508,3.4125,3.3605,3.3125,3.3062,3.2722,3.2514,3.3272,3.3309,3.3043,3.2687,3.2105,3.1702,3.2099,3.1693,3.1317,3.1564,3.2078,3.2467,3.2495,3.3508,3.4678,3.5739,3.7086,3.8263,3.9087,3.8978,3.8929,3.9409,0.0,3.8547,0.0,3.9192,0.0,0.0,0.0,0.0,0.0,4.0948,4.115,4.0567,3.9711,3.9842,4.1033,4.1342,4.2382,4.4169,4.5637,4.695,4.7996,4.8039,4.8523,4.9277,0.0,0.0,0.0,4.9987,5.0139,5.0188,5.0236,5.0344,5.0412,5.0435,5.0478,5.0563,0.0,0.0,0.0,0.0,0.0,0.0,2.6992,2.7772,2.8971,3.0595,3.1568,3.2791,3.4586,3.5579,3.5901,3.5529,3.4992,0.0,0.0,0.0,0.0,0.0,0.0,0.0,0.0,0.0,3.6295,3.719,3.7257,3.6911,3.6217,3.6274,3.591,3.52,0.0,0.0,0.0,0.0,0.0,0.0,0.0,0.0,0.0,0.0,0.0,0.0,0.0,0.0,0.0,0.0,0.0,0.0,0.0,3.3431,3.3094,3.3557,3.3383,3.3064,3.3399,3.3309,3.3043,3.2687,3.1397,3.0571,3.1885,3.0964,3.0202,3.1528,3.2312,3.2975,3.3638,3.4271,3.5208,3.6728,3.7552,3.8111,3.8442,3.867,3.8929,0.0,0.0,3.8898,3.9902,3.9949,0.0,0.0,0.0,0.0,0.0,4.1622,4.1719,4.0438,4.0249,4.0744,4.1869,4.2216,4.3262,4.4986,4.5345,4.6396,4.7996,4.7466,4.7655,0.0,0.0,0.0,0.0,4.9759,5.0139,5.0188,5.0188,5.0259,5.0412,5.0478,5.05,5.0521,0.0,0.0,0.0,0.0,0.0,0.0,2.764,2.7636,2.849,3.1219,3.1429,3.2441,3.5328,3.6006,3.6506,3.7073,3.6555,0.0,0.0,0.0,0.0,0.0,0.0,0.0,0.0,0.0,3.7614,3.7901,3.8041,3.7737,3.6952,3.6521,3.5874,3.511,3.4466,3.4925,0.0,0.0,0.0,0.0,0.0,0.0,0.0,0.0,0.0,0.0,0.0,0.0,0.0,0.0,0.0,0.0,0.0,0.0,0.0,3.3824,3.3258,3.2385,3.2748,3.2685,3.2521,3.2756,3.2323,3.1944,3.2266,3.183,3.1576,3.2455,3.3093,3.3668,3.4177,3.5027,3.5879,3.6658,3.7157,3.7628,3.8218,0.0,0.0,3.9314,3.9329,3.9424,0.0,0.0,0.0,0.0,0.0,0.0,0.0,4.1453,4.1754,4.1384,4.1145,4.1537,4.2557,4.2921,4.375,4.5023,4.6368,4.7015,4.7105,4.762,0.0,0.0,0.0,0.0,0.0,4.9962,5.0089,5.0139,5.0212,5.0283,5.0344,5.0367,5.0412,5.0435,0.0,0.0,0.0,0.0,0.0,0.0,2.7638,2.7362,2.8044,3.0733,3.0768,3.1812,3.5187,3.5686,3.6364,3.7792,3.7569,0.0,0.0,0.0,0.0,0.0,0.0,0.0,0.0,3.7916,3.8353,3.869,3.886,3.8373,3.7246,3.6917,3.6103,3.4964,3.4395,3.4718,0.0,0.0,0.0,0.0,0.0,0.0,3.9201,0.0,0.0,0.0,0.0,0.0,0.0,0.0,0.0,0.0,0.0,0.0,0.0,0.0,3.2822,3.2353,3.2761,3.2748,3.2688,3.2949,3.2586,3.2269,3.2376,3.2007,3.1875,3.2728,3.3396,3.4,3.4478,3.5392,3.6158,3.6455,3.6923,3.733,3.7548,0.0,0.0,3.9215,0.0,0.0,0.0,0.0,0.0,0.0,0.0,0.0,0.0,4.138,4.178,4.1902,4.1864,4.2183,4.288,4.3214,4.3901,4.4952,4.619,4.6759,4.6732,4.744,0.0,0.0,0.0,0.0,0.0,4.9872,5.0101,5.0127,5.0139,5.0212,5.0283,5.0283,5.0344,5.0367,0.0,0.0,0.0,0.0,0.0,0.0,0.0,2.7085,2.7732,2.9486,2.976,3.1078,3.4411,3.4977,3.583,3.7828,3.8077,0.0,0.0,0.0,0.0,0.0,0.0,0.0,3.8152,3.8228,3.869,3.9488,3.9677,3.8945,3.7294,3.7478,3.6591,3.4906,3.4945,3.4866,0.0,0.0,0.0,0.0,3.6779,3.7091,0.0,0.0,0.0,0.0,0.0,0.0,0.0,0.0,0.0,0.0,0.0,0.0,0.0,0.0,0.0,0.0,0.0,3.3319,3.3193,3.3096,3.2382,3.1805,3.2259,3.1702,0.0,3.2462,3.3396,3.4122,3.4572,3.5488,3.6196,3.6196,3.6746,0.0,0.0,3.8028,0.0,0.0,3.8974,0.0,0.0,0.0,0.0,0.0,0.0,0.0,0.0,4.138,4.1736,4.1987,4.2369,4.2649,4.2802,4.3178,4.383,4.4702,4.5156,4.5797,4.662,4.6847,0.0,0.0,0.0,0.0,0.0,4.9629,5.0012,5.0101,5.0012,5.0114,5.0298,5.0298,5.0298,5.0283,0.0,0.0,0.0,0.0,0.0,0.0,0.0,0.0,0.0,0.0,2.9791,3.1078,3.441,3.5473,3.6646,0.0,0.0,0.0,0.0,0.0,0.0,0.0,0.0,0.0,3.884,3.8931,3.9096,3.9283,4.0087,3.9627,3.8085,3.8771,3.7898,3.5694,3.5631,3.5499,0.0,0.0,0.0,0.0,3.7636,3.7684,0.0,0.0,0.0,0.0,3.4163,3.4403,0.0,0.0,0.0,0.0,0.0,0.0,0.0,0.0,3.2944,3.3169,3.253,0.0,3.2405,3.281,3.2648,3.2338,0.0,3.2013,3.194,3.2553,3.3336,3.403,3.4478,3.5425,3.6133,3.61,3.6411,3.6661,3.6693,3.7932,0.0,3.8211,3.8888,3.9185,0.0,0.0,0.0,0.0,0.0,0.0,0.0,4.1595,4.1987,4.2079,4.2409,4.2649,4.2802,4.3687,4.4016,4.3789,4.5284,4.589,4.5743,4.6433,0.0,0.0,0.0,0.0,4.9542,4.9895,4.9986,5.0012,5.0038,5.0127,5.0177,5.0177,5.0177,5.0139,0.0,0.0,0.0,0.0,0.0,0.0,0.0,0.0,0.0,0.0,3.0105,3.1358,3.4023,3.5402,3.6717,0.0,0.0,0.0,0.0,0.0,0.0,0.0,0.0,3.8377,3.8507,3.8951,3.9415,3.9825,4.0008,3.9638,3.8765,3.8539,3.7535,3.5822,3.5296,3.5355,0.0,0.0,0.0,0.0,3.7497,0.0,0.0,0.0,0.0,0.0,3.3806,3.4094,0.0,3.3284,3.2908,3.2973,0.0,0.0,0.0,0.0,3.2215,3.2297,3.1977,3.2447,3.3011,3.3201,3.3098,3.2875,3.2593,3.2209,3.2007,3.2496,3.2976,3.3608,3.4355,3.5182,3.5797,3.5976,3.6352,0.0,0.0,0.0,3.8896,3.8435,3.9043,0.0,0.0,0.0,0.0,0.0,0.0,0.0,0.0,4.1684,4.203,4.2037,4.2767,4.3228,4.3385,4.4051,4.4455,4.4599,4.5692,4.612,4.5908,4.6445,4.7236,0.0,0.0,0.0,4.9721,4.9835,4.9879,4.9933,4.9933,5.005,5.0127,5.0076,5.0063,5.0089,0.0,0.0,0.0,0.0,0.0,0.0,0.0,0.0,0.0,0.0,0.0,0.0,0.0,0.0,0.0,0.0,0.0,0.0,0.0,0.0,0.0,0.0,0.0,3.8645,3.797,3.8637,3.9398,4.0254,3.9629,3.9346,3.9272,3.8141,3.698,3.5813,3.5058,3.5314,0.0,0.0,0.0,0.0,3.7221,0.0,0.0,0.0,0.0,0.0,0.0,0.0,0.0,3.2219,3.2164,3.2253,3.131,0.0,0.0,0.0,0.0,0.0,3.1488,3.2756,3.3935,3.3531,3.3393,3.3253,3.2962,3.2307,3.1892,3.2317,3.2586,3.3096,3.4175,3.4849,3.537,3.5915,0.0,0.0,3.8121,3.881,3.909,3.8978,3.9114,0.0,0.0,0.0,0.0,0.0,0.0,0.0,0.0,4.1639,4.1987,4.1987,4.3048,4.3768,4.4114,4.4452,4.4967,4.5663,4.6026,4.6382,4.6698,4.6824,4.7398,0.0,0.0,0.0,4.9604,4.9663,4.9778,4.9852,4.9807,4.9917,5.0076,4.9986,4.9986,5.0063,0.0,0.0,0.0,0.0,0.0,0.0,0.0,0.0,0.0,0.0,0.0,0.0,0.0,0.0,0.0,0.0,0.0,0.0,0.0,0.0,0.0,3.7394,3.8272,3.8826,3.8736,3.8182,3.8386,3.9221,3.9138,3.912,3.9229,3.9741,3.8718,3.6467,3.6952,3.6757,3.6097,0.0,0.0,3.7954,3.7821,0.0,0.0,0.0,0.0,0.0,0.0,0.0,0.0,3.1636,3.1363,3.1213,3.142,0.0,0.0,0.0,0.0,0.0,3.0794,3.2006,3.3388,3.2887,3.2998,3.3047,3.2466,3.2057,3.1829,3.1862,3.2255,3.2826,3.3698,3.4546,3.5246,3.6041,0.0,3.7033,0.0,0.0,3.8042,3.8882,0.0,0.0,0.0,0.0,0.0,0.0,0.0,0.0,0.0,4.156,4.1909,4.2079,4.2471,4.3149,4.4077,4.496,4.5185,4.4638,4.5697,4.6644,4.7451,4.7582,4.8156,0.0,0.0,4.9363,4.9604,4.9663,4.9721,4.9721,4.9721,4.9778,4.9862,4.9835,4.989,4.9906,0.0,0.0,0.0,0.0,0.0,0.0,0.0,0.0,0.0,0.0,0.0,0.0,0.0,0.0,0.0,0.0,0.0,0.0,0.0,0.0,3.8274,3.7239,3.7717,3.8051,3.8206,3.8309,3.8744,3.9616,3.9608,3.9925,4.0428,3.9908,3.897,3.7718,3.7124,3.6955,3.7112,3.691,3.7462,3.8367,0.0,0.0,0.0,0.0,0.0,0.0,0.0,0.0,0.0,0.0,3.103,3.0665,3.0243,0.0,0.0,0.0,0.0,0.0,3.0112,3.1205,3.2241,3.2247,3.2928,3.3454,3.3002,3.2553,3.2105,3.1745,3.1837,3.2198,3.2976,3.388,3.4973,3.6384,0.0,3.7808,3.8184,3.8401,3.8676,0.0,0.0,0.0,0.0,0.0,0.0,0.0,0.0,0.0,0.0,0.0,4.1945,4.2072,4.2798,4.322,4.3307,4.481,4.5658,4.5808,4.6397,4.7204,4.8123,4.8298,4.8692,4.9197,0.0,4.9358,4.939,4.9483,4.9514,4.9574,4.9604,4.9692,4.975,4.975,4.9778,4.9807,0.0,0.0,0.0,0.0,0.0,0.0,0.0,0.0,0.0,0.0,0.0,0.0,0.0,0.0,0.0,0.0,0.0,0.0,0.0,0.0,3.7881,3.7398,3.7307,3.732,3.7537,3.8029,3.8789,3.9785,3.9845,4.0392,4.1422,4.0133,3.9202,3.8579,3.74,3.718,3.7677,3.7218,3.7505,3.8244,0.0,0.0,0.0,0.0,0.0,0.0,0.0,0.0,0.0,0.0,0.0,0.0,0.0,0.0,0.0,2.8235,2.821,2.8505,2.9637,3.0532,3.1287,3.197,3.2881,3.3578,3.3396,3.2946,3.2407,3.2048,3.1988,3.2198,3.2916,3.388,0.0,3.663,3.7683,3.8333,3.8684,3.9156,0.0,0.0,0.0,0.0,0.0,0.0,0.0,0.0,0.0,0.0,0.0,0.0,4.1945,4.2023,4.2935,4.318,4.2609,4.4072,4.5433,4.6687,4.6984,4.7611,4.8569,4.8785,4.8927,4.9068,4.9131,4.9197,4.923,4.9262,4.9289,4.9352,4.9483,4.9574,4.9663,4.9692,4.9692,4.9692,0.0,0.0,0.0,0.0,0.0,0.0,0.0,0.0,0.0,0.0,0.0,0.0,0.0,0.0,0.0,0.0,0.0,0.0,0.0,0.0,3.8068,3.8234,3.7507,3.7202,3.7387,3.6817,3.7279,3.8914,3.8914,3.9718,4.1329,4.1125,4.0115,3.8433,3.8888,3.8111,3.6613,3.7745,3.7839,3.715,3.7574,0.0,0.0,0.0,0.0,0.0,0.0,0.0,0.0,0.0,0.0,0.0,0.0,0.0,2.8186,2.8069,2.8445,2.9061,2.9682,3.0316,3.1076,3.2197,3.2764,3.3059,3.3059,3.2794,3.2677,3.3397,3.3457,3.3606,3.439,3.5366,3.6229,3.6631,3.7218,3.7961,3.9094,0.0,0.0,0.0,0.0,0.0,0.0,0.0,0.0,0.0,0.0,0.0,0.0,0.0,0.0,4.2023,4.2276,4.2481,4.2609,4.2717,4.3782,4.5694,4.6653,4.761,4.8494,4.8715,4.8857,4.8927,4.9068,4.9131,4.9197,4.923,4.923,4.923,4.9289,4.9452,4.9604,4.9663,4.9692,4.9692,0.0,0.0,0.0,0.0,0.0,0.0,0.0,0.0,0.0,0.0,0.0,0.0,0.0,0.0,0.0,0.0,0.0,0.0,0.0,3.7,3.7246,3.7347,3.6717,3.663,3.7202,3.7064,3.7491,3.8621,3.9612,4.0965,4.2643,4.2029,4.1022,3.9657,3.9264,3.8295,3.6964,3.7298,3.7416,3.7469,3.6886,3.6311,0.0,0.0,0.0,0.0,0.0,0.0,0.0,0.0,2.8967,2.8668,2.8381,2.8088,2.779,2.764,2.7718,2.8136,2.9241,2.9798,3.0363,3.1569,3.2073,3.243,3.3126,3.3186,3.3185,3.3486,3.3546,3.3756,3.4727,0.0,3.5984,3.6723,3.7779,3.8651,0.0,0.0,0.0,0.0,0.0,0.0,0.0,0.0,0.0,0.0,0.0,0.0,0.0,0.0,0.0,4.2023,4.2282,4.2445,4.2526,4.2685,4.3385,4.4665,4.5696,4.6396,4.6948,4.8053,4.842,4.8116,4.867,4.8962,4.903,4.9098,4.9168,4.9131,4.9262,4.9321,4.9452,4.9551,4.9514,4.9483,0.0,0.0,0.0,0.0,0.0,0.0,0.0,0.0,0.0,0.0,0.0,0.0,0.0,0.0,0.0,0.0,0.0,0.0,3.5751,3.6357,3.6604,3.6384,3.6041,3.61,3.6676,3.6869,3.7405,3.846,4.0105,4.1748,4.3391,4.2446,4.1506,4.0671,3.937,3.832,3.7514,3.7114,3.7186,3.7431,3.6478,3.6129,0.0,0.0,0.0,0.0,0.0,0.0,0.0,0.0,2.8668,2.8381,2.8088,2.776,2.7488,2.7335,2.7432,2.7764,2.8966,2.9495,3.0112,3.1424,3.1869,3.2257,3.3453,3.3572,3.3604,3.4053,3.4175,3.451,3.5488,0.0,0.0,0.0,3.859,0.0,0.0,0.0,0.0,0.0,0.0,0.0,0.0,0.0,0.0,0.0,0.0,0.0,0.0,0.0,0.0,0.0,4.224,4.2405,4.2521,4.2685,4.3162,4.4075,4.5067,4.5807,4.6287,4.7794,4.8274,4.7938,4.8492,4.875,4.882,4.8927,4.9033,4.9101,4.9197,4.9262,4.9257,4.939,4.939,4.9289,0.0,0.0,0.0,0.0,0.0,0.0,0.0,0.0,3.18,3.18,3.1982,0.0,0.0,0.0,0.0,0.0,0.0,0.0,3.4175,3.5679,3.6249,3.5558,3.5555,3.5652,3.5815,3.5877,3.6771,3.8401,4.0005,4.161,4.3178,4.2159,4.1612,4.1276,3.9316,3.8254,3.7965,3.75,3.7113,3.6876,3.6552,3.5785,3.4769,0.0,0.0,0.0,0.0,0.0,0.0,0.0,2.8235,2.7959,2.766,2.7437,2.7181,2.7181,2.7653,2.8218,2.8921,2.9599,3.0424,3.1901,3.2317,3.2644,3.3921,3.3839,3.3873,3.522,3.5589,3.5963,3.6823,3.7299,0.0,3.8838,3.962,0.0,0.0,0.0,0.0,0.0,0.0,0.0,0.0,0.0,0.0,0.0,0.0,0.0,0.0,0.0,0.0,0.0,4.2037,4.2205,4.2521,4.2566,4.308,4.4029,4.5025,4.602,4.7018,4.8051,4.8494,4.8494,4.8569,4.8605,4.8605,4.8751,4.8892,4.9101,4.9101,4.9131,4.9193,4.9257,4.9289,4.9289,0.0,0.0,0.0,0.0,0.0,0.0,0.0,0.0,3.1837,3.1875,3.1984,0.0,0.0,0.0,0.0,0.0,0.0,0.0,3.3942,3.4574,3.5068,3.539,3.495,3.5235,3.6384,3.7571,3.8502,3.9173,3.8966,3.9948,4.2085,4.1607,4.0945,4.0099,3.9358,3.8139,3.6671,3.6361,3.6051,3.5732,3.5357,3.4937,3.4382,0.0,0.0,0.0,0.0,0.0,0.0,0.0,0.0,0.0,2.766,2.7632,2.7671,2.7671,2.7764,2.7977,2.8755,2.9134,2.9604,3.1102,3.2106,3.314,3.441,3.446,3.4505,3.5473,3.6014,3.6386,3.6435,3.7026,0.0,0.0,0.0,0.0,0.0,0.0,0.0,0.0,0.0,0.0,0.0,0.0,0.0,0.0,0.0,0.0,0.0,0.0,0.0,0.0,4.1987,4.2363,4.3066,4.3185,4.3745,4.47,4.5739,4.6118,4.602,4.7565,4.8012,4.7573,4.8237,4.8532,4.8605,4.8751,4.8524,4.8181,4.8844,4.8795,4.8445,4.907,4.9289,4.9289,0.0,0.0,0.0,0.0,0.0,0.0,0.0,0.0,3.1388,3.1461,3.181,3.2055,0.0,0.0,0.0,0.0,0.0,0.0,0.0,3.3901,3.425,3.4429,3.4637,3.5316,3.6572,3.7254,3.8115,3.9157,3.9229,4.0021,4.1461,4.1511,4.0984,3.9917,3.9623,3.8573,3.683,3.6288,3.5866,3.5409,3.4677,3.4413,3.4355,0.0,0.0,0.0,0.0,0.0,0.0,0.0,0.0,0.0,2.8077,2.8023,2.8071,2.8071,2.8163,2.8396,2.8913,2.9464,3.0163,3.1333,3.2482,3.3603,3.4633,3.4949,3.524,3.5889,3.6165,3.6325,3.6496,3.7367,0.0,0.0,0.0,0.0,0.0,0.0,0.0,0.0,0.0,0.0,0.0,0.0,0.0,0.0,0.0,0.0,0.0,0.0,0.0,0.0,4.2635,4.312,4.3756,4.3886,4.4407,4.5444,4.6086,4.639,4.6327,4.763,4.797,4.7571,4.8161,4.8273,4.8125,4.8567,4.834,4.7776,4.8699,4.8546,4.7975,4.8488,4.852,4.8221,0.0,0.0,2.6995,2.7947,0.0,0.0,0.0,0.0,3.0697,3.0803,3.1426,3.1949,0.0,0.0,0.0,0.0,0.0,0.0,0.0,3.3514,3.3651,3.2902,3.4396,3.5574,3.6254,3.5754,3.6435,3.8457,4.0075,4.0939,4.1264,4.1434,4.1032,4.0219,3.9797,3.8975,3.7793,3.6774,3.6089,3.5547,3.4424,3.4246,3.4484,3.3253,0.0,0.0,0.0,0.0,0.0,0.0,0.0,0.0,2.8735,2.8482,2.8397,2.8455,2.8712,2.9054,2.9288,3.0269,3.1363,3.2159,3.3135,3.4054,3.4898,3.5457,3.5946,3.632,3.6069,3.6023,3.6854,3.7981,3.9051,0.0,0.0,0.0,0.0,0.0,0.0,0.0,0.0,0.0,0.0,0.0,0.0,0.0,0.0,0.0,0.0,0.0,0.0,4.2858,4.3663,4.4269,4.4565,4.4662,4.5186,0.0,4.6284,4.6807,4.7493,4.7988,4.8187,4.8226,4.8194,4.7905,4.746,4.8088,4.8011,4.7553,4.837,4.8184,4.7512,4.7653,4.7239,4.6637,0.0,0.0,2.7807,2.8694,0.0,0.0,0.0,0.0,0.0,3.0697,0.0,0.0,0.0,0.0,0.0,0.0,0.0,0.0,0.0,3.2885,3.2983,3.2805,3.3695,3.43,3.4374,3.6007,3.7033,3.7415,3.7845,3.8982,4.0707,3.9357,3.8781,3.8945,3.8002,3.6864,3.5746,3.581,3.53,3.446,3.4386,3.4006,3.3392,3.2718,3.2437,0.0,0.0,0.0,0.0,0.0,0.0,0.0,2.8623,2.8425,2.8369,2.8797,2.8683,2.8511,2.8997,2.9772,3.0516,3.1334,3.3289,3.5263,3.6043,3.5828,3.5556,3.5687,3.5932,3.6334,3.7044,3.7851,0.0,0.0,0.0,0.0,0.0,0.0,0.0,0.0,0.0,0.0,0.0,0.0,0.0,0.0,0.0,0.0,0.0,0.0,0.0,4.3535,4.3863,4.4481,4.529,4.5427,4.5963,0.0,4.7068,4.7306,4.7657,4.7911,4.8111,4.8231,4.7607,4.7316,4.7316,4.6871,4.6311,4.5745,4.6665,4.6545,4.5978,4.6643,4.6781,4.6694,0.0,0.0,0.0,0.0,0.0,0.0,0.0,0.0,0.0,0.0,0.0,0.0,0.0,0.0,0.0,0.0,0.0,0.0,0.0,0.0,3.2494,3.3273,3.3275,3.3739,3.4728,3.5927,3.6837,3.7335,3.7411,3.8257,3.9764,3.9381,3.9032,3.8802,3.8424,3.7349,3.5943,3.5989,3.5175,3.3777,3.3625,3.3216,3.2609,3.216,3.191,3.1679,0.0,0.0,0.0,0.0,0.0,0.0,0.0,0.0,2.893,2.927,2.9068,2.887,2.927,2.9898,3.0706,3.1904,3.3734,3.5288,3.5456,3.5456,3.539,3.5215,3.5733,3.647,3.74,3.8208,0.0,0.0,0.0,0.0,0.0,0.0,0.0,0.0,0.0,0.0,0.0,0.0,0.0,0.0,0.0,4.3391,0.0,4.3915,4.3938,4.3602,4.4576,4.5188,4.5399,4.5538,4.6077,4.7053,4.6873,4.7126,4.7819,4.7947,4.8072,4.8229,4.7827,4.7537,4.7315,4.6908,4.6385,4.5815,4.6327,4.6025,4.5388,4.5797,4.5717,4.5407,0.0,0.0,0.0,0.0,0.0,0.0,0.0,0.0,0.0,0.0,0.0,0.0,0.0,0.0,0.0,0.0,0.0,0.0,0.0,0.0,0.0,3.3526,3.2926,3.3389,3.5142,3.5279,3.5859,3.6963,3.7274,3.7932,3.8901,3.9662,3.9651,3.8971,3.9126,3.8181,3.6565,3.6279,3.508,3.333,3.2835,3.245,3.2048,3.1474,0.0,0.0,0.0,0.0,3.0895,3.0657,0.0,0.0,0.0,0.0,2.9386,2.9386,2.9261,2.9171,2.9184,2.9876,3.1006,3.27,3.3984,3.4715,3.4448,3.4806,3.5205,3.5104,3.5659,3.6522,3.7752,0.0,0.0,0.0,0.0,0.0,0.0,0.0,0.0,0.0,0.0,0.0,0.0,0.0,0.0,0.0,0.0,4.411,4.4234,4.4539,4.4307,4.3541,4.5005,4.5633,4.5141,4.5198,4.5691,4.6692,4.6506,4.6916,4.7861,4.7947,4.8072,4.8187,4.8121,4.7758,4.7129,4.6982,4.657,4.6034,4.6034,4.5626,4.5032,4.5032,4.4618,4.4023,0.0,0.0,0.0,0.0,0.0,0.0,0.0,0.0,0.0,0.0,3.1319,3.1393,0.0,2.9998,2.9782,2.9141,2.907,2.9386,3.0194,0.0,0.0,3.2647,3.251,3.2511,3.2686,3.3204,3.3783,3.4456,3.5633,3.7081,3.8704,3.7686,3.7677,3.8438,3.7444,3.6339,3.5259,3.5409,3.4455,3.2904,3.2972,3.2452,3.1679,0.0,0.0,0.0,0.0,0.0,0.0,3.0233,2.9988,0.0,0.0,0.0,2.8374,2.8374,2.8374,2.8263,2.7769,2.8708,3.034,3.2388,3.3188,3.3619,3.4245,3.4486,3.4797,0.0,3.5849,3.6357,3.7788,0.0,0.0,0.0,0.0,0.0,0.0,0.0,0.0,0.0,0.0,0.0,0.0,0.0,0.0,0.0,4.4838,4.4658,4.4165,4.4489,4.4341,4.3541,4.405,4.44,4.442,4.4556,4.5089,4.6131,4.6967,4.7421,4.7572,4.787,4.8072,4.8151,4.7534,4.6875,4.621,4.5438,4.477,4.4169,4.4169,4.4128,4.4082,4.4082,4.4035,4.3986,0.0,0.0,0.0,0.0,0.0,0.0,0.0,0.0,0.0,0.0,0.0,3.1496,3.0626,3.0138,2.9577,2.8965,2.8473,2.8754,3.0018,3.0791,3.1563,3.2301,3.2196,3.2264,3.2607,3.2841,3.3373,3.4294,3.4449,3.579,0.0,3.7086,3.7713,0.0,0.0,0.0,3.6454,3.5496,3.4316,3.2936,3.2307,3.19,0.0,0.0,0.0,0.0,0.0,0.0,0.0,0.0,2.9651,2.9554,2.9366,0.0,0.0,0.0,2.8051,2.7996,2.7963,2.8982,3.0403,3.1754,3.2587,3.3217,3.4052,3.4399,3.4689,3.5221,3.571,3.6454,0.0,0.0,0.0,0.0,0.0,0.0,0.0,0.0,0.0,0.0,0.0,0.0,0.0,0.0,0.0,0.0,4.4585,4.4316,4.4182,4.4073,4.368,4.2914,4.4038,4.4472,4.4061,4.4713,4.533,4.5996,4.696,4.7407,4.7493,4.7824,4.7988,4.8072,4.7862,4.7389,4.669,4.588,4.5105,4.4432,4.3989,4.3837,4.3869,4.3865,4.3929,4.3961,0.0,0.0,0.0,0.0,0.0,0.0,0.0,0.0,0.0,0.0,0.0,3.1633,3.1115,0.0,0.0,0.0,2.8127,2.8307,2.9919,3.0484,3.1184,3.2091,3.1948,3.2078,3.2517,3.2471,3.2849,3.3845,3.3388,3.4638,3.7531,3.6841,3.8001,0.0,3.9559,3.8307,0.0,0.0,0.0,0.0,0.0,0.0,0.0,0.0,0.0,0.0,0.0,0.0,0.0,0.0,0.0,0.0,0.0,2.8438,0.0,0.0,0.0,2.7324,2.8097,2.8851,2.9784,3.0965,3.182,3.2654,3.3628,3.4167,3.4493,0.0,3.5452,3.6224,0.0,0.0,0.0,0.0,0.0,0.0,0.0,0.0,0.0,0.0,0.0,0.0,0.0,0.0,0.0,0.0,4.4209,4.3802,4.3648,4.3395,4.288,4.2114,4.3675,4.4284,4.3698,4.488,4.565,4.5996,4.688,4.7363,4.7493,4.7777,4.7943,4.7988,4.819,4.7865,4.7206,4.658,4.577,4.4881,4.4254,4.3922,4.3771,4.38,4.3832,4.3865,0.0,0.0,0.0,0.0,0.0,0.0,0.0,0.0,0.0,0.0,0.0,3.1562,3.0977,3.0144,2.9447,2.8934,2.8072,2.8157,2.9689,2.9863,3.049,3.1878,3.1839,0.0,3.1572,3.138,3.155,3.2152,3.2398,3.3889,3.6462,3.6699,3.7833,3.9659,3.8901,3.7207,3.486,0.0,0.0,0.0,0.0,0.0,0.0,0.0,0.0,0.0,0.0,0.0,0.0,0.0,0.0,0.0,0.0,0.0,0.0,0.0,0.0,0.0,2.7434,2.7605,2.7809,3.0059,3.0793,3.1326,3.2881,3.3434,3.3806,3.4751,3.5096,3.5419,0.0,0.0,0.0,0.0,0.0,0.0,0.0,0.0,0.0,0.0,0.0,0.0,0.0,0.0,0.0,0.0,4.3849,4.3305,4.1984,4.2272,4.2079,4.1279,4.2345,4.2959,4.3156,4.4903,4.5864,4.5996,4.688,4.7363,4.7493,4.7777,4.7902,4.7902,4.8108,4.7789,4.7131,4.7095,4.614,4.4709,4.4672,4.4228,4.3634,4.3597,4.3701,4.3804,0.0,0.0,0.0,0.0,0.0,0.0,0.0,0.0,0.0,0.0,0.0,0.0,0.0,3.0768,3.0041,2.951,2.8647,2.8615,2.9723,3.0076,3.0696,3.1768,3.1576,3.1346,3.1157,3.0992,3.1116,3.155,3.1471,3.2708,3.5155,3.5031,3.5645,3.7001,3.7371,3.6845,3.5584,3.3788,0.0,0.0,0.0,0.0,0.0,0.0,0.0,0.0,0.0,0.0,0.0,0.0,0.0,0.0,0.0,0.0,0.0,0.0,2.5905,2.6212,2.6635,2.7248,2.8118,2.9358,2.9989,3.0677,3.209,3.3151,3.3921,3.4257,3.4966,0.0,0.0,0.0,0.0,0.0,0.0,0.0,0.0,0.0,0.0,0.0,0.0,0.0,0.0,0.0,0.0,0.0,0.0,4.3476,4.2568,4.2383,4.195,4.1244,4.216,4.3254,4.447,4.5716,4.6351,4.6524,4.699,4.7276,4.7363,4.7572,4.7735,4.7902,4.7984,4.763,4.6981,4.6469,4.5627,4.4672,4.4121,4.3789,4.3603,4.4152,4.4076,4.3741,0.0,0.0,0.0,0.0,0.0,3.344,3.2697,3.2802,3.269,0.0,0.0,0.0,0.0,0.0,3.0556,2.9661,2.9074,2.9109,2.9937,3.0244,3.0751,3.1504,3.123,3.0952,3.0749,3.051,3.0619,3.103,3.0983,3.1964,3.3941,3.381,3.4187,3.5002,3.5306,3.5493,0.0,0.0,0.0,3.1845,0.0,0.0,3.1366,0.0,0.0,0.0,0.0,0.0,0.0,0.0,0.0,0.0,0.0,0.0,0.0,0.0,0.0,0.0,2.6444,2.7083,2.8002,2.8955,2.9279,2.9793,3.1403,3.2402,3.3103,3.3878,3.4737,0.0,0.0,0.0,0.0,0.0,0.0,0.0,0.0,0.0,0.0,0.0,0.0,0.0,0.0,0.0,0.0,0.0,0.0,0.0,4.2501,4.2285,4.1903,4.129,4.245,4.3687,4.4929,4.6094,4.6589,4.656,4.6981,4.7124,4.6967,4.7342,4.7615,4.7819,4.7819,4.747,4.6866,4.6356,4.5553,4.4528,4.4051,4.3719,4.3536,4.4154,4.4042,4.371,0.0,0.0,3.3463,3.3796,3.4039,3.3963,3.3345,3.3457,3.3311,3.253,0.0,0.0,0.0,0.0,0.0,2.9346,2.928,2.9622,3.037,3.0296,3.0451,3.0958,3.079,3.051,3.0205,2.9913,3.0016,3.0479,3.0973,3.1683,3.2765,0.0,3.3563,3.3879,3.2766,3.2971,3.409,0.0,3.2941,3.1931,0.0,3.187,3.1304,0.0,0.0,0.0,3.1575,3.0934,0.0,3.0446,0.0,0.0,0.0,0.0,0.0,0.0,0.0,0.0,0.0,0.0,0.0,2.8969,2.8689,2.8651,3.0783,3.1061,3.1452,3.368,3.4412,0.0,0.0,0.0,0.0,0.0,0.0,0.0,0.0,0.0,0.0,0.0,0.0,0.0,0.0,0.0,0.0,0.0,4.3741,4.3253,4.1749,4.196,4.1916,4.1415,4.3089,4.4082,4.4253,4.5914,4.6488,4.596,4.6784,4.688,4.6338,4.7132,4.7572,4.7699,4.7699,4.7352,4.6785,4.6825,4.5877,4.4455,4.4602,4.4163,4.3431,4.3536,4.3534,4.3608,0.0,3.3388,3.3502,3.4775,3.4329,3.3889,3.4313,3.4084,3.3661,0.0,0.0,0.0,0.0,0.0,0.0,2.98,2.9623,2.9888,3.0622,3.0496,3.0708,3.1399,3.0648,3.0054,2.9782,2.9438,2.9515,2.9908,3.0348,3.0865,0.0,0.0,0.0,0.0,3.1953,3.1961,3.2335,3.1444,0.0,0.0,3.1177,3.1254,0.0,0.0,0.0,0.0,0.0,3.1487,3.0831,0.0,2.9415,2.7728,0.0,0.0,0.0,0.0,0.0,0.0,2.7023,0.0,0.0,0.0,0.0,0.0,3.0505,3.1394,3.2048,3.2733,3.3516,0.0,0.0,0.0,0.0,0.0,0.0,0.0,0.0,0.0,0.0,0.0,0.0,0.0,0.0,0.0,0.0,0.0,4.4415,4.4278,4.3321,4.2127,4.1406,4.1255,4.1901,4.2572,4.327,4.443,4.4991,4.4911,4.5784,4.6167,4.6119,4.6908,4.7399,4.7572,4.7572,4.7187,4.6585,4.6666,4.6127,4.5257,4.5293,4.4856,4.42,4.4821,4.4345,4.3613,3.2798,3.3158,3.3695,3.4637,3.4284,3.4053,3.4529,3.4145,3.3657,0.0,0.0,0.0,0.0,0.0,0.0,3.1041,3.0634,3.0593,3.0907,3.0728,3.0795,3.1209,3.0138,2.9598,2.9656,2.9046,2.9055,2.9766,2.9907,0.0,0.0,0.0,0.0,0.0,3.0935,3.0825,0.0,0.0,0.0,0.0,3.0828,0.0,0.0,3.164,3.1963,0.0,0.0,0.0,3.1307,3.1135,2.9961,0.0,0.0,0.0,0.0,0.0,0.0,0.0,0.0,0.0,0.0,0.0,0.0,0.0,3.0424,3.1043,3.1575,0.0,3.2946,3.3728,0.0,0.0,0.0,0.0,0.0,0.0,0.0,0.0,0.0,0.0,0.0,0.0,0.0,4.3923,4.4155,4.427,4.4665,4.4517,4.3562,4.2037,4.1059,4.0756,4.134,4.1947,4.2538,4.4041,4.4742,4.4547,4.574,4.6186,4.6032,4.682,4.7267,4.7407,4.7407,4.706,4.6422,4.6866,4.6404,4.5506,4.5544,4.529,4.4889,4.5036,4.4821,4.4528,0.0,3.2716,3.388,3.3944,3.4115,3.4315,3.4446,3.4023,3.366,0.0,0.0,0.0,0.0,0.0,0.0,0.0,3.179,3.1385,3.1218,3.0895,3.0633,3.0605,2.9438,2.906,2.9588,2.8639,2.8647,2.9735,0.0,0.0,0.0,0.0,0.0,0.0,2.987,2.9651,2.9491,0.0,0.0,2.9695,3.069,3.0767,0.0,0.0,3.1669,3.1817,3.1669,3.1643,3.1709,3.1429,3.0405,0.0,0.0,0.0,0.0,0.0,2.7193,0.0,0.0,0.0,0.0,0.0,0.0,0.0,3.0602,3.0602,3.0774,3.2109,3.2643,3.3148,0.0,0.0,0.0,0.0,0.0,0.0,0.0,0.0,0.0,0.0,0.0,0.0,4.3981,4.4097,4.4179,4.4395,4.4517,4.4087,4.298,4.1843,4.0885,4.0224,4.1183,4.1753,4.203,4.4139,4.4903,4.4357,4.5963,4.64,4.5889,4.6784,4.7223,4.7276,4.7276,4.6967,4.6483,4.7204,4.6669,4.5454,4.5682,4.5649,4.5394,4.4853,4.5075,4.5662,3.1685,3.2656,3.3572,3.4197,3.4026,3.4233,3.5497,3.4613,3.4327,3.5513,3.5207,0.0,0.0,0.0,0.0,0.0,0.0,3.1406,3.1246,3.0481,3.0053,2.9956,2.8883,2.8284,2.8369,2.775,2.7743,2.8432,0.0,0.0,0.0,0.0,0.0,0.0,2.9498,2.9184,2.8794,0.0,0.0,2.8544,2.9656,0.0,3.0394,3.1082,3.1347,3.1421,3.1522,3.1276,3.0788,0.0,2.9565,2.9252,0.0,0.0,0.0,0.0,0.0,0.0,0.0,0.0,0.0,0.0,0.0,0.0,3.1279,3.1692,3.2135,3.1983,3.2065,3.2505,3.3376,0.0,0.0,0.0,0.0,0.0,0.0,0.0,0.0,0.0,0.0,0.0,4.3621,4.3923,4.392,4.3485,4.326,4.3151,4.3131,4.189,4.1128,4.1,4.085,4.1137,4.1987,4.2448,4.2718,4.2751,4.4321,4.4999,4.4936,4.64,4.7088,4.7223,4.7223,4.7248,4.7277,4.7457,4.6994,4.6323,4.6975,4.6509,4.5421,4.5892,4.5428,4.478,3.1566,3.2275,3.3052,3.345,3.3477,3.3763,3.4863,3.4526,3.4388,3.5144,3.492,0.0,0.0,0.0,0.0,0.0,0.0,0.0,0.0,3.0722,3.0351,3.0278,2.9139,2.8517,2.8547,2.8125,2.7977,2.8158,0.0,0.0,0.0,0.0,0.0,0.0,0.0,0.0,0.0,0.0,2.8118,2.8027,2.922,0.0,2.9915,3.0808,3.1123,3.1097,3.0882,3.0553,2.9989,2.9388,2.9484,0.0,0.0,2.9086,2.9766,0.0,2.9275,2.9792,0.0,0.0,0.0,3.1,0.0,0.0,0.0,3.1959,3.2105,3.2282,3.2182,3.2348,3.3218,0.0,0.0,0.0,0.0,0.0,0.0,0.0,0.0,0.0,0.0,0.0,4.3207,4.3781,4.391,4.3415,4.3386,4.3186,4.263,4.1682,4.1244,4.13,4.0788,4.1004,4.1987,4.242,4.2725,4.2929,4.4464,4.5213,4.5249,4.6462,4.7043,4.7088,4.7088,4.7178,4.7356,4.7363,4.7234,4.7036,4.7512,4.7228,4.654,4.6975,4.6948,4.6739,3.128,3.1897,3.2492,3.2547,3.2796,3.3271,3.4029,3.414,3.4101,0.0,0.0,0.0,0.0,0.0,0.0,0.0,0.0,0.0,0.0,0.0,3.0809,3.0522,2.9422,2.899,2.9107,2.8682,2.8254,2.8082,0.0,0.0,0.0,0.0,0.0,0.0,0.0,0.0,0.0,0.0,0.0,2.8144,0.0,2.9267,2.9125,3.0299,3.0742,3.0738,3.0236,2.9802,2.9459,2.9322,0.0,3.0065,2.9449,3.0102,0.0,0.0,0.0,0.0,0.0,0.0,0.0,0.0,0.0,3.1542,0.0,0.0,0.0,3.2551,3.2475,0.0,0.0,0.0,0.0,0.0,0.0,0.0,0.0,0.0,0.0,0.0,0.0,0.0,0.0,4.325,4.3642,4.3858,4.3578,4.3065,4.2285,4.1579,4.1244,4.138,4.0972,4.1145,4.1945,4.2676,4.3195,4.3458,4.4749,4.5499,4.582,4.6462,4.6855,4.6998,4.6998,4.7088,4.7178,4.7232,4.7363,4.745,4.7657,4.7627,4.7518,4.7844,4.8285,4.8768,3.1061,3.1597,3.2109,3.2247,3.2413,3.29,3.4164,3.3856,0.0,0.0,0.0,0.0,0.0,0.0,0.0,0.0,0.0,0.0,3.044,0.0,0.0,2.9841,2.8943,2.8685,2.9261,2.822,2.7703,2.7792,0.0,0.0,0.0,0.0,0.0,0.0,2.8746,0.0,0.0,0.0,2.8525,0.0,2.8983,2.8724,0.0,2.9481,2.9921,2.9917,2.9847,2.9613,2.9241,0.0,2.997,3.0637,0.0,3.1544,3.2542,0.0,0.0,0.0,0.0,0.0,0.0,0.0,3.2779,0.0,0.0,0.0,3.2725,3.2379,0.0,0.0,0.0,0.0,0.0,0.0,0.0,0.0,0.0,0.0,0.0,0.0,0.0,0.0,0.0,4.1808,4.2566,4.4687,4.2501,4.1656,4.2975,4.1868,4.1209,4.1209,4.1366,4.1587,4.1823,4.2051,4.2534,4.3337,4.3636,4.45,4.582,4.5891,4.632,4.6998,4.6998,4.7088,4.7178,4.7178,4.7267,4.7363,4.7615,4.7265,4.683,4.8242,4.8387,4.8025,3.0835,3.1273,3.1625,3.1682,3.1766,3.2334,3.3697,3.3667,0.0,0.0,0.0,0.0,0.0,0.0,0.0,0.0,0.0,3.2164,0.0,0.0,0.0,2.9711,2.9185,2.8866,2.8753,2.8441,2.8085,2.7666,2.7895,0.0,0.0,0.0,0.0,0.0,2.8557,0.0,2.8369,0.0,2.8575,0.0,0.0,0.0,0.0,2.9839,3.0325,3.0105,2.9883,2.9507,2.9268,0.0,3.0172,0.0,0.0,0.0,0.0,0.0,0.0,0.0,0.0,0.0,0.0,0.0,0.0,0.0,3.2464,0.0,3.2706,0.0,0.0,0.0,0.0,0.0,0.0,0.0,3.4261,0.0,0.0,0.0,0.0,0.0,0.0,0.0,0.0,0.0,0.0,0.0,4.2293,4.1802,4.2555,4.1742,4.1255,4.13,4.1515,4.1648,4.178,4.1858,4.2086,4.2569,4.3116,4.3985,4.5054,4.5561,4.6248,4.6998,4.6998,4.7043,4.7088,4.7178,4.7474,4.7913,4.8091,4.771,4.7289,4.896,4.9365,4.9257,3.0326,0.0,3.1043,3.1102,3.1309,3.1961,3.3297,0.0,0.0,0.0,0.0,0.0,3.3025,3.2485,0.0,0.0,3.2693,3.2198,0.0,0.0,3.0821,0.0,0.0,0.0,0.0,2.8684,2.8356,2.7823,2.7969,0.0,0.0,0.0,0.0,0.0,0.0,2.8742,2.8557,0.0,2.9164,2.8635,2.8842,2.8788,2.8821,3.0246,3.0519,3.0209,3.0157,2.9778,2.9456,3.005,3.0596,0.0,3.2152,0.0,0.0,0.0,0.0,0.0,3.3122,0.0,0.0,0.0,0.0,0.0,0.0,0.0,0.0,0.0,0.0,0.0,0.0,0.0,0.0,0.0,0.0,0.0,0.0,0.0,0.0,0.0,0.0,0.0,0.0,0.0,0.0,0.0,0.0,4.185,4.2202,4.1534,4.1255,4.138,4.1515,4.1648,4.1736,4.178,4.1964,4.2298,4.2746,4.3464,4.4467,4.4867,4.5624,4.6631,4.6631,4.6783,4.6998,4.7339,4.7778,4.8279,4.8667,4.8506,4.8235,4.9775,5.0326,5.0435,2.9373,2.987,0.0,0.0,3.1151,3.1903,3.318,0.0,0.0,0.0,0.0,0.0,0.0,0.0,0.0,0.0,0.0,3.1994,3.1177,0.0,3.14,0.0,0.0,2.9285,0.0,0.0,2.8052,2.7999,2.7723,0.0,0.0,0.0,0.0,0.0,2.8728,2.9471,2.9548,3.0444,3.0823,3.0747,3.024,3.0241,3.0568,0.0,2.9987,2.9917,3.0717,0.0,0.0,3.1103,3.1653,0.0,0.0,0.0,0.0,0.0,0.0,0.0,0.0,0.0,0.0,3.3689,0.0,0.0,0.0,0.0,3.3284,0.0,0.0,0.0,0.0,0.0,0.0,0.0,0.0,0.0,0.0,0.0,0.0,0.0,0.0,0.0,0.0,0.0,0.0,0.0,0.0,0.0,4.2168,4.1534,4.1255,4.138,4.1515,4.1604,4.1604,4.1736,4.2168,4.2943,4.2334,4.2837,4.4298,4.351,4.413,4.5711,4.5711,4.6229,4.7033,4.7865,4.8186,4.8293,4.9138,4.9471,4.9543,5.0509,5.0843,5.1034,2.8675,0.0,0.0,0.0,3.0438,0.0,0.0,3.2388,0.0,0.0,0.0,0.0,0.0,3.2489,3.2398,0.0,0.0,3.288,3.2228,3.182,0.0,0.0,0.0,2.9293,0.0,0.0,0.0,0.0,0.0,0.0,0.0,0.0,0.0,0.0,0.0,2.8839,0.0,0.0,0.0,0.0,0.0,3.011,3.0672,0.0,0.0,3.0983,3.1155,3.1085,0.0,3.1751,3.2027,3.2317,3.3268,3.3675,3.3854,3.4059,3.4332,0.0,0.0,0.0,3.515,3.4478,0.0,0.0,0.0,0.0,0.0,0.0,0.0,0.0,0.0,0.0,0.0,0.0,0.0,0.0,0.0,0.0,0.0,0.0,0.0,0.0,0.0,0.0,0.0,0.0,0.0,0.0,0.0,4.1534,4.1209,4.1255,4.1515,4.1604,4.1604,4.1648,4.1789,4.2035,4.1921,4.2432,4.3456,4.3748,4.4501,4.5574,4.6117,4.6518,4.6906,4.7191,4.795,4.896,4.9258,5.0008,5.095,5.0892,5.0915,5.1023,2.8052,2.8118,0.0,0.0,0.0,0.0,0.0,0.0,0.0,0.0,3.1929,0.0,3.3139,0.0,3.277,0.0,3.3451,3.3144,3.2551,3.2075,0.0,3.0961,3.0335,0.0,0.0,0.0,0.0,0.0,0.0,2.7341,2.6696,2.7163,0.0,0.0,0.0,2.8746,2.88,3.0615,3.0838,0.0,0.0,3.0316,0.0,0.0,3.1389,3.1322,0.0,3.1619,3.1736,3.2208,3.2541,3.2901,3.3533,3.3882,3.4128,3.4264,3.4534,3.4831,3.4935,3.5264,0.0,3.4936,3.476,0.0,3.3979,0.0,0.0,0.0,0.0,0.0,0.0,0.0,0.0,0.0,0.0,0.0,0.0,3.856,0.0,0.0,0.0,0.0,0.0,0.0,0.0,0.0,0.0,0.0,0.0,0.0,4.1198,4.1209,4.1391,4.1515,4.1515,4.156,4.1604,4.1604,4.1974,4.2441,4.2969,4.3754,4.4622,4.5481,4.5941,4.6342,4.6766,4.7051,4.7986,4.9256,4.9256,5.0267,5.1687,5.1298,5.1215,5.1263,2.7509,2.7509,0.0,0.0,2.9296,0.0,0.0,0.0,3.1626,0.0,3.1847,3.2399,3.3145,3.2901,3.2943,3.356,3.3224,3.2777,3.2225,3.2172,0.0,0.0,3.1137,3.075,3.0343,0.0,0.0,0.0,0.0,0.0,2.6238,2.6446,2.6421,2.6288,2.8,0.0,2.9829,3.1411,3.2114,3.2122,3.1439,3.0855,3.052,3.1299,3.1249,3.0868,3.1893,3.2061,3.193,3.251,3.3157,3.3675,3.3813,3.402,3.4196,3.4563,3.4802,3.4935,3.5162,3.5459,3.5601,3.5184,0.0,0.0,0.0,0.0,3.6216,0.0,0.0,0.0,0.0,0.0,0.0,0.0,0.0,0.0,0.0,0.0,0.0,0.0,0.0,0.0,0.0,0.0,0.0,0.0,0.0,0.0,0.0,0.0,4.1175,4.1209,4.13,4.138,4.138,4.1515,4.1604,4.1604,4.2377,4.2763,4.2833,4.357,4.4437,4.5305,4.5341,4.5776,4.659,4.7404,4.8316,4.9124,4.9159,5.0218,5.1708,5.1708,5.1772,5.162,2.7221,2.7322,2.7334,0.0,2.8129,2.889,0.0,0.0,0.0,0.0,3.1449,3.2262,3.2573,3.259,3.2857,3.3434,3.3245,0.0,0.0,0.0,0.0,3.2577,3.1851,3.1286,3.0775,2.9882,0.0,2.8598,0.0,0.0,2.6997,2.6926,2.6631,2.6238,0.0,2.7777,2.8375,2.9802,3.0792,3.1414,3.1036,3.0827,0.0,0.0,3.1516,3.1456,3.2101,3.2407,3.2483,3.2791,3.3297,3.3813,3.3882,3.4088,3.4332,3.4631,3.4802,3.5001,3.5359,3.5653,3.5913,3.5887,3.5707,3.549,0.0,0.0,0.0,0.0,0.0,0.0,0.0,0.0,0.0,0.0,0.0,0.0,0.0,0.0,0.0,3.9677,0.0,0.0,0.0,0.0,0.0,0.0,0.0,0.0,0.0,0.0,0.0,4.114,4.1244,4.1255,4.1255,4.138,4.1471,4.1471,4.177,4.2236,4.2833,4.357,4.4343,4.5163,4.5725,4.5809,4.567,4.6447,4.7369,4.8342,4.8946,5.0218,5.1708,5.1708,5.1315,5.0843,2.6374,2.684,0.0,2.6565,0.0,0.0,2.8644,2.8716,0.0,2.9574,3.0603,0.0,3.1861,3.241,3.2894,3.3296,3.3181,0.0,3.2921,0.0,0.0,3.2349,3.2248,3.1971,3.1148,3.058,0.0,2.8996,0.0,0.0,2.6912,2.6735,2.6416,2.6099,0.0,2.7728,2.84,3.0007,3.077,3.1032,3.1036,0.0,0.0,3.1373,3.1596,3.1723,3.2527,3.2781,3.2704,3.2917,3.3437,3.3882,3.3882,3.4225,3.4563,3.4765,3.4868,3.5133,3.5459,3.5782,3.6037,3.6133,3.6199,3.6166,3.6347,3.6526,3.6798,0.0,0.0,0.0,0.0,0.0,0.0,0.0,0.0,0.0,0.0,0.0,0.0,0.0,3.9833,0.0,0.0,0.0,0.0,0.0,0.0,0.0,0.0,0.0,0.0,4.1,4.1105,4.1152,4.1152,4.129,4.1509,4.1823,4.231,4.2952,4.3757,4.4541,4.515,4.5607,4.6028,4.6217,4.6231,4.6653,4.766,4.9004,4.9919,5.0659,5.1208,5.1565,5.1173,5.0508,2.5445,2.631,0.0,0.0,0.0,0.0,0.0,2.7915,0.0,2.8846,0.0,3.0701,3.1187,3.2179,3.2878,3.2907,0.0,3.2696,3.2052,3.2646,3.2585,3.1687,3.2561,3.2585,3.1663,3.1504,3.0744,0.0,0.0,0.0,2.6578,2.635,2.6124,2.5959,0.0,0.0,0.0,3.0691,3.1255,3.0877,3.1267,3.1138,3.0773,3.1453,3.1729,3.1883,3.3118,3.3221,3.2913,3.3211,3.3691,3.4139,3.4209,3.4553,3.4999,3.5016,3.5185,3.5383,3.5653,3.591,3.6037,3.6226,3.66,3.6907,3.6874,3.7178,3.7666,3.8261,3.8098,3.8253,0.0,0.0,0.0,0.0,0.0,0.0,0.0,0.0,0.0,0.0,0.0,0.0,0.0,0.0,0.0,0.0,0.0,0.0,0.0,0.0,0.0,4.1043,4.1034,4.1128,4.1185,0.0,4.1511,4.2253,4.3114,4.3978,4.4782,4.5649,4.6084,4.6189,4.6189,4.6625,4.7222,4.7222,4.8287,5.0075,5.1251,5.1208,5.0602,5.128,5.0959,5.0151,2.55,0.0,0.0,0.0,0.0,2.6856,2.79,2.7854,2.8074,2.8774,3.0156,3.1079,3.1317,3.2012,3.2537,3.2698,3.2636,0.0,0.0,0.0,0.0,3.2253,3.2438,3.2438,3.2253,3.1614,3.1027,0.0,0.0,0.0,0.0,0.0,0.0,0.0,0.0,0.0,2.8323,2.9783,0.0,3.0522,3.0751,3.0851,3.1052,3.1978,3.2315,3.2546,3.3923,3.4029,3.3633,3.45,3.5107,3.5468,3.5754,3.6067,3.623,3.6043,3.603,3.6015,3.5933,3.5973,3.61,3.6352,3.66,3.663,3.6191,3.6682,3.7172,3.6991,3.7812,3.8535,3.8541,0.0,0.0,0.0,0.0,0.0,0.0,0.0,0.0,0.0,0.0,3.9884,0.0,0.0,0.0,0.0,0.0,0.0,0.0,0.0,0.0,0.0,4.1263,0.0,0.0,0.0,4.1209,4.1348,4.2171,4.3079,4.3943,4.4747,4.5544,4.6189,4.6189,4.6309,4.6414,4.6414,4.7512,4.9366,5.0936,5.1108,5.053,5.0673,4.9817,4.8686,2.5599,0.0,0.0,0.0,0.0,0.0,0.0,2.7561,0.0,2.8396,2.9395,3.0147,3.0065,3.1284,3.1937,3.1849,3.1849,3.1761,3.1697,3.1761,3.1761,3.1697,3.1761,0.0,3.1697,3.1408,3.0879,3.0253,0.0,0.0,0.0,0.0,0.0,2.6186,0.0,2.763,0.0,0.0,0.0,3.0907,3.1526,3.1862,3.2119,3.2718,3.2978,3.3288,3.4602,3.4858,3.4732,3.5152,3.552,3.5783,3.6143,3.6529,3.6693,3.6319,3.6313,3.6364,3.6091,3.6037,3.6163,3.6538,3.6723,3.6814,3.6711,3.7077,3.7472,3.7412,3.795,3.845,3.8359,3.8488,0.0,0.0,0.0,0.0,0.0,0.0,0.0,0.0,0.0,0.0,0.0,0.0,0.0,0.0,0.0,4.2313,0.0,0.0,0.0,0.0,0.0,0.0,0.0,0.0,0.0,4.1587,4.2493,4.3402,4.423,4.5082,4.574,4.6189,4.6189,4.6449,4.6906,4.7729,4.8655,4.972,5.0941,5.1256,5.1066,5.0539,4.9733,4.8746,0.0,2.5658,0.0,0.0,2.6006,0.0,2.752,2.7424,2.7533,2.81,2.8841,2.9273,2.913,3.0596,3.1407,3.096,3.105,3.105,3.0871,3.105,3.105,3.0871,3.1139,3.1139,3.0984,3.1139,3.0778,0.0,0.0,0.0,0.0,0.0,0.0,0.0,0.0,0.0,0.0,0.0,3.1393,3.1419,3.2278,3.2778,3.3014,3.3356,3.367,3.4062,3.5283,3.5737,3.5731,3.5864,3.6065,3.6184,3.6693,3.708,3.7246,3.6871,3.6843,3.6803,3.6368,3.6255,3.6258,3.66,3.6877,3.7029,3.72,3.744,3.777,3.793,3.8108,3.8327,3.8602,3.8804,0.0,0.0,0.0,0.0,0.0,0.0,0.0,0.0,0.0,0.0,4.005,0.0,0.0,0.0,0.0,4.1988,4.1648,4.1852,0.0,0.0,0.0,4.0927,4.1064,0.0,4.1319,0.0,4.3019,4.388,4.4481,4.5486,4.604,4.6189,4.6189,4.666,4.7503,4.9151,4.9941,5.0114,5.0928,5.1189,5.1037,5.0524,4.9635,4.8699,0.0,0.0,0.0,0.0,0.0,0.0,2.8042,2.8068,2.8132,2.8835,2.9409,2.9759,2.9759,3.0496,3.096,3.0668,3.0668,3.0578,3.0306,3.0487,3.0668,3.0668,3.0871,3.0984,3.0984,3.0984,3.0702,0.0,0.0,0.0,0.0,0.0,0.0,0.0,0.0,0.0,0.0,3.1432,3.1822,3.2008,3.23,3.2698,3.3041,3.3834,3.4206,3.4604,3.5837,3.6322,3.6452,3.7147,3.7453,3.7577,3.8325,3.862,3.8618,3.8492,3.8099,3.7533,3.7166,3.6654,3.6258,3.66,3.6877,3.6904,3.6542,3.7123,3.7584,3.7287,3.7842,3.8659,3.9447,3.9691,4.009,0.0,0.0,0.0,0.0,0.0,0.0,0.0,0.0,0.0,0.0,4.0869,0.0,0.0,4.3415,4.3783,4.2445,4.243,4.2159,4.156,0.0,4.1023,4.1675,4.1857,4.1595,4.1009,4.3197,4.3938,4.3568,4.5126,4.5889,4.604,4.614,4.666,4.7503,4.9099,4.9785,4.9995,5.0806,5.031,4.926,4.9998,4.891,4.7144,0.0,0.0,0.0,0.0,0.0,0.0,0.0,2.7414,2.7523,2.8723,2.8992,2.9103,2.9103,2.9737,3.0034,2.9943,2.9943,2.9852,2.976,2.9852,2.9943,2.9943,3.0239,3.0352,3.0352,3.0601,3.0524,0.0,0.0,0.0,0.0,0.0,0.0,0.0,0.0,3.0263,3.111,3.2072,3.2465,3.2654,3.2979,3.3592,3.4286,3.426,3.458,3.5304,3.6136,3.6457,3.6693,3.7394,3.7672,3.7901,3.8575,3.887,3.8898,3.8601,3.8521,3.8364,3.7831,3.7391,3.7124,3.7406,3.728,3.7147,3.7277,3.7552,3.7854,3.785,3.8594,3.9422,4.0196,4.0557,4.0926,0.0,0.0,0.0,0.0,0.0,0.0,0.0,0.0,0.0,0.0,0.0,0.0,0.0,0.0,4.3403,4.2407,4.2479,4.1988,4.0864,0.0,4.072,4.1028,4.1572,4.1739,4.1464,4.3388,4.4215,4.4123,4.53,4.5939,4.614,4.668,4.7116,4.7503,4.9047,4.9785,4.9995,5.0699,5.0418,4.9634,4.9937,4.921,4.8068,2.4577,0.0,2.47,0.0,2.5338,2.5849,2.6974,2.7119,2.7302,2.8278,2.8444,2.8561,2.8898,2.9282,2.9553,2.9617,2.9483,2.9393,2.9301,2.9301,2.9393,2.9393,2.96,0.0,3.0101,3.0445,3.0512,3.0418,3.0458,0.0,0.0,0.0,0.0,0.0,3.035,3.1141,3.1996,3.2791,3.3136,3.3219,3.3658,3.4304,3.5032,3.4633,3.4955,3.571,3.6218,3.6536,3.6822,3.7394,3.7968,3.8434,3.8708,3.887,3.9,3.8912,3.8922,3.8918,3.8568,3.8192,3.7992,3.8246,3.7841,3.7553,3.8062,3.8019,3.8008,3.8351,3.891,3.9642,4.0678,4.0983,4.1387,4.2169,0.0,0.0,0.0,0.0,0.0,0.0,4.1716,4.0967,4.0823,4.1622,0.0,0.0,0.0,0.0,4.232,4.2189,0.0,0.0,0.0,0.0,0.0,4.1987,4.2311,4.2156,4.3563,4.4337,4.4438,4.5337,4.5993,4.6475,4.7051,4.7541,4.8118,4.9205,4.9873,5.0259,5.0716,5.0541,4.9992,5.0223,4.9658,4.8806,2.3449,2.371,2.41,2.502,2.5606,2.6055,2.6636,2.7402,2.7806,2.736,2.77,2.8357,2.9423,2.9498,2.9594,2.9847,2.9427,2.9024,2.8839,2.9024,2.9117,0.0,0.0,2.9802,3.0578,3.06,3.1038,3.1731,0.0,0.0,3.0913,0.0,3.0753,3.0811,3.1772,3.2516,3.3154,3.3556,3.37,3.37,3.4204,3.4647,3.5086,3.5059,3.5304,3.571,3.6218,3.6536,3.6822,3.7394,3.8409,3.9425,3.8929,3.8797,3.8943,3.9768,3.9525,3.9078,3.9388,3.9,3.8542,3.8932,3.8497,3.8122,3.8581,3.828,3.8008,3.8351,3.8408,3.8943,4.0664,4.0983,4.1271,4.2144,0.0,0.0,0.0,0.0,0.0,0.0,4.2815,4.2204,4.1475,4.2275,0.0,0.0,0.0,0.0,0.0,0.0,0.0,4.1204,4.1325,0.0,4.2498,4.3405,4.351,4.2911,4.37,4.4182,4.4337,4.5234,4.61,4.7021,4.7021,4.791,4.9501,4.9501,5.0064,5.0873,5.0873,5.0382,4.9838,5.0753,5.01,4.8831,2.3153,2.3453,2.3927,2.4186,2.4323,2.4819,2.5972,2.6235,2.6609,2.7441,2.7905,2.8464,2.9125,2.8942,2.8871,0.0,2.9358,2.9248,0.0,2.9576,2.9693,2.9365,2.9648,2.9996,3.0435,3.0507,3.0944,3.1777,0.0,0.0,0.0,3.1225,3.1406,3.1343,3.2055,3.266,3.3154,3.3556,3.3725,3.3674,3.3814,3.4331,3.5032,3.4633,3.4955,3.571,3.6218,3.6615,3.7063,3.811,3.8938,3.9601,4.014,4.0456,4.0651,4.1053,4.0819,4.0446,4.0628,4.0078,3.9415,3.9648,3.9279,3.8968,3.9404,3.9457,3.9758,4.048,4.0664,4.1016,4.2113,4.2397,4.249,4.2813,4.3043,0.0,0.0,0.0,0.0,0.0,4.2005,4.1593,0.0,4.181,0.0,0.0,0.0,0.0,0.0,0.0,0.0,0.0,4.1256,0.0,4.2339,4.328,4.3712,4.3578,4.4403,4.4992,4.5234,4.603,4.6621,4.7091,4.81,4.8885,4.9373,4.9971,5.0465,5.0729,5.0819,5.0382,4.9785,5.0646,5.0259,4.9468,2.25,2.2918,2.3406,2.3667,2.3947,2.4375,2.5206,2.5717,2.6207,2.6857,2.7311,2.7924,2.8744,2.8431,0.0,2.9385,2.9473,2.9461,2.9386,2.9764,2.9981,2.9773,3.0061,3.0341,3.0711,0.0,0.0,3.2231,3.2337,3.1996,3.1243,3.1961,3.2016,3.1613,3.255,3.3009,3.3179,3.3785,3.393,3.3674,3.3866,3.4357,3.5032,3.4686,3.509,3.5925,3.6626,3.7107,3.7692,3.8867,3.9683,4.0441,4.1085,4.1692,4.2089,4.1881,4.1607,4.1389,4.1434,4.097,4.0467,4.0427,3.9997,3.9596,3.9847,4.0091,4.0494,4.1063,4.1221,4.1569,4.2346,4.2537,4.2664,4.2958,4.299,4.299,4.2929,0.0,0.0,0.0,0.0,0.0,0.0,4.2104,4.2451,0.0,0.0,0.0,0.0,0.0,0.0,4.1504,4.1827,0.0,4.3132,4.402,4.4504,4.4722,4.5692,4.606,4.5978,4.6773,4.7346,4.7765,4.8702,4.9347,4.9681,5.03,5.053,5.0585,5.0819,5.0592,5.0241,5.1013,5.1013,5.0592,2.1598,2.2032,0.0,0.0,2.3957,0.0,2.4576,2.5558,2.6315,2.5933,2.6295,2.7094,2.8445,2.8297,2.8619,2.9982,0.0,0.0,0.0,2.9805,3.0002,3.0155,3.0449,3.0843,3.1329,3.1802,3.2347,3.2891,3.318,3.2794,3.183,3.2786,3.2671,3.1736,3.3221,3.3571,3.3255,3.4193,3.4289,3.3861,3.4334,3.4752,3.5139,3.5192,3.5629,3.6358,3.7285,3.799,3.8502,3.9527,4.0662,4.1715,4.1774,4.2505,4.3169,4.2349,4.2105,4.1997,4.1822,4.1709,4.1564,4.123,4.0649,4.0128,4.0162,4.028,4.0494,4.0642,4.0642,4.0896,4.1699,4.1829,4.2057,4.274,4.2899,4.2837,4.2618,0.0,0.0,0.0,0.0,0.0,0.0,4.2927,4.3086,0.0,0.0,0.0,0.0,0.0,4.1567,4.2173,4.2989,4.3876,4.4654,4.5399,4.5909,4.6157,4.7189,4.7355,4.67,4.7458,4.8183,4.8838,4.8872,4.9378,5.0206,5.0341,5.0488,5.069,5.0889,5.1013,5.1119,5.1821,5.2102,5.2207,0.0,0.0,2.2288,2.2768,2.3157,2.3756,2.4781,2.5208,2.5694,2.622,2.7019,2.7583,2.7985,2.8737,2.9373,2.9683,3.0007,3.0034,2.9732,3.0477,3.0745,3.0456,3.0435,3.0899,3.1605,3.1703,3.227,3.3192,3.3278,3.317,3.2912,3.2943,3.2885,3.2818,3.2909,3.3333,3.4071,3.4459,3.4606,3.4676,3.5634,3.5897,3.5889,3.6511,3.7037,3.7538,3.8061,3.8608,3.9155,4.0429,4.112,4.1645,4.2435,4.2942,4.3349,4.3438,4.3138,4.2788,4.3082,4.2725,4.2273,4.1775,4.1336,4.1107,4.1502,4.1629,4.1756,4.207,4.2132,4.2164,4.2359,4.2391,4.2423,4.2492,4.2587,4.265,4.2461,4.2425,0.0,0.0,4.1922,4.1945,4.2032,4.2407,4.273,0.0,0.0,0.0,0.0,4.3465,4.3638,4.298,4.3654,4.4541,4.5432,4.6177,4.669,4.6942,4.743,4.7631,4.7458,4.8217,4.8665,4.8838,4.9459,4.9838,5.0068,5.032,5.0745,5.1359,5.164,5.2102,5.2664,5.2839,5.2909,5.2944,2.0336,2.1103,2.1989,2.2464,2.2908,2.3598,2.4621,2.4948,2.5431,2.6153,2.6824,2.7381,2.7861,2.8652,2.912,2.9323,2.9953,3.0218,3.0013,3.0554,3.0803,3.0852,3.0932,3.1236,3.1639,3.2062,3.2596,3.3292,3.3609,3.3546,3.3288,3.3212,3.3162,3.3211,3.3405,3.3784,3.4386,3.5072,3.5388,3.5418,3.6192,3.6459,3.6476,3.7053,3.7612,3.8144,3.8977,3.9502,3.9971,4.1175,4.1784,4.2136,4.2651,4.309,4.3409,4.3832,4.3791,4.3609,4.3574,4.331,4.2952,4.2528,4.216,4.1996,4.2393,4.2269,4.2174,4.2302,4.2365,4.2365,4.2492,4.2524,4.2492,4.2492,4.2555,4.2555,4.2492,4.2296,0.0,4.219,4.1898,4.1862,4.237,4.2495,4.2911,4.3695,0.0,0.0,4.341,4.4589,4.4764,4.3675,4.4707,4.5563,4.621,4.698,4.7607,4.8123,4.8415,4.8621,4.8621,4.9126,4.9355,4.939,4.9804,5.0011,5.0045,5.0553,5.1049,5.1558,5.2158,5.2691,5.3077,5.3541,5.3682,5.3752,2.0237,2.1013,2.1728,2.2299,2.2994,2.3662,2.4218,2.4868,2.5465,2.5929,2.6284,2.6957,2.7974,2.8321,2.8625,2.9092,2.9554,2.9994,3.0287,3.0391,3.0599,3.1137,3.1322,3.1527,3.1732,3.2634,3.3161,3.3392,3.396,3.3923,3.3502,3.3621,3.3601,3.3457,3.4123,3.4435,3.4666,3.5788,3.6161,3.6103,3.6621,3.6944,3.7123,3.7659,3.8112,3.8699,3.9871,4.0402,4.0847,4.1753,4.231,4.2688,4.2688,4.301,4.3409,4.3832,4.4143,4.422,4.3895,4.3723,4.358,4.3354,4.2949,4.2789,4.2992,4.265,4.2205,4.2269,4.2269,4.2302,4.2334,4.2462,4.2494,4.2524,4.2492,4.2492,4.2524,0.0,4.197,4.249,4.2197,4.2161,4.2772,4.3095,4.3483,4.4098,4.4549,4.4739,0.0,4.5524,4.564,4.4633,4.5924,4.681,4.7124,4.7912,4.8583,4.9229,4.953,4.9708,4.9708,4.9918,5.0011,5.0011,5.0011,5.0011,5.008,5.0945,5.1384,5.1616,5.2672,5.3172,5.3346,5.4186,5.4489,5.4595,1.9867,2.064,2.1532,2.2583,2.2991,2.3463,2.438,2.4889,2.5371,2.5968,2.6583,2.7292,2.7741,2.8305,2.8754,2.9132,2.9448,2.9659,2.9764,3.0183,3.0495,3.0827,3.0931,3.1343,3.2342,3.3356,3.3784,3.3691,3.4387,3.4516,3.4216,3.4269,3.4356,3.4539,3.4354,3.4926,3.6032,3.6186,3.6599,3.72,3.7944,3.8194,3.8201,3.9033,3.9747,4.0349,4.0746,4.1112,4.1587,4.198,4.2228,4.2474,4.2607,4.301,4.3409,4.3832,4.4143,4.4343,4.4449,4.4167,4.3851,4.3946,4.3599,4.3378,4.3754,4.325,4.2807,4.2972,4.3069,4.2845,4.2237,4.2621,4.2845,4.2108,4.2141,4.2109,4.2012,0.0,4.2332,4.2429,4.3008,4.3168,4.2682,4.3911,4.4496,4.407,4.5405,4.5991,4.5365,4.6843,4.74,4.691,4.7111,4.7698,4.8646,4.887,4.9127,4.9229,4.953,4.9708,4.9708,4.9918,5.0011,5.0011,5.0011,5.0011,5.008,5.0945,5.1696,5.2448,5.3509,5.429,5.485,5.5203,5.5332,5.5332,2.0019,2.0925,2.1752,2.2223,2.2796,2.344,2.4016,2.4683,2.532,2.6072,2.673,2.74,2.7969,2.8396,2.8727,2.8834,2.9343,2.9554,2.9554,3.0078,3.0495,3.0827,3.0931,3.1555,3.2846,3.3731,3.4165,3.4063,3.4598,3.4634,3.4433,3.439,3.4527,3.4809,3.491,3.5486,3.6288,3.6779,3.7274,3.7844,3.8405,3.8684,3.8999,3.9651,3.9889,4.0068,4.0802,4.1055,4.1188,4.1699,4.2228,4.2526,4.2688,4.301,4.3409,4.3832,4.422,4.4496,4.4572,4.4432,4.4366,4.4631,4.4247,4.389,4.4243,4.3844,4.3368,4.3436,4.3436,4.3409,4.3158,4.3416,4.3543,4.3193,4.2908,0.0,0.0,4.2365,4.2398,4.2783,4.3202,4.3492,4.3589,4.4301,4.4787,4.4984,4.5767,4.6192,4.5994,4.7144,4.7636,4.7195,4.7843,4.8461,4.9018,4.9046,4.9107,4.9107,4.935,4.9471,4.959,4.9801,4.9918,5.0011,5.0424,5.0597,5.07,5.1899,5.265,5.3065,5.407,5.4678,5.4992,5.5234,5.5354,5.5354,2.0517,2.1405,2.1987,2.2166,2.2892,2.3591,2.3981,2.473,2.5544,2.6267,2.6893,2.7593,2.8262,2.8514,2.8727,2.8834,2.9237,2.9659,2.9659,3.0287,3.0726,3.0827,3.1348,3.2229,3.3361,3.4252,3.467,3.4676,3.502,3.5041,3.4698,3.4703,3.482,3.5006,3.5544,3.6008,3.6493,3.7232,3.7782,3.8304,3.8512,3.8881,3.9278,3.9766,3.9895,3.9761,4.0718,4.0969,4.0933,4.1558,4.2199,4.2688,4.2688,4.301,4.3409,4.3832,4.4266,4.4572,4.4572,4.4648,4.4723,4.5055,4.4725,4.4466,4.4827,4.4236,4.3636,4.3737,4.3737,4.3674,4.3722,4.3944,4.4172,4.405,0.0,0.0,0.0,4.2842,4.2748,4.3323,4.3547,4.3904,4.4391,4.4812,4.5201,4.5724,4.612,4.6419,4.6585,4.7275,4.7572,4.7301,4.8308,4.8923,4.9018,4.9187,4.9255,4.9317,4.944,4.9725,5.0043,4.982,4.9973,5.0528,5.0942,5.1218,5.1459,5.2839,5.3391,5.3494,5.4441,5.478,5.4842,5.5079,5.5199,5.5259,2.1357,2.1739,2.2304,2.3132,2.332,2.3681,2.4564,2.5274,2.5993,2.6721,2.7439,2.7921,2.8281,2.8514,2.8834,2.9026,2.9448,2.9659,2.9994,3.0895,3.1253,3.0849,3.2273,3.3257,3.3877,3.4903,3.5432,3.5521,3.6038,3.6066,3.5569,3.5719,3.5746,3.5547,3.6118,3.659,3.7057,3.7387,3.7874,3.8602,3.8602,3.8789,3.9137,3.9775,4.0152,4.0456,4.1167,4.1619,4.2034,4.2063,4.231,4.2688,4.2688,4.301,4.3409,4.3832,4.4266,4.4572,4.4572,4.4723,4.4874,4.4874,4.5024,4.5142,4.5363,4.4369,4.3466,4.3636,4.3737,4.3516,4.2884,4.3801,4.4433,4.3832,0.0,0.0,4.3643,4.3817,4.3854,4.3918,4.4697,4.4893,4.4285,4.5612,4.6196,4.5685,4.6507,4.7101,4.7169,4.7471,4.7934,4.8353,4.845,4.8673,4.9018,4.9661,5.0096,5.0317,5.0317,5.0844,5.1768,5.036,5.0523,5.2011,5.139,5.1494,5.2218,5.3046,5.3391,5.3494,5.4441,5.478,5.4842,5.5079,5.5199,5.5259,2.1913,2.2519,2.298,2.342,2.377,2.4188,2.4554,2.543,2.633,2.6692,2.7618,2.8474,2.8888,2.9253,2.953,2.9769,3.0099,3.0483,3.0641,3.1251,3.187,3.223,3.3409,3.419,3.4392,3.5404,3.607,3.6085,3.6297,3.6161,3.5815,3.6112,3.6137,3.5908,3.6546,3.6922,3.7108,3.7664,3.8239,3.8602,3.8756,3.9156,3.9692,3.9913,4.029,4.0633,4.1029,4.1624,4.2221,4.2096,4.2573,4.3248,4.2968,4.309,4.3409,4.3832,4.4494,4.4972,4.4695,4.4648,4.4723,4.4874,4.5055,4.5204,4.5426,4.5164,4.4858,4.4787,4.4962,4.4867,4.4543,4.4818,4.5173,4.4993,0.0,4.4197,4.4267,4.406,4.3965,4.4345,4.47,4.5062,4.5355,4.6045,4.6346,4.6228,4.7184,4.7517,4.7199,4.7504,4.8101,4.8959,4.9024,4.9016,4.9018,4.9729,5.0164,5.0227,5.0764,5.1327,5.1754,5.1172,5.1424,5.2218,5.2303,5.2544,5.3011,5.377,5.408,5.4115,5.4454,5.4592,5.4655,5.4992,5.5113,5.5113,2.261,2.3107,2.3456,2.3655,2.4097,2.4506,2.4736,2.5841,2.6642,2.7093,2.8045,2.8926,2.9342,2.9978,3.0339,3.0452,3.0936,3.1215,3.1335,3.2081,3.2662,3.3289,3.4267,3.4859,3.5016,3.5985,3.6526,3.6626,3.6732,3.6701,3.6524,3.6553,3.6578,3.6443,3.6904,3.7108,3.7294,3.7939,3.8304,3.8602,3.8935,3.9469,3.9996,4.011,4.0457,4.0972,4.1312,4.191,4.251,4.2647,4.3186,4.3897,4.3589,4.3767,4.4118,4.4437,4.5008,4.5568,4.5186,4.5064,4.4925,4.4861,4.4905,4.5055,4.5278,4.5269,4.5154,4.5112,4.5185,4.5258,4.5112,4.53,4.5457,4.5604,4.5091,4.4705,4.4849,4.4441,4.4315,4.4787,4.4921,4.5277,4.6117,4.6398,4.6749,4.7187,4.7813,4.8161,4.7952,4.7964,4.8497,4.9626,4.9426,4.9454,4.9632,5.0375,5.0811,5.0875,5.121,5.1673,5.2067,5.1526,5.1747,5.2536,5.2929,5.3369,5.377,5.4287,5.4494,5.4494,5.4494,5.4494,5.4494,5.4807,5.493,5.4992,2.3285,2.3456,2.3456,2.3755,2.4097,2.4718,2.5637,2.636,2.7074,2.7795,2.876,2.9362,2.947,3.0308,3.0901,3.0901,3.147,3.1797,3.1797,3.3095,3.3792,3.3792,3.4661,3.5341,3.584,3.6386,3.6796,3.7143,3.7489,3.7628,3.7594,3.7286,3.7246,3.7161,3.7177,3.7227,3.7531,3.8057,3.8421,3.8629,3.9141,3.9584,4.0023,4.0312,4.083,4.1481,4.2081,4.2653,4.3108,4.3776,4.4294,4.4634,4.4634,4.5025,4.5604,4.5604,4.5961,4.6284,4.6284,4.5953,4.5434,4.4756,4.4572,4.4648,4.4874,4.4347,4.3851,4.4071,4.4143,4.4143,4.4143,4.4736,4.5204,4.5204,4.5204,4.5204,4.5204,4.5235,4.5235,4.5204,4.5383,4.5782,4.6441,4.6877,4.7489,4.8413,4.8666,4.8925,4.9599,4.8911,4.9121,5.0392,4.9693,4.9891,5.0991,5.1731,5.2301,5.2595,5.1654,5.1817,5.2853,5.1162,5.139,5.3107,5.3107,5.3679,5.4494,5.4494,5.4494,5.4494,5.4494,5.4494,5.4494,5.4717,5.478,5.4842,2.3935,2.3954,2.4144,2.472,2.5127,2.5637,2.636,2.7093,2.7833,2.8583,2.9341,3.0158,3.0903,3.1462,3.183,3.1634,3.235,3.2987,3.3433,3.4339,3.4979,3.4979,3.5308,3.5704,3.5863,3.6386,3.6928,3.7489,3.7785,3.8024,3.8209,3.8036,3.7991,3.8057,3.8171,3.8575,3.8955,3.9427,3.9894,4.0356,4.075,4.1113,4.1535,4.1625,4.2261,4.3044,4.3053,4.3803,4.4731,4.4298,4.4701,4.5253,4.5119,4.5191,4.544,4.5522,4.6018,4.6455,4.6082,4.6051,4.5984,4.5464,4.5063,4.4799,4.4874,4.4794,4.4744,4.4639,4.4818,4.4818,4.4713,4.4825,4.5055,4.5204,4.5055,4.5055,4.5204,4.5759,4.5884,4.5266,4.6379,4.7,4.6536,4.732,4.7999,4.8445,4.8739,4.9296,5.032,4.9665,4.9809,5.0985,5.0786,5.1156,5.2096,5.2101,5.2235,5.2399,5.277,5.3173,5.3443,5.2935,5.3099,5.3703,5.3703,5.3969,5.4303,5.4431,5.4494,5.4494,5.4494,5.4494,5.4494,5.4717,5.478,5.4842,2.4152,2.4152,2.438,2.5088,2.5517,2.6031,2.6864,2.7737,2.8524,2.9124,3.0008,3.0822,3.1534,3.221,3.2602,3.2446,3.3149,3.3861,3.4423,3.5091,3.5533,3.573,3.6059,3.6168,3.6168,3.6603,3.7143,3.7596,3.7998,3.8355,3.8531,3.841,3.8542,3.8837,3.8779,3.9188,3.9764,4.0145,4.0616,4.1175,4.1452,4.1957,4.2488,4.2446,4.3026,4.3958,4.3767,4.4378,4.5223,4.4967,4.5318,4.5844,4.5947,4.5913,4.5998,4.6251,4.6605,4.693,4.6622,4.6386,4.6112,4.5843,4.528,4.4799,4.4799,4.4905,4.4905,4.4723,4.4754,4.4754,4.4572,4.4572,4.4723,4.483,4.5046,4.5201,4.5384,4.6019,4.6375,4.5894,4.6886,4.7586,4.7321,4.8004,4.8688,4.9277,4.9608,5.014,5.0961,5.0418,5.0528,5.1536,5.1446,5.1682,5.2624,5.2399,5.2438,5.2707,5.2975,5.3109,5.3109,5.3109,5.3275,5.344,5.3713,5.398,5.4239,5.4303,5.4431,5.4494,5.4494,5.4494,5.4494,5.4655,5.4655,5.4717,2.4152,2.4251,2.4479,2.5125,2.5638,2.6258,2.7218,2.831,2.9055,2.9401,3.0691,3.1595,3.1748,3.2591,3.3203,3.3203,3.3749,3.4423,3.498,3.5312,3.573,3.6277,3.6603,3.6712,3.682,3.7036,3.7358,3.7702,3.821,3.8631,3.8841,3.8633,3.8995,3.9671,3.9158,3.944,4.0208,4.0399,4.0777,4.1311,4.1773,4.2472,4.3194,4.2845,4.3347,4.4281,4.4281,4.464,4.5082,4.5663,4.6046,4.6314,4.6756,4.6931,4.7019,4.7222,4.7482,4.7538,4.7538,4.6826,4.5961,4.5961,4.5275,4.4572,4.4572,4.4572,4.4496,4.4297,4.4297,4.422,4.4065,4.4143,4.4297,4.4358,4.5033,4.5618,4.568,4.6265,4.6744,4.6841,4.7169,4.7715,4.8514,4.8874,4.9469,5.0525,5.082,5.1048,5.1499,5.1026,5.1179,5.2086,5.1673,5.1748,5.2553,5.2553,5.2834,5.3179,5.2673,5.2401,5.2401,5.2401,5.2501,5.27,5.3411,5.3915,5.4175,5.4175,5.4303,5.4494,5.4494,5.4494,5.4494,5.4494,5.4494,5.4557,2.4225,2.435,2.4771,2.5805,2.6218,2.6749,2.7921,2.8594,2.9262,3.0169,3.0782,3.1491,3.2427,3.2892,3.3203,3.3203,3.3974,3.4534,3.498,3.5423,3.584,3.6277,3.6603,3.6928,3.7382,3.7489,3.7679,3.821,3.8526,3.8945,3.9465,3.9649,3.9905,4.0312,4.0359,4.0906,4.1692,4.1914,4.237,4.3133,4.3416,4.3808,4.4107,4.4059,4.4365,4.491,4.491,4.5211,4.5692,4.5987,4.6314,4.658,4.6844,4.7019,4.7222,4.7309,4.7309,4.7396,4.7396,4.6575,4.5686,4.5686,4.4879,4.4143,4.4143,4.4143,4.4143,4.4065,4.4065,4.4065,4.3988,4.4143,4.445,4.4969,4.534,4.5772,4.6296,4.7132,4.7459,4.6744,4.7929,4.8698,4.8403,4.9316,5.0165,5.0589,5.082,5.1048,5.1499,5.141,5.1557,5.2086,5.2026,5.2065,5.2445,5.2553,5.2834,5.3179,5.3078,5.3079,5.3247,5.3247,5.3247,5.3314,5.3583,5.3849,5.4045,5.4175,5.4303,5.4494,5.4494,5.4494,5.4494,5.4494,5.4494,5.4557,2.4646,2.4827,2.539,2.655,2.6787,2.7389,2.8672,2.9273,2.9948,3.0944,3.1503,3.2117,3.282,3.3182,3.3523,3.3749,3.4423,3.4869,3.5202,3.573,3.6277,3.6712,3.6928,3.7358,3.7785,3.8155,3.8369,3.8421,3.9087,3.9531,3.9697,4.0259,4.0542,4.0694,4.0896,4.1372,4.2065,4.2289,4.2846,4.3586,4.3709,4.4021,4.4425,4.4425,4.4676,4.511,4.511,4.5413,4.5985,4.6135,4.6314,4.6491,4.6844,4.7019,4.7106,4.7309,4.7309,4.7309,4.7309,4.6646,4.595,4.595,4.4959,4.3988,4.397,4.3988,4.3988,4.391,4.3832,4.3922,4.4067,4.4285,4.4655,4.5323,4.6009,4.6505,4.6873,4.7681,4.8152,4.7781,4.8612,4.9085,4.8951,4.9631,5.0246,5.0589,5.0666,5.0896,5.135,5.1424,5.1647,5.1941,5.2013,5.2191,5.2373,5.2445,5.2694,5.3041,5.3179,5.3348,5.3518,5.3518,5.3518,5.3518,5.3551,5.3751,5.398,5.4045,5.4239,5.4494,5.4494,5.4494,5.4563,5.4908,5.511,5.5173,2.5301,2.556,2.6111,2.7102,2.7342,2.7805,2.9124,2.9859,3.0631,3.1391,3.2087,3.2644,3.3182,3.3523,3.3974,3.4534,3.4869,3.5202,3.5423,3.6059,3.6603,3.7036,3.7465,3.7785,3.808,3.8858,3.9038,3.8672,3.9742,4.014,3.9951,4.0588,4.0926,4.0896,4.0997,4.1372,4.2065,4.2164,4.2749,4.3586,4.3614,4.3993,4.4425,4.4425,4.4676,4.5046,4.5138,4.5413,4.5985,4.6135,4.6225,4.6314,4.6756,4.6931,4.7019,4.7222,4.7309,4.7309,4.7309,4.683,4.6322,4.6237,4.5144,4.4184,4.4127,4.3983,4.3832,4.3675,4.3687,4.3927,4.4227,4.4569,4.5001,4.5664,4.6598,4.7323,4.7446,4.8101,4.8635,4.8914,4.8996,4.9128,4.9533,4.9773,5.0089,5.0589,5.0589,5.082,5.1199,5.135,5.1573,5.1794,5.1941,5.2158,5.2373,5.2373,5.2587,5.2903,5.3041,5.328,5.3518,5.3518,5.3518,5.3518,5.3518,5.3685,5.398,5.398,5.4175,5.4431,5.4494,5.4494,5.4563,5.5184,5.549,5.5652,2.605,2.6302,2.666,2.7141,2.7447,2.7937,2.8641,2.9203,2.9839,3.0811,3.1391,3.2158,3.3027,3.3636,3.4311,3.4869,3.5202,3.5423,3.5753,3.6277,3.682,3.7143,3.7679,3.8104,3.8315,3.9019,3.9371,3.9578,4.0418,4.0821,4.0689,4.1103,4.1132,4.0896,4.1398,4.1796,4.2164,4.2582,4.3067,4.3586,4.3832,4.4115,4.4425,4.4425,4.4583,4.489,4.5046,4.5413,4.5985,4.6135,4.6314,4.658,4.6844,4.7019,4.7222,4.7309,4.7309,4.7309,4.7309,4.683,4.6237,4.6096,4.5416,4.4822,4.4536,4.3812,4.317,4.3329,4.3778,4.4227,4.4287,4.4929,4.5695,4.6358,4.6766,4.7289,4.8087,4.824,4.8469,4.8635,4.9047,4.9291,4.9372,4.9693,5.0089,5.0589,5.0589,5.082,5.1199,5.1275,5.1424,5.1794,5.1868,5.2013,5.2373,5.2373,5.2587,5.2903,5.2903,5.3144,5.3518,5.3518,5.3518,5.3518,5.3518,5.3618,5.3783,5.3915,5.411,5.4239,5.4431,5.4494,5.4529,5.4632,5.4667,5.473,2.6721,2.7052,2.7396,2.7949,2.8239,2.8589,2.9434,2.989,3.0411,3.1278,3.1954,3.2553,3.321,3.4026,3.4758,3.5202,3.5423,3.573,3.6059,3.6603,3.7036,3.7358,3.7892,3.8315,3.8421,3.9241,3.9854,4.0103,4.0646,4.0938,4.1129,4.1518,4.1618,4.1398,4.1796,4.2092,4.2289,4.2609,4.3067,4.3586,4.3709,4.4021,4.4425,4.4425,4.4676,4.5046,4.5413,4.5685,4.5985,4.6135,4.6403,4.6609,4.6668,4.7019,4.7309,4.7106,4.7193,4.7309,4.7309,4.6983,4.6602,4.6515,4.5838,4.5194,4.5194,4.4512,4.3915,4.4191,4.4594,4.4975,4.5364,4.5747,4.6251,4.6911,4.7202,4.7492,4.8103,4.8218,4.8355,4.8604,4.9357,4.9696,4.9322,5.0385,5.0865,5.0466,5.0863,5.116,5.1081,5.1124,5.1512,5.2202,5.231,5.2532,5.2825,5.2897,5.2952,5.2903,5.2903,5.3144,5.3518,5.3518,5.3518,5.3518,5.3518,5.3551,5.3717,5.3783,5.3915,5.411,5.4239,5.4608,5.5081,5.4667,5.477,5.5184]},{"header":{"parameterUnit":"m.s-1","parameterCategory":1,"la1":30.6,"la2":28.766,"lo1":-90.7593,"lo2":-88.6598,"dy":0.0162,"dx":0.0183,"nx":116,"ny":114,"refTime":"2024-04-20T12:00:00:Z","depth":0,"parameterNumber":3,"parameterNumberName":"V-component_of_WINDS"},"data":[0.0,0.0,0.0,0.0,0.0,0.0,0.0,0.0,0.0,0.0,0.0,0.0,0.0,0.0,0.0,0.0,0.0,0.0,0.0,0.0,0.0,0.0,0.0,0.0,0.0,0.0,0.0,0.0,0.0,0.0,0.0,0.0,0.0,0.0,0.0,0.0,0.0,0.0,0.0,0.0,0.0,0.0,0.0,0.0,0.0,0.0,0.0,0.0,0.0,0.0,0.0,0.0,0.0,0.0,0.0,0.0,0.0,0.0,0.0,0.0,0.0,0.0,0.0,0.0,0.0,0.0,0.0,0.0,0.0,0.0,0.0,0.0,0.0,0.0,0.0,0.0,0.0,0.0,0.0,0.0,0.0,0.0,0.0,0.0,0.0,0.0,0.0,0.0,0.0,0.0,0.0,0.0,0.0,0.0,0.0,0.0,0.0,0.0,0.0,0.0,0.0,0.0,0.0,0.0,0.0,0.0,0.0,0.0,0.0,0.0,0.0,0.0,0.0,0.0,0.0,0.0,0.0,0.0,0.0,0.0,0.0,0.0,0.0,0.0,0.0,0.0,0.0,0.0,0.0,0.0,0.0,0.0,0.0,0.0,0.0,0.0,0.0,0.0,0.0,0.0,0.0,0.0,0.0,0.0,0.0,0.0,0.0,0.0,0.0,0.0,0.0,0.0,0.0,0.0,0.0,0.0,0.0,0.0,0.0,0.0,0.0,0.0,0.0,0.0,0.0,0.0,0.0,0.0,0.0,0.0,0.0,0.0,0.0,0.0,0.0,0.0,0.0,0.0,0.0,0.0,0.0,0.0,0.0,0.0,0.0,0.0,0.0,0.0,0.0,0.0,0.0,0.0,0.0,0.0,0.0,0.0,0.0,0.0,0.0,0.0,0.0,0.0,0.0,0.0,0.0,0.0,0.0,0.0,0.0,0.0,0.0,0.0,0.0,0.0,0.0,0.0,0.0,0.0,0.0,0.0,0.0,0.0,0.0,0.0,0.0,0.0,0.0,0.0,0.0,0.0,0.0,0.0,0.0,0.0,0.0,0.0,0.0,0.0,0.0,0.0,0.0,0.0,0.0,0.0,0.0,0.0,0.0,0.0,0.0,0.0,0.0,0.0,0.0,0.0,0.0,0.0,0.0,0.0,0.0,0.0,0.0,0.0,0.0,0.0,0.0,0.0,0.0,0.0,0.0,0.0,0.0,0.0,0.0,0.0,0.0,0.0,0.0,0.0,0.0,0.0,0.0,0.0,0.0,0.0,0.0,0.0,0.0,0.0,0.0,0.0,0.0,0.0,0.0,0.0,0.0,0.0,0.0,0.0,0.0,0.0,0.0,0.0,0.0,0.0,0.0,0.0,0.0,0.0,0.0,0.0,0.0,0.0,0.0,0.0,0.0,0.0,0.0,0.0,0.0,0.0,0.0,0.0,0.0,0.0,0.0,0.0,0.0,0.0,0.0,0.0,0.0,0.0,0.0,0.0,0.0,0.0,0.0,0.0,0.0,0.0,0.0,0.0,0.0,0.0,0.0,0.0,0.0,0.0,0.0,0.0,0.0,0.0,0.0,0.0,0.0,0.0,0.0,0.0,0.0,0.0,0.0,0.0,0.0,0.0,0.0,0.0,0.0,0.0,0.0,0.0,0.0,0.0,0.0,0.0,0.0,0.0,0.0,0.0,0.0,0.0,0.0,0.0,0.0,0.0,0.0,0.0,0.0,0.0,0.0,0.0,0.0,0.0,0.0,0.0,0.0,0.0,0.0,0.0,0.0,0.0,0.0,0.0,0.0,0.0,0.0,0.0,0.0,0.0,0.0,0.0,0.0,0.0,0.0,0.0,0.0,0.0,0.0,0.0,0.0,0.0,0.0,0.0,0.0,0.0,0.0,0.0,0.0,0.0,0.0,0.0,0.0,0.0,0.0,0.0,0.0,0.0,0.0,0.0,0.0,0.0,0.0,0.0,0.0,0.0,0.0,0.0,0.0,0.0,0.0,0.0,0.0,0.0,0.0,0.0,0.0,0.0,0.0,0.0,0.0,0.0,0.0,0.0,0.0,0.0,0.0,0.0,0.0,0.0,0.0,0.0,0.0,0.0,0.0,0.0,0.0,0.0,0.0,0.0,0.0,0.0,0.0,0.0,0.0,0.0,0.0,0.0,0.0,0.0,0.0,0.0,0.0,0.0,0.0,0.0,0.0,0.0,0.0,0.0,0.0,0.0,0.0,0.0,0.0,0.0,0.0,0.0,0.0,0.0,0.0,0.0,0.0,0.0,0.0,0.0,0.0,0.0,0.0,0.0,0.0,0.0,0.0,0.0,0.0,0.0,0.0,0.0,0.0,0.0,0.0,0.0,0.0,0.0,0.0,0.0,0.0,0.0,0.0,0.0,0.0,0.0,0.0,0.0,0.0,0.0,0.0,0.0,0.0,0.0,0.0,0.0,0.0,0.0,0.0,0.0,0.0,0.0,0.0,0.0,0.0,0.0,0.0,0.0,0.0,0.0,0.0,0.0,0.0,0.0,0.0,0.0,0.0,0.0,0.0,0.0,0.0,0.0,0.0,0.0,0.0,0.0,0.0,0.0,0.0,0.0,0.0,0.0,0.0,0.0,0.0,0.0,0.0,0.0,0.0,0.0,0.0,0.0,0.0,0.0,0.0,0.0,0.0,0.0,0.0,0.0,0.0,0.0,0.0,0.0,0.0,0.0,0.0,0.0,0.0,0.0,0.0,0.0,0.0,0.0,0.0,0.0,0.0,0.0,0.0,0.0,0.0,0.0,0.0,0.0,0.0,0.0,0.0,0.0,0.0,0.0,0.0,0.0,0.0,0.0,0.0,0.0,0.0,0.0,0.0,0.0,0.0,0.0,0.0,0.0,0.0,0.0,0.0,0.0,0.0,0.0,0.0,0.0,0.0,0.0,0.0,0.0,0.0,0.0,0.0,0.0,0.0,0.0,0.0,0.0,0.0,0.0,0.0,0.0,0.0,0.0,0.0,0.0,0.0,0.0,0.0,0.0,0.0,0.0,0.0,0.0,0.0,0.0,0.0,0.0,0.0,0.0,0.0,0.0,0.0,0.0,0.0,0.0,0.0,0.0,0.0,0.0,0.0,0.0,0.0,0.0,0.0,0.0,0.0,0.0,0.0,0.0,0.0,0.0,0.0,0.0,0.0,0.0,0.0,0.0,0.0,0.0,0.0,0.0,0.0,0.0,0.0,0.0,0.0,0.0,0.0,0.0,0.0,0.0,0.0,0.0,0.0,0.0,0.0,0.0,0.0,0.0,0.0,0.0,0.0,0.0,0.0,0.0,0.0,0.0,0.0,0.0,0.0,0.0,0.0,0.0,0.0,0.0,0.0,0.0,0.0,0.0,0.0,0.0,0.0,0.0,0.0,0.0,0.0,0.0,0.0,0.0,0.0,0.0,0.0,0.0,0.0,0.0,0.0,0.0,0.0,0.0,0.0,0.0,0.0,0.0,0.0,0.0,0.0,0.0,0.0,0.0,0.0,0.0,0.0,0.0,0.0,0.0,0.0,0.0,0.0,0.0,0.0,0.0,0.0,0.0,0.0,0.0,0.0,0.0,0.0,0.0,0.0,0.0,0.0,0.0,0.0,0.0,0.0,0.0,0.0,0.0,0.0,0.0,0.0,0.0,0.0,0.0,0.0,0.0,0.0,0.0,0.0,0.0,0.0,0.0,0.0,0.0,0.0,0.0,0.0,0.0,0.0,0.0,0.0,0.0,0.0,0.0,0.0,0.0,0.0,0.0,0.0,0.0,0.0,0.0,0.0,0.0,0.0,0.0,0.0,0.0,0.0,0.0,0.0,0.0,0.0,0.0,0.0,0.0,0.0,0.0,0.0,0.0,0.0,0.0,0.0,0.0,0.0,0.0,0.0,0.0,0.0,0.0,0.0,0.0,0.0,0.0,0.0,0.0,0.0,0.0,0.0,0.0,0.0,0.0,0.0,0.0,0.0,0.0,0.0,0.0,0.0,0.0,0.0,0.0,0.0,0.0,0.0,0.0,0.0,0.0,0.0,0.0,0.0,0.0,0.0,0.0,0.0,0.0,0.0,0.0,0.0,0.0,0.0,0.0,0.0,0.0,0.0,0.0,0.0,0.0,0.0,0.0,0.0,0.0,0.0,0.0,0.0,0.0,0.0,0.0,0.0,0.0,0.0,0.0,0.0,0.0,0.0,0.0,0.0,0.0,0.0,0.0,0.0,0.0,0.0,0.0,0.0,0.0,0.0,0.0,0.0,0.0,0.0,0.0,0.0,0.0,0.0,0.0,0.0,0.0,0.0,0.0,0.0,0.0,0.0,0.0,0.0,0.0,0.0,0.0,0.0,0.0,0.0,0.0,0.0,0.0,0.0,0.0,0.0,0.0,0.0,0.0,0.0,0.0,0.0,0.0,0.0,0.0,0.0,0.0,0.0,0.0,0.0,0.0,0.0,0.0,0.0,0.0,0.0,0.0,0.0,0.0,0.0,0.0,0.0,0.0,0.0,0.0,0.0,0.0,0.0,0.0,0.0,0.0,0.0,0.0,0.0,0.0,0.0,0.0,0.0,0.0,0.0,0.0,0.0,0.0,0.0,0.0,0.0,0.0,0.0,0.0,0.0,0.0,0.0,0.0,0.0,0.0,0.0,0.0,0.0,0.0,0.0,0.0,0.0,0.0,0.0,0.0,0.0,0.0,0.0,0.0,0.0,0.0,0.0,0.0,0.0,0.0,0.0,0.0,0.0,0.0,0.0,0.0,0.0,0.0,0.0,0.0,0.0,0.0,0.0,0.0,0.0,0.0,0.0,0.0,0.0,0.0,0.0,0.0,0.0,0.0,0.0,0.0,0.0,0.0,0.0,0.0,0.0,0.0,0.0,0.0,0.0,0.0,0.0,0.0,0.0,0.0,0.0,0.0,0.0,0.0,0.0,0.0,0.0,0.0,0.0,0.0,0.0,0.0,0.0,0.0,0.0,0.0,0.0,0.0,0.0,0.0,0.0,0.0,0.0,0.0,0.0,0.0,0.0,0.0,0.0,0.0,0.0,0.0,0.0,0.0,0.0,0.0,0.0,0.0,0.0,0.0,0.0,0.0,0.0,0.0,0.0,0.0,0.0,0.0,0.0,0.0,0.0,0.0,0.0,0.0,0.0,0.0,0.0,0.0,0.0,0.0,0.0,0.0,0.0,0.0,0.0,0.0,0.0,0.0,0.0,0.0,0.0,0.0,0.0,0.0,0.0,0.0,0.0,0.0,0.0,0.0,0.0,0.0,0.0,0.0,0.0,0.0,0.0,0.0,0.0,0.0,0.0,0.0,0.0,0.0,0.0,0.0,0.0,0.0,0.0,0.0,0.0,0.0,0.0,0.0,0.0,0.0,0.0,0.0,0.0,0.0,0.0,0.0,0.0,0.0,0.0,0.0,0.0,0.0,0.0,0.0,0.0,0.0,0.0,0.0,0.0,0.0,0.0,0.0,0.0,0.0,0.0,0.0,0.0,0.0,0.0,0.0,0.0,0.0,0.0,0.0,0.0,0.0,0.0,0.0,0.0,0.0,0.0,0.0,0.0,0.0,0.0,0.0,0.0,0.0,0.0,0.0,0.0,0.0,0.0,0.0,0.0,0.0,0.0,0.0,0.0,0.0,0.0,0.0,0.0,0.0,0.0,0.0,0.0,0.0,0.0,0.0,0.0,0.0,0.0,0.0,0.0,0.0,0.0,0.0,0.0,0.0,0.0,0.0,0.0,0.0,0.0,0.0,0.0,0.0,0.0,0.0,0.0,0.0,0.0,0.0,0.0,0.0,0.0,0.0,0.0,0.0,0.0,0.0,0.0,0.0,0.0,0.0,0.0,0.0,0.0,0.0,0.0,0.0,0.0,0.0,0.0,0.0,0.0,0.0,0.0,0.0,0.0,0.0,0.0,0.0,0.0,0.0,0.0,0.0,0.0,0.0,0.0,0.0,0.0,0.0,0.0,0.0,0.0,0.0,0.0,0.0,0.0,0.0,0.0,0.0,0.0,0.0,0.0,0.0,0.0,0.0,0.0,0.0,0.0,0.0,0.0,0.0,0.0,0.0,0.0,0.0,0.0,0.0,0.0,0.0,0.0,0.0,0.9054,0.0,0.0,0.0,0.0,0.0,0.0,0.0,0.0,0.0,0.0,0.0,0.0,0.0,0.0,0.0,0.0,0.0,0.0,0.0,0.0,0.0,0.0,0.0,0.0,0.8504,0.8517,0.8517,0.8312,0.8158,0.8159,0.0,0.0,0.0,0.0,0.0,0.0,0.0,0.5227,0.5136,0.52,0.5133,0.4926,0.4841,0.4741,0.4685,0.0,0.0,0.0,0.0,0.0,0.0,0.0,0.0,0.0,0.0,0.0,0.0,0.0,0.0,0.0,0.0,0.0,0.0,0.0,0.0,0.0,0.0,0.0,0.0,0.0,0.0,0.0,0.0,0.0,0.0,0.0,0.0,0.0,0.0,0.0,0.0,0.0,0.0,0.0,0.0,0.0,0.0,0.0,0.0,0.0,0.0,0.0,0.0,0.0,0.0,0.0,0.0,0.0,0.0,0.0,0.0,0.0,0.0,0.0,0.0,0.0,0.0,0.0,0.0,0.0,0.0,0.0,0.0,0.0,0.0,0.0,0.8919,0.0,0.0,0.0,0.0,0.0,0.0,0.0,0.0,0.0,0.0,0.0,0.0,0.0,0.0,0.0,0.0,0.0,0.0,0.0,0.0,0.0,0.8028,0.8416,0.8537,0.8571,0.8581,0.8472,0.8275,0.8048,0.7877,0.7359,0.6502,0.6449,0.6155,0.5678,0.5474,0.5377,0.5436,0.5231,0.5076,0.5011,0.48,0.4683,0.471,0.4741,0.0,0.0,0.0,0.0,0.0,0.0,0.0,0.0,0.0,0.0,0.0,0.0,0.0,0.0,0.0,0.0,0.0,0.0,0.0,0.0,0.0,0.0,0.0,0.0,0.0,0.0,0.0,0.0,0.0,0.0,0.0,0.0,0.0,0.0,0.0,0.0,0.0,0.0,0.0,0.0,0.0,0.0,0.0,0.0,0.0,0.0,0.0,0.0,0.0,0.0,0.0,0.0,0.0,0.0,0.0,0.0,0.0,0.0,0.0,0.0,0.0,0.0,0.0,0.9737,0.9769,0.98,0.962,0.963,0.9735,0.9216,0.8957,0.8911,0.0,0.0,0.0,0.0,0.0,0.0,0.0,0.0,0.0,0.0,0.0,0.0,0.0,0.0,0.0,0.0,0.0,0.0,0.0,0.0,0.8316,0.8527,0.8874,0.8941,0.8885,0.9001,0.8827,0.83,0.8098,0.7619,0.6885,0.6581,0.6223,0.5793,0.5653,0.5544,0.5599,0.5277,0.5175,0.5332,0.4822,0.4706,0.4885,0.4999,0.5051,0.5023,0.0,0.0,0.0,0.0,0.0,0.0,0.0,0.0,0.0,0.0,0.0,0.0,0.0,0.0,0.0,0.0,0.0,0.0,0.0,0.0,0.0,0.0,0.0,0.0,0.0,0.0,0.0,0.0,0.0,0.0,0.0,0.0,0.0,0.0,0.0,0.0,0.0,0.0,0.0,0.0,0.0,0.8666,0.8855,0.0,0.0,0.0,0.0,0.0,0.0,0.0,0.0,0.0,0.0,0.0,0.0,0.0,0.9489,0.9517,0.9866,1.0047,1.0149,1.0238,1.0343,1.0452,1.0423,1.0348,1.0135,0.9741,0.0,0.8911,0.8911,0.0,0.0,0.0,0.0,0.0,0.0,0.0,0.0,0.0,0.0,0.0,0.0,0.0,0.0,0.0,0.0,0.0,0.0,0.0,0.0,0.0,0.8695,0.8909,0.8918,0.884,0.8695,0.831,0.8108,0.7693,0.6921,0.6697,0.6432,0.6163,0.5875,0.5688,0.5457,0.5154,0.5054,0.5198,0.4942,0.4868,0.4997,0.4932,0.4861,0.484,0.4849,0.0,0.0,0.0,0.0,0.0,0.0,0.0,0.0,0.0,0.0,0.0,0.0,0.0,0.0,0.0,0.0,0.0,0.0,0.0,0.0,0.0,0.0,0.0,0.0,0.0,0.0,0.0,0.0,0.0,0.0,0.0,0.0,0.0,0.0,0.0,0.0,0.0,0.0,0.0,0.9298,0.9404,0.9327,0.9596,0.9746,0.0,0.0,0.0,0.0,0.0,0.0,0.0,0.0,0.0,1.0258,1.0317,1.0494,1.0613,1.076,1.0771,1.0716,1.087,1.0899,1.0754,1.0817,1.0686,1.0427,0.9922,0.9499,0.9055,0.8865,0.8384,0.7944,0.0,0.0,0.0,0.0,0.0,0.7041,0.0,0.0,0.0,0.0,0.0,0.0,0.0,0.0,0.0,0.0,0.0,0.0,0.8207,0.8572,0.8864,0.8974,0.8754,0.8543,0.83,0.8108,0.7723,0.6994,0.6804,0.6652,0.6409,0.6088,0.5708,0.5341,0.5095,0.4984,0.5125,0.4939,0.4925,0.5027,0.4827,0.4707,0.4675,0.4734,0.4522,0.4207,0.0,0.0,0.0,0.0,0.0,0.0,0.0,0.0,0.0,0.0,0.0,0.0,0.0,0.0,0.0,0.0,0.0,0.0,0.0,0.0,0.0,0.0,0.0,0.0,0.0,0.0,0.0,0.0,0.0,0.0,0.0,0.0,0.0,0.0,0.0,0.0,0.0,1.0039,1.008,0.9833,1.0188,1.0333,0.0,0.0,0.0,0.0,0.0,0.0,1.0564,1.0603,1.0737,1.0901,1.1038,1.1212,1.1324,1.1341,1.1191,1.1129,1.1242,1.1303,1.1067,1.1094,1.0981,1.0591,1.0102,0.9757,0.9414,0.8916,0.8384,0.7944,0.7944,0.7584,0.7143,0.7143,0.7143,0.7143,0.0,0.0,0.0,0.0,0.0,0.0,0.0,0.0,0.0,0.0,0.0,0.8763,0.8749,0.8926,0.8995,0.9097,0.9113,0.8949,0.8341,0.8118,0.7782,0.7186,0.7012,0.6724,0.6409,0.6077,0.5635,0.5121,0.5121,0.5067,0.508,0.4749,0.4688,0.4827,0.4694,0.4688,0.4803,0.454,0.4363,0.4151,0.3897,0.0,0.0,0.0,0.0,0.0,0.0,0.0,0.0,0.0,0.0,0.0,0.0,0.0,0.0,0.0,0.0,0.0,0.0,0.0,0.0,0.0,0.0,0.0,0.0,0.0,0.0,0.0,0.0,0.0,0.0,0.0,0.0,0.0,0.0,0.0,0.0,0.0,0.0,1.0302,1.0494,0.0,0.0,0.0,0.0,1.1088,1.1198,1.1134,1.0993,1.1239,1.1316,1.1326,1.1364,1.1293,1.101,1.099,1.1091,1.1303,1.1293,1.1432,1.157,1.156,1.1356,1.0896,1.0287,1.0076,1.0066,0.9233,0.8472,0.7944,0.7944,0.7584,0.7143,0.7143,0.7143,0.7143,0.0,0.0,0.0,0.0,0.0,0.9283,0.9293,0.9316,0.9179,0.8895,0.9099,0.9157,0.8645,0.8959,0.9179,0.9097,0.8997,0.8786,0.8524,0.8052,0.7648,0.7321,0.6945,0.6529,0.6203,0.5895,0.5623,0.5401,0.5343,0.5239,0.5087,0.4827,0.4628,0.45,0.4434,0.4295,0.4156,0.4268,0.4141,0.3864,0.3605,0.347,0.0,0.0,0.0,0.0,0.0,0.0,0.0,0.0,0.0,0.0,0.0,0.0,0.0,0.0,0.0,0.0,0.0,0.0,0.0,0.0,0.0,0.0,0.0,0.0,0.0,0.0,0.0,0.0,0.0,0.0,0.0,0.0,0.0,0.0,0.0,0.0,0.0,1.0982,1.1357,0.0,1.1768,1.1682,1.1925,1.2406,1.2372,1.2282,1.2428,1.2517,1.2514,1.2514,1.2664,1.2658,1.2382,1.2081,1.1929,1.2024,1.191,1.1734,1.159,1.1785,1.1551,1.1075,1.0752,1.0459,1.0085,0.9644,0.9076,0.8436,0.8253,0.7894,0.7434,0.7434,0.7434,0.7434,0.0,0.0,0.0,0.0,0.0,0.9678,0.9783,0.961,0.9398,0.9163,0.9234,0.9132,0.8693,0.8953,0.918,0.9173,0.8918,0.8679,0.8362,0.7953,0.7601,0.7341,0.6901,0.6519,0.614,0.5751,0.5575,0.5418,0.5292,0.516,0.5027,0.4761,0.45,0.43,0.4167,0.4028,0.3828,0.4069,0.3957,0.368,0.3527,0.3409,0.3347,0.0,0.0,0.0,0.0,0.0,0.0,0.0,0.0,0.0,0.0,0.0,0.0,0.0,0.0,0.0,0.0,0.0,0.0,0.0,0.0,0.0,0.0,0.0,0.0,0.0,0.0,0.0,0.0,0.0,0.0,0.0,0.0,0.0,0.0,0.0,1.1943,1.1775,1.2072,1.2365,1.254,1.2615,1.2802,1.331,1.309,1.294,1.302,1.31,1.3239,1.3239,1.3408,1.3307,1.3036,1.2703,1.2516,1.2448,1.213,1.19,1.1785,1.1785,1.159,1.1189,1.096,1.0702,1.0298,0.9984,0.9457,0.8878,0.8472,0.7966,0.7597,0.7597,0.7597,0.759,0.0,0.0,0.0,0.0,0.0,1.0061,1.0107,0.9475,0.9085,0.9274,0.8938,0.8758,0.9007,0.892,0.8998,0.9233,0.9011,0.8537,0.7923,0.7788,0.7539,0.7216,0.7021,0.6642,0.6085,0.5791,0.5411,0.5087,0.4894,0.4827,0.4761,0.4434,0.43,0.43,0.3961,0.3823,0.3766,0.3866,0.3799,0.3604,0.369,0.3584,0.3395,0.0,0.0,0.0,0.0,0.0,0.0,0.0,0.0,0.0,0.0,0.0,0.0,0.0,0.0,0.0,0.0,0.0,0.0,0.0,0.0,0.0,0.0,0.0,0.0,0.0,0.0,0.0,0.0,0.0,0.0,0.0,0.0,0.0,1.2688,1.271,1.2699,1.2699,1.2815,1.3041,1.3507,1.3508,1.3515,1.3649,1.3344,1.3147,1.2905,1.3124,1.3262,1.3262,1.3419,1.3346,1.2825,1.2814,1.2709,1.2425,1.2131,1.2055,1.198,1.1688,1.1492,1.1198,1.0904,1.0806,1.0708,1.0224,0.9731,0.9099,0.8577,0.798,0.7611,0.7611,0.7611,0.759,0.0,0.0,0.0,1.0431,1.0407,1.0374,1.0393,1.0118,0.9911,0.9767,0.9688,0.9455,0.907,0.9211,0.9119,0.863,0.8817,0.8717,0.8161,0.785,0.7469,0.6946,0.6687,0.6378,0.6077,0.5743,0.5503,0.5292,0.5292,0.5093,0.4761,0.4628,0.4295,0.3961,0.3828,0.3627,0.336,0.3524,0.3507,0.3321,0.3493,0.3503,0.338,0.0,0.0,0.0,0.0,0.0,0.0,0.0,0.0,0.0,0.0,0.0,0.0,0.0,0.0,0.0,0.0,0.0,0.0,0.0,0.0,0.0,0.0,0.0,0.0,0.0,0.0,0.0,0.0,0.0,0.0,0.0,1.4084,1.3929,1.3437,1.3381,1.3392,1.3222,1.3361,1.3572,1.3661,1.3713,1.397,1.4279,1.4276,1.4349,1.4477,1.4349,1.4376,1.457,1.446,1.4178,1.3912,1.3534,1.325,1.2855,1.249,1.2151,1.198,1.1883,1.1688,1.1208,1.126,1.1042,1.052,1.0471,0.9846,0.8916,0.8728,0.83,0.7916,0.7916,0.7916,0.7798,0.0,0.0,0.0,1.0744,1.0685,1.0698,1.0715,1.0304,1.008,1.0172,0.9761,0.9317,0.9103,0.9138,0.8955,0.848,0.8757,0.8714,0.805,0.7654,0.7279,0.6921,0.6837,0.6563,0.6211,0.5901,0.5661,0.5491,0.5359,0.5093,0.4767,0.4613,0.4271,0.3828,0.3668,0.3466,0.3234,0.3513,0.35,0.3368,0.3513,0.356,0.3476,0.3466,0.3691,0.3983,0.4207,0.4556,0.4885,0.5136,0.0,0.0,0.0,0.0,0.0,0.0,0.0,0.0,0.0,0.0,0.0,0.0,0.0,0.0,0.0,0.0,0.0,0.0,0.0,0.0,0.0,0.0,0.0,0.0,1.5156,1.4959,1.4493,1.3939,1.3767,1.3886,1.3788,1.3896,1.4229,1.4334,1.4536,1.4816,1.4886,1.4987,1.5083,1.5088,1.513,1.5281,1.4998,1.4702,1.4505,1.3963,1.3545,1.3147,1.2715,1.2437,1.2175,1.1983,1.1826,0.0,1.1548,1.1226,1.0545,1.0659,0.9987,0.0,0.0,0.0,0.0,0.0,0.8038,0.7918,0.0,0.0,0.0,1.0929,1.0946,1.1051,1.1061,1.036,1.0038,1.0531,0.9491,0.8858,0.9189,0.8949,0.8715,0.8597,0.8764,0.8583,0.7788,0.7457,0.721,0.712,0.7166,0.6966,0.6442,0.614,0.583,0.5645,0.5326,0.5071,0.4809,0.4579,0.4219,0.378,0.3535,0.332,0.325,0.3622,0.3675,0.3546,0.3643,0.3656,0.3583,0.3792,0.3951,0.4212,0.4417,0.473,0.5133,0.5274,0.0,0.0,0.0,0.0,0.0,0.0,0.0,0.0,0.0,0.0,0.0,0.0,0.0,0.0,0.0,0.0,0.0,0.0,0.0,0.0,0.0,0.0,0.0,0.0,1.6381,1.6126,1.5648,1.4545,1.3967,1.4601,1.4045,1.4018,1.475,1.4916,1.5047,1.5158,1.5235,1.5287,1.5313,0.0,0.0,0.0,0.0,1.5134,1.4825,1.429,1.3761,1.3147,1.2953,1.2662,1.2478,1.2124,1.1922,1.1932,1.1859,1.1419,1.0712,1.0755,1.0146,0.916,0.8832,0.8428,0.8038,0.8038,0.8038,0.0,0.0,0.0,1.1674,1.1626,1.1534,1.1485,1.1383,1.103,1.0706,1.061,0.9891,0.9341,0.9227,0.9068,0.8685,0.8093,0.8563,0.8661,0.8143,0.8174,0.7975,0.7345,0.7235,0.7022,0.662,0.64,0.6156,0.574,0.5874,0.5647,0.5151,0.4819,0.4338,0.3889,0.3561,0.3352,0.334,0.3443,0.348,0.3522,0.3338,0.3338,0.3462,0.3543,0.3708,0.393,0.4437,0.4772,0.5072,0.591,0.6417,0.6732,0.7258,0.7777,0.0,0.0,0.0,0.0,0.0,0.0,0.0,0.0,0.0,0.0,0.0,0.0,0.0,0.0,0.0,0.0,0.0,0.0,0.0,1.7763,1.7338,1.6822,1.6348,1.5157,1.4344,1.4194,1.3999,1.3978,1.4352,1.4634,1.5069,1.5549,1.5831,1.6211,1.6663,1.6524,0.0,1.6751,1.6338,1.5808,1.5318,1.485,1.4326,1.3738,0.0,0.0,1.2673,1.2422,1.2123,1.1942,1.2021,1.1661,1.1042,1.115,1.0344,0.912,0.8678,0.8237,0.8038,0.8038,0.8038,0.8038,0.0,1.2085,1.1894,1.1922,1.2086,1.2187,1.1955,1.1783,1.1478,1.0916,1.015,0.9506,0.9058,0.8864,0.8555,0.7942,0.8297,0.8669,0.8857,0.8513,0.8196,0.7815,0.757,0.7297,0.6933,0.6772,0.6459,0.6134,0.6093,0.5806,0.5375,0.4942,0.4517,0.4062,0.3763,0.3547,0.3438,0.3458,0.3495,0.3503,0.3327,0.3268,0.3191,0.3343,0.365,0.4012,0.4428,0.4869,0.5283,0.599,0.6668,0.7207,0.7754,0.8335,0.8912,0.0,0.0,0.0,0.0,0.0,0.0,0.0,0.0,0.0,0.0,0.0,0.0,0.0,0.0,1.8837,1.8962,0.0,1.9425,1.912,1.8559,1.7839,1.7132,1.6004,1.5134,1.4632,1.4219,1.4243,1.464,1.4866,1.519,1.55,1.5819,1.6047,1.64,1.6498,1.6522,1.6473,1.6045,1.5673,1.5293,1.4727,1.4304,1.3931,1.3437,1.3147,1.278,1.2535,1.2283,1.2098,1.2211,1.1903,1.1417,1.0993,1.0158,0.9063,0.8692,0.8336,0.7939,0.7846,0.7846,0.7846,0.0,0.0,1.2282,1.2272,1.2598,1.2779,1.2521,1.2478,1.2148,1.1346,1.0407,0.9589,0.9125,0.8831,0.8528,0.8203,0.8336,0.8739,0.9476,0.8811,0.8377,0.8364,0.7982,0.7654,0.7325,0.7085,0.6838,0.6525,0.6279,0.5999,0.5564,0.5152,0.472,0.4307,0.3984,0.3695,0.3422,0.3565,0.3597,0.3483,0.3328,0.3203,0.3047,0.3185,0.3534,0.3934,0.4405,0.4914,0.5405,0.6015,0.6742,0.7542,0.8078,0.8861,0.9597,1.0358,1.1058,0.0,0.0,0.0,0.0,0.0,0.0,0.0,0.0,1.8546,1.8898,1.9271,1.9831,2.0371,2.0308,2.0857,2.1172,2.0686,1.9758,1.8819,1.7925,1.6837,1.593,1.531,1.4743,1.4486,1.4929,1.5183,1.5369,1.5419,1.5749,1.5957,1.5943,1.6279,1.6278,1.5927,1.5684,1.5373,1.4994,1.4484,1.4108,1.3861,1.3665,1.3322,1.2943,1.2811,1.2501,1.221,1.2238,1.199,1.1629,1.0673,0.9908,0.921,0.8899,0.8528,0.8038,0.7746,0.7646,0.7646,0.0,0.0,0.0,1.2914,1.2839,1.2915,1.316,1.2864,1.237,1.1791,1.079,1.0097,1.0068,0.9379,0.9045,0.9201,0.9073,0.9112,0.9551,0.9402,0.9142,0.8818,0.8415,0.8078,0.774,0.7351,0.7034,0.6849,0.6668,0.63,0.5935,0.5454,0.4925,0.4272,0.4017,0.3755,0.3597,0.3618,0.3591,0.35,0.32,0.3129,0.3122,0.3054,0.3074,0.3299,0.4164,0.456,0.4983,0.6179,0.7001,0.7645,0.8594,0.9751,1.0864,1.1145,1.2092,1.3171,1.3903,1.5514,1.6935,1.6436,1.7691,1.9146,0.0,1.9698,2.0147,2.104,2.1431,2.1737,2.2372,2.2754,2.2888,2.2848,2.1005,1.9459,1.9069,1.7442,1.6262,1.6224,1.5138,1.4417,1.4366,1.487,1.5346,1.5688,1.633,1.6857,1.7039,1.6929,1.6819,1.6494,1.603,1.5431,1.4782,1.457,1.4303,1.386,1.3842,1.3667,1.338,1.3143,1.273,1.2423,1.194,1.1729,1.1494,1.063,1.0092,0.9688,0.9052,0.8627,0.8336,0.8038,0.7939,0.7939,0.0,0.0,0.0,1.3346,1.3405,1.3357,1.3386,1.3442,1.303,1.1789,1.1417,1.0892,0.9732,0.9183,0.9109,0.9663,0.9499,0.9569,1.0009,0.9633,0.9371,0.9187,0.8726,0.8381,0.8175,0.7868,0.7538,0.7252,0.7061,0.6768,0.6311,0.5828,0.5301,0.4825,0.4433,0.4077,0.3781,0.3759,0.3756,0.3675,0.3471,0.3321,0.3349,0.3228,0.3228,0.3444,0.4088,0.4568,0.0,0.6073,0.6785,0.7469,0.8843,0.9766,1.0581,1.1885,1.3,1.4245,1.6106,1.7346,1.8189,1.8497,1.9219,2.0022,2.0367,2.0622,2.0905,2.1376,2.202,2.2594,2.3019,2.3654,2.4075,0.0,2.2413,2.1173,2.0505,1.8953,1.7805,1.7458,1.6937,1.6355,1.5794,1.5513,1.5495,1.5994,1.5841,1.6009,1.6389,1.6249,1.5973,1.5625,1.5397,1.4883,1.4155,1.4333,1.4222,1.3918,1.3715,1.3565,1.3524,1.3151,1.2931,1.2754,1.2098,1.1819,1.1538,1.0877,1.0297,0.9735,0.9278,0.8853,0.8463,0.7772,0.754,0.754,0.0,0.0,0.0,1.3465,1.3697,1.3809,1.3625,1.3839,1.3509,1.2158,1.2049,1.1485,0.9814,0.9386,0.9489,1.0075,0.9969,0.9987,1.0443,0.9955,0.9622,0.9547,0.9091,0.8762,0.8513,0.8225,0.7959,0.759,0.7199,0.6881,0.6569,0.6043,0.5632,0.5185,0.4838,0.4486,0.4051,0.3938,0.3918,0.381,0.3561,0.3497,0.3476,0.3414,0.3492,0.3702,0.41,0.4558,0.5106,0.5911,0.6579,0.7358,0.8789,0.9721,1.0557,1.238,1.4153,1.5898,1.7979,1.9194,1.9952,2.0404,2.0816,2.1153,2.1329,2.1439,2.1525,2.1695,2.232,2.2981,2.3448,2.429,2.4908,2.4794,2.37,2.2548,2.1783,2.0346,1.917,1.8639,1.8614,1.8446,1.7865,1.6723,1.6047,1.6269,1.5801,1.5613,1.5945,1.5806,1.5399,1.4847,1.4747,1.4402,1.3697,1.4066,1.4072,1.3809,1.3646,1.3543,1.3513,1.3017,1.2846,1.2881,1.2219,1.1791,1.1555,1.094,1.0461,0.9918,0.9452,0.9153,0.8727,0.7693,0.7327,0.739,0.0,0.0,0.0,0.0,1.3542,1.394,1.4164,1.395,1.3649,1.3295,1.2592,1.1768,1.0865,1.0493,1.0451,1.0721,1.0523,1.054,1.0942,1.0441,1.0031,0.9962,0.9636,0.9227,0.8735,0.8288,0.8024,0.7803,0.6998,0.6634,0.6566,0.6103,0.5699,0.5318,0.5206,0.4915,0.4347,0.4331,0.4053,0.3564,0.3561,0.3418,0.3318,0.3474,0.3655,0.3939,0.4045,0.4446,0.4972,0.5801,0.6603,0.7388,0.8533,0.9913,1.1403,1.2451,1.5478,1.8564,1.9147,2.093,2.2428,2.1585,2.2311,2.3113,2.2421,2.2165,2.2136,2.2229,2.2457,2.2914,2.3849,2.4703,2.5542,2.62,2.4703,2.3275,2.2671,2.099,1.98,1.9562,1.9754,2.0005,0.0,1.8672,1.7202,1.6618,1.6759,1.6592,1.6118,1.5985,1.549,1.4755,1.4503,1.4082,1.3404,1.3964,1.3973,1.3532,1.3738,1.3701,1.3524,1.2769,1.2675,1.2881,1.201,1.1573,1.1555,1.0717,1.0428,1.0305,0.9602,0.9324,0.9108,0.8059,0.7761,0.7827,0.0,0.0,0.0,0.0,0.0,1.4501,1.4392,1.4304,1.3963,1.3185,1.2521,0.0,0.0,0.0,0.0,0.0,1.0831,1.0704,1.0866,1.0745,1.0581,1.0309,1.0076,0.9677,0.9311,0.8786,0.8298,0.8005,0.7466,0.7087,0.6783,0.6388,0.6074,0.5848,0.5411,0.517,0.5032,0.4578,0.4268,0.4151,0.3894,0.3831,0.3894,0.3912,0.4036,0.4107,0.0,0.473,0.5333,0.5999,0.6722,0.7545,0.8733,0.9904,1.1318,1.3873,1.6354,1.8451,1.9297,2.0805,2.2229,2.2347,2.2955,2.3612,2.3557,2.3021,2.2479,2.2558,2.262,2.2948,2.3979,2.4938,2.5844,2.6447,2.605,2.5464,2.4837,2.372,2.2836,2.2496,2.2372,0.0,0.0,0.0,0.0,1.7958,1.7549,1.7284,1.733,1.7397,1.7267,1.6799,1.6282,1.5676,1.4892,1.4773,1.4511,1.4062,1.3916,1.3712,1.3524,1.3028,1.288,1.2869,1.2024,1.1558,1.1564,1.0849,1.0425,1.0107,0.9738,0.9478,0.9062,0.81,0.7855,0.7781,0.0,0.0,0.0,0.0,0.0,0.0,0.0,0.0,0.0,0.0,0.0,0.0,0.0,0.0,0.0,0.0,0.0,1.1148,1.0919,1.0857,1.0653,1.0233,1.002,0.9663,0.9322,0.8817,0.8375,0.8072,0.7618,0.7194,0.6865,0.6563,0.6335,0.6163,0.5722,0.5487,0.5436,0.484,0.4538,0.4502,0.4155,0.4091,0.4329,0.4294,0.4495,0.0,0.4833,0.5321,0.5841,0.622,0.6915,0.7796,0.9189,1.0874,1.2855,1.5577,1.7464,1.8957,2.0286,2.1491,2.2579,2.3374,2.3886,2.4228,2.4342,2.3723,2.3038,2.2934,2.2967,2.3361,2.4097,2.5346,2.6454,2.7049,2.7058,2.6823,2.6211,2.5462,2.4763,2.4341,2.4324,2.4178,0.0,0.0,0.0,1.9436,1.8811,1.8445,1.8448,1.8294,1.8136,1.7921,1.7327,1.6565,1.5556,1.5359,1.4981,1.4333,1.3916,1.3622,1.3513,1.3057,1.2873,1.2971,1.2103,1.163,1.1476,1.0882,1.0482,1.0122,0.9749,0.953,0.9219,0.8458,0.81,0.7917,0.0,0.0,0.0,0.0,0.0,0.0,0.0,0.0,0.0,0.0,0.0,0.0,0.0,0.0,0.0,0.0,0.0,0.0,1.1136,1.0821,1.0391,0.9817,0.9538,0.9276,0.8805,0.8473,0.8193,0.8015,0.7442,0.7084,0.685,0.671,0.6414,0.6083,0.6052,0.5846,0.5454,0.5119,0.4774,0.4506,0.4164,0.4265,0.451,0.451,0.4942,0.5496,0.5536,0.593,0.6485,0.6459,0.714,0.8371,1.0146,1.291,1.5883,1.7407,1.8806,2.0213,2.1949,2.2849,2.3578,2.4503,2.4952,2.5071,2.48,2.4369,2.3855,2.332,2.3515,2.3941,2.4255,0.0,2.7259,2.787,2.7705,2.7285,2.6837,2.62,2.5555,0.0,0.0,0.0,0.0,0.0,0.0,2.1248,0.0,1.9862,1.9418,1.8836,1.8296,1.8024,1.7779,1.6927,1.5375,1.5611,1.5232,1.4292,1.3715,1.3453,1.3502,1.2934,1.2749,1.2971,1.2224,1.1783,1.1318,1.0841,1.0599,1.0361,0.9647,0.9596,0.9706,0.8816,0.8407,0.8252,0.0,0.0,0.0,0.0,0.0,0.0,0.0,0.0,0.0,0.0,0.0,0.0,0.0,0.0,0.0,0.0,0.0,0.0,1.115,1.0948,1.0692,1.0102,0.9956,0.9673,0.912,0.0,0.0,0.7879,0.7595,0.717,0.6693,0.6659,0.6563,0.6398,0.5872,0.5712,0.584,0.5336,0.5114,0.5033,0.4826,0.4642,0.451,0.4856,0.5064,0.5293,0.5659,0.6297,0.6942,0.7068,0.8541,1.0728,1.2604,1.4467,1.637,1.8029,1.9297,2.05,2.183,2.299,2.4028,2.4846,2.5475,2.5755,2.561,2.4871,2.414,2.3765,2.3829,2.4192,2.4938,2.6206,0.0,2.7952,2.8215,0.0,2.8593,2.8152,0.0,2.747,0.0,2.711,2.6059,2.5915,0.0,0.0,2.2155,2.1344,2.0773,2.0807,2.0553,2.0096,1.9134,1.8089,1.6855,1.5603,1.4772,1.4592,1.3625,1.329,1.3442,1.2904,1.273,1.2635,1.2009,1.1621,1.1502,1.0891,1.0445,0.9975,0.9801,0.9485,0.9044,0.8706,0.8355,0.8078,0.0,0.0,0.0,0.0,0.0,0.0,0.0,0.0,0.0,0.0,0.0,0.0,0.0,0.0,0.0,0.0,0.0,0.0,0.0,1.1222,1.0914,1.0522,1.0191,0.9776,0.9497,0.0,0.0,0.0,0.0,0.0,0.6889,0.6827,0.6691,0.6383,0.6045,0.5953,0.604,0.5644,0.0,0.0,0.0,0.4995,0.4856,0.5201,0.5502,0.5829,0.6371,0.7249,0.8309,0.9196,1.0607,1.2244,1.4079,1.5739,1.7336,1.89,1.9977,2.092,2.2275,2.3268,2.4027,2.4609,2.5373,2.5873,2.5369,2.4863,2.4539,2.4444,2.452,2.4798,2.5614,2.6901,2.794,0.0,0.0,0.0,2.9556,2.9403,2.9136,0.0,2.8812,0.0,2.7099,2.6879,2.619,0.0,2.3408,2.2383,2.1813,2.1381,2.1065,2.0934,1.973,1.8409,1.6991,1.526,1.4514,1.4609,1.359,1.3282,1.3448,1.2819,1.2547,1.2555,0.0,1.1558,1.145,1.0882,1.0429,0.9821,0.9677,0.9375,0.9051,0.8823,0.8484,0.814,0.0,0.0,0.0,0.0,0.0,0.0,0.0,0.0,0.0,0.0,1.4448,0.0,0.0,0.0,0.0,0.0,0.0,0.0,0.0,0.0,0.0,0.0,1.0124,0.9788,0.9706,0.9076,0.8674,0.8646,0.8088,0.0,0.0,0.0,0.0,0.0,0.0,0.0,0.0,0.0,0.0,0.0,0.5454,0.5362,0.5266,0.0,0.0,0.6655,0.7369,0.853,1.004,1.1911,1.2726,1.3376,1.5003,1.6727,1.8408,1.964,2.0616,2.1597,2.2966,2.364,2.3956,2.4281,2.5126,2.5615,2.4731,2.4728,2.4947,2.4963,2.5256,2.5678,2.6298,2.7636,2.8686,2.8875,0.0,2.9813,3.0277,3.031,3.0146,2.9456,2.9612,2.9323,2.7966,2.7369,2.6652,2.5878,2.4323,2.3136,2.2676,2.137,2.0697,2.0753,1.9556,1.8083,1.6301,1.4892,1.4269,1.457,1.3649,1.3317,1.346,1.2773,1.2496,1.2555,0.0,0.0,1.1335,1.0849,1.0381,0.9931,0.9545,0.9382,0.9272,0.9051,0.8712,0.8484,0.0,0.0,0.0,0.0,0.0,0.0,0.0,0.0,0.0,0.0,1.5239,1.4858,0.0,0.0,0.0,0.0,0.0,0.0,0.0,0.0,0.0,0.0,0.9985,0.9637,0.9276,0.8936,0.8604,0.8431,0.8025,0.7607,0.0,0.0,0.0,0.0,0.0,0.0,0.0,0.0,0.0,0.0,0.619,0.5996,0.5667,0.0,0.0,0.0,0.8471,0.9818,1.1012,1.2453,1.3488,1.4336,1.5764,1.7576,1.9219,1.9944,2.1138,2.2446,2.3497,2.4059,2.4565,2.518,2.5533,2.5477,2.4863,2.5159,2.5275,2.4745,2.5472,2.6272,2.657,2.773,2.8758,2.9272,2.9854,3.0449,3.1185,3.115,3.0639,0.0,2.9674,2.9066,2.7295,2.7016,0.0,0.0,0.0,2.399,2.3369,2.2063,2.0652,1.912,1.7846,1.6713,1.595,1.4884,1.4461,1.457,1.385,1.3499,1.346,1.3099,1.2779,1.2565,1.1898,0.0,1.152,1.0899,1.0343,0.9771,0.9801,0.9375,0.894,0.894,0.8712,0.8484,0.0,0.0,0.0,0.0,0.0,0.0,0.0,1.5581,1.5679,1.5393,1.5574,1.5582,1.501,1.4536,1.4183,0.0,0.0,0.0,0.0,0.0,0.0,0.0,0.0,0.0,0.0,0.9291,0.8935,0.8861,0.0,0.7886,0.7509,0.7524,0.7257,0.6788,0.6641,0.6486,0.6261,0.6417,0.6404,0.637,0.6692,0.6635,0.0,0.0,0.0,0.0,0.0,1.0814,1.1784,1.3171,1.4093,1.4851,1.6118,1.7509,1.888,2.0053,2.1259,2.2453,2.3745,2.4345,2.4707,2.5126,2.5481,2.5546,2.4797,2.5144,2.5593,2.5384,2.5846,2.6505,2.7118,2.798,2.8682,2.8816,2.9749,3.0556,3.0737,3.0882,3.0491,2.9541,2.9174,2.8537,2.7359,2.6962,2.6625,0.0,0.0,2.4238,2.3536,2.2056,2.0319,1.8496,1.7401,1.6381,1.5459,1.4774,1.4471,1.4355,1.3838,1.3602,1.3652,1.2994,1.2698,1.2715,1.1866,0.0,1.1573,1.1126,1.0586,1.0036,1.0036,0.9706,0.9161,0.9161,0.8933,0.8712,0.0,0.0,0.0,0.0,0.0,0.0,1.5212,1.5675,1.5965,1.5393,1.5963,1.6175,1.5392,1.4824,1.4433,0.0,0.0,0.0,0.0,0.0,0.0,0.0,0.0,0.0,0.0,0.0,0.0,0.9322,0.8713,0.0,0.0,0.0,0.0,0.0,0.6942,0.6887,0.6698,0.6907,0.6986,0.0,0.0,0.7323,0.0,0.0,0.0,0.0,0.0,1.1665,1.2583,1.385,1.4679,1.5263,1.6305,1.7411,1.862,2.0078,2.1314,2.2521,2.3868,2.449,2.4826,2.4957,2.5286,2.5517,2.483,2.5153,2.5678,2.6034,2.6268,2.6657,2.7602,2.8195,2.8635,2.8796,2.9866,3.0744,3.0568,3.0601,3.039,2.9597,2.8935,0.0,2.7718,2.7107,0.0,0.0,0.0,0.0,2.3307,2.1704,2.0061,1.8413,1.7384,1.635,1.519,1.4729,1.4408,1.4254,1.3862,1.3728,1.391,1.2867,1.2607,1.2961,1.1954,0.0,0.0,1.1236,1.0798,1.0257,1.0257,0.9926,0.9382,0.9382,0.9161,0.883,0.0,0.0,0.0,0.0,0.0,0.0,1.5533,1.5782,1.602,1.6138,1.6599,1.6576,1.5863,1.5202,1.4649,0.0,0.0,0.0,0.0,0.0,0.0,0.0,0.0,0.0,0.0,0.0,0.0,0.9322,0.8856,0.0,0.0,0.0,0.0,0.0,0.0,0.711,0.7096,0.7263,0.0,0.0,0.0,0.0,0.0,0.0,0.0,0.0,0.0,1.2427,1.3498,1.4273,1.5056,1.5749,1.659,1.7971,1.9335,1.9892,2.1387,2.3084,2.3959,2.449,2.4921,2.5417,2.5217,2.492,2.516,2.5428,2.5678,2.5876,2.6442,2.7046,2.7538,2.8079,2.8847,3.0131,3.0798,3.1264,3.1709,3.1466,3.0831,2.9829,0.0,0.0,2.835,2.7491,0.0,0.0,0.0,0.0,2.2406,2.124,1.9997,1.8728,1.7219,1.6126,1.5505,1.4838,1.4514,1.4532,1.4122,1.3888,1.3922,1.3025,1.2749,1.2971,1.2009,0.0,0.0,1.1236,1.0798,1.0257,1.0257,0.9926,0.9382,0.9382,0.9161,0.894,0.0,0.0,0.0,0.0,0.0,0.0,1.5571,1.5532,1.5781,1.6417,1.6545,1.6454,1.6254,1.5889,1.5184,1.416,0.0,0.0,0.0,0.0,0.0,0.0,0.0,0.0,0.0,0.0,0.9823,0.9746,0.9281,0.0,0.0,0.0,0.0,0.0,0.0,0.718,0.7501,0.7366,0.0,0.0,0.0,0.0,0.0,0.0,0.0,0.0,0.0,0.0,1.3831,1.4829,1.5634,1.6346,1.7255,1.8433,1.9566,1.997,2.0967,2.2258,2.3654,2.4345,2.4706,2.5182,2.532,2.529,2.5428,2.5704,2.5977,2.6181,2.684,2.7462,2.7666,2.8359,2.915,2.993,3.0512,3.0999,3.1331,3.0735,3.0058,2.9283,2.8819,0.0,0.0,0.0,2.6389,0.0,0.0,0.0,2.2742,2.1674,2.044,1.9178,1.7588,1.6445,1.5834,1.5061,1.4734,1.4823,1.4283,1.4207,1.4265,1.332,1.2961,1.3173,1.2297,0.0,0.0,1.1564,1.1126,1.0798,1.0578,1.0257,0.9926,0.9926,0.9596,0.9161,0.0,0.0,0.0,0.0,0.0,1.5547,1.5419,1.5327,1.556,1.6287,1.6332,1.6349,1.659,1.6393,1.5755,1.4482,1.3976,0.0,0.0,0.0,0.0,0.0,0.0,0.0,0.0,0.0,1.0079,1.0063,0.9756,0.932,0.0,0.0,0.8,0.7557,0.0,0.0,0.0,0.0,0.0,0.0,0.0,0.0,0.0,0.0,0.0,0.0,0.0,0.0,0.0,0.0,0.0,1.7018,1.7859,1.882,1.9805,2.036,2.1047,2.1931,2.3514,2.42,2.4562,2.4969,2.5083,2.5217,2.5533,2.5664,2.5816,2.6252,2.6917,2.7485,2.7754,2.8492,2.9227,2.9724,3.0301,3.0709,3.0676,3.018,2.9603,2.8896,0.0,2.7622,0.0,2.656,0.0,0.0,0.0,0.0,0.0,2.2002,2.0854,1.9567,1.7889,1.6707,1.6163,1.5354,1.5008,1.5101,1.4389,1.4242,1.456,1.3435,1.3002,1.3204,0.0,0.0,0.0,1.1655,1.1345,1.1126,1.0907,1.0586,1.0257,1.0147,0.9926,0.9485,0.0,0.0,0.0,0.0,0.0,0.0,1.5039,1.5079,1.5323,1.5927,1.6171,1.6349,1.659,1.6685,1.6361,1.5173,1.4227,0.0,0.0,0.0,0.0,0.0,0.0,0.0,0.0,0.0,1.0322,1.0314,1.007,0.9546,0.8779,0.8541,0.8208,0.7804,0.0,0.0,0.0,0.0,0.0,0.0,0.0,0.0,0.0,0.0,0.0,0.0,0.0,0.0,0.0,0.0,0.0,0.0,0.0,1.9204,2.0082,2.0969,2.1679,2.2512,2.3604,2.42,2.4562,2.4969,2.453,2.4317,2.5363,2.5074,2.4896,2.599,2.6636,2.7182,2.7729,2.8251,2.8895,2.9875,3.0409,3.0587,3.017,2.9941,2.9603,0.0,0.0,2.8003,2.7939,2.6693,0.0,0.0,0.0,0.0,0.0,2.1898,2.1028,1.9832,1.8026,1.6877,1.6493,1.547,1.5214,1.549,1.4406,1.4185,1.456,1.3164,1.2769,0.0,0.0,0.0,0.0,1.1602,1.1345,1.1126,1.1126,1.0798,1.0257,0.9926,0.9816,0.9706,0.0,0.0,0.0,0.0,0.0,0.0,1.54,1.5083,1.5228,1.6251,1.61,1.6175,1.685,1.6694,1.6349,1.5832,1.5048,0.0,0.0,0.0,0.0,0.0,0.0,0.0,0.0,0.0,1.0964,1.0957,1.046,0.9935,0.9385,0.8852,0.8365,0.8025,0.8036,0.8304,0.0,0.0,0.0,0.0,0.0,0.0,0.0,0.0,0.0,0.0,0.0,0.0,0.0,0.0,0.0,0.0,0.0,0.0,0.0,2.1861,2.2013,2.205,2.3037,2.353,2.3954,2.4684,2.4802,2.4845,2.5322,2.5432,2.5684,2.6399,2.7038,2.7754,2.8425,2.8746,2.9184,3.0084,3.0089,3.0065,3.0264,0.0,0.0,2.8826,2.7667,2.6843,0.0,0.0,0.0,0.0,0.0,0.0,0.0,2.1121,2.0252,1.985,1.8319,1.7311,1.7086,1.6261,1.5708,1.5503,1.5178,1.4824,1.4402,1.3767,0.0,0.0,0.0,0.0,0.0,1.1764,1.1564,1.1345,1.1017,1.0688,1.0586,1.0476,1.0257,1.0147,0.0,0.0,0.0,0.0,0.0,0.0,1.5242,1.4934,1.5069,1.5999,1.5762,1.5861,1.6783,1.6641,1.6381,1.6139,1.5561,0.0,0.0,0.0,0.0,0.0,0.0,0.0,0.0,1.1321,1.1361,1.146,1.0868,1.0282,0.9806,0.9204,0.8751,0.8475,0.8337,0.8656,0.0,0.0,0.0,0.0,0.0,0.0,1.3212,0.0,0.0,0.0,0.0,0.0,0.0,0.0,0.0,0.0,0.0,0.0,0.0,0.0,2.2243,2.2236,2.3153,2.3575,2.3858,2.4492,2.4779,2.4873,2.5181,2.546,2.5812,2.6621,2.7285,2.7903,2.8675,2.8917,2.915,2.9653,2.9633,2.9561,2.96,0.0,0.0,2.8231,0.0,0.0,0.0,0.0,0.0,0.0,0.0,0.0,0.0,2.0744,1.9928,1.9762,1.853,1.7689,1.7434,1.6588,1.5979,1.5588,1.5343,1.4855,1.4287,1.3827,0.0,0.0,0.0,0.0,0.0,1.1973,1.1682,1.1573,1.1345,1.1017,1.0688,1.0688,1.0586,1.0476,0.0,0.0,0.0,0.0,0.0,0.0,0.0,1.4706,1.4823,1.5349,1.5245,1.5495,1.6413,1.6403,1.6329,1.6154,1.5967,0.0,0.0,0.0,0.0,0.0,0.0,0.0,1.1755,1.1505,1.146,1.1791,1.1283,1.0709,1.008,0.9692,0.9378,0.9027,0.8875,0.918,0.0,0.0,0.0,0.0,1.195,1.25,0.0,0.0,0.0,0.0,0.0,0.0,0.0,0.0,0.0,0.0,0.0,0.0,0.0,0.0,0.0,0.0,0.0,2.3986,2.4227,2.449,2.4402,2.4515,2.5204,2.5217,0.0,2.676,2.7285,2.7755,2.8499,2.8737,2.8791,2.8791,2.9229,0.0,0.0,2.8787,0.0,0.0,2.729,0.0,0.0,0.0,0.0,0.0,0.0,0.0,0.0,2.0744,2.0019,1.9579,1.8643,1.7994,1.7729,1.6791,1.6061,1.583,1.5109,1.466,1.4253,1.3766,0.0,0.0,0.0,0.0,0.0,1.2144,1.1891,1.1682,1.1891,1.1455,1.0806,1.0806,1.0806,1.0688,0.0,0.0,0.0,0.0,0.0,0.0,0.0,0.0,0.0,0.0,1.5098,1.5495,1.6505,1.6635,1.6797,0.0,0.0,0.0,0.0,0.0,0.0,0.0,0.0,0.0,1.2433,1.2275,1.214,1.2198,1.197,1.1456,1.0741,1.0752,1.0243,0.9564,0.9798,1.0263,0.0,0.0,0.0,0.0,1.2959,1.353,0.0,0.0,0.0,0.0,1.5931,1.6966,0.0,0.0,0.0,0.0,0.0,0.0,0.0,0.0,2.2961,2.3659,2.3743,0.0,2.3979,2.4612,2.4826,2.5039,0.0,2.5578,2.598,2.6834,2.7358,2.7928,2.8675,2.8815,2.887,2.8973,2.8833,2.8643,2.8283,2.8068,0.0,2.688,2.6727,2.6431,0.0,0.0,0.0,0.0,0.0,0.0,0.0,2.04,1.9579,1.9288,1.855,1.7994,1.7729,1.7099,1.6457,1.583,1.5703,1.5132,1.4313,1.4196,0.0,0.0,0.0,0.0,1.2812,1.2209,1.2001,1.1891,1.1782,1.1573,1.1354,1.1354,1.1354,1.1345,0.0,0.0,0.0,0.0,0.0,0.0,0.0,0.0,0.0,0.0,1.5257,1.5634,1.6228,1.6602,1.683,0.0,0.0,0.0,0.0,0.0,0.0,0.0,0.0,1.2841,1.2698,1.2468,1.2428,1.2557,1.2232,1.1835,1.1483,1.1142,1.0674,1.0272,1.0539,1.1147,0.0,0.0,0.0,0.0,1.3926,0.0,0.0,0.0,0.0,0.0,1.6763,1.7748,0.0,1.8831,1.9481,2.0206,0.0,0.0,0.0,0.0,2.2979,2.3465,2.377,2.4119,2.4539,2.5132,2.5397,2.5685,2.6042,2.6082,2.6268,2.7026,2.7304,2.7704,2.87,2.8617,2.8602,2.9003,2.8657,0.0,0.0,0.0,2.7872,2.7037,2.6708,0.0,0.0,0.0,0.0,0.0,0.0,0.0,0.0,2.0218,1.9487,1.9379,1.8707,1.8127,1.7749,1.7241,1.6732,1.6233,1.5956,1.5431,1.4695,1.4422,1.4104,0.0,0.0,0.0,1.3207,1.2772,1.2436,1.2219,1.2219,1.19,1.1573,1.1791,1.1673,1.1564,0.0,0.0,0.0,0.0,0.0,0.0,0.0,0.0,0.0,0.0,0.0,0.0,0.0,0.0,0.0,0.0,0.0,0.0,0.0,0.0,0.0,0.0,0.0,1.3024,1.2705,1.2554,1.2611,1.2885,1.24,1.2123,1.21,1.1388,1.1042,1.112,1.1306,1.1902,0.0,0.0,0.0,0.0,1.4756,0.0,0.0,0.0,0.0,0.0,0.0,0.0,0.0,1.9264,1.9807,2.0547,2.0921,0.0,0.0,0.0,0.0,0.0,2.3836,2.4684,2.5456,2.573,2.5973,2.6215,2.6455,2.6396,2.6407,2.6997,2.7101,2.7404,2.855,2.8346,2.8261,2.8954,0.0,0.0,2.8337,2.8457,2.8271,2.742,2.6882,0.0,0.0,0.0,0.0,0.0,0.0,0.0,0.0,2.0309,1.9579,1.9579,1.8942,1.8354,1.7823,1.7287,1.6924,1.6733,1.6186,1.5632,1.5173,1.4651,1.4378,0.0,0.0,0.0,1.364,1.3423,1.2989,1.2545,1.2881,1.2446,1.1791,1.2001,1.2001,1.1673,0.0,0.0,0.0,0.0,0.0,0.0,0.0,0.0,0.0,0.0,0.0,0.0,0.0,0.0,0.0,0.0,0.0,0.0,0.0,0.0,0.0,1.3981,1.3741,1.3464,1.3243,1.3054,1.2937,1.3028,1.2906,1.2711,1.2369,1.2435,1.2301,1.2025,1.2544,1.3106,1.3766,0.0,0.0,1.5238,1.5666,0.0,0.0,0.0,0.0,0.0,0.0,0.0,0.0,1.9768,2.027,2.0856,2.1594,0.0,0.0,0.0,0.0,0.0,2.3843,2.4893,2.5852,2.535,2.5781,2.6287,2.5825,2.5959,2.6238,2.6382,2.6826,2.7423,2.7902,2.81,2.8415,2.8797,0.0,2.8288,0.0,0.0,2.7387,2.7352,0.0,0.0,0.0,0.0,0.0,0.0,0.0,0.0,0.0,2.0382,1.9654,1.9288,1.8798,1.8315,1.7808,1.7597,1.7232,1.6912,1.6295,1.5833,1.5762,1.5231,1.4838,0.0,0.0,1.3922,1.364,1.3423,1.3207,1.3207,1.3207,1.2989,1.2663,1.2772,1.2555,1.2327,0.0,0.0,0.0,0.0,0.0,0.0,0.0,0.0,0.0,0.0,0.0,0.0,0.0,0.0,0.0,0.0,0.0,0.0,0.0,0.0,1.5173,1.4388,1.4008,1.3662,1.3342,1.3284,1.3341,1.3448,1.3349,1.3262,1.3233,1.3063,1.3039,1.308,1.3238,1.3817,1.4712,1.5006,1.5613,1.6484,0.0,0.0,0.0,0.0,0.0,0.0,0.0,0.0,0.0,0.0,2.0636,2.1174,2.1572,0.0,0.0,0.0,0.0,0.0,2.3952,2.4711,2.5417,2.5535,2.631,2.709,2.6964,2.6834,2.6702,2.6402,2.6596,2.7017,2.7426,2.7681,2.7944,2.8299,0.0,2.9011,2.8384,2.8156,2.7843,0.0,0.0,0.0,0.0,0.0,0.0,0.0,0.0,0.0,0.0,0.0,1.9671,1.9396,1.8832,1.8346,1.7938,1.7764,1.7526,1.7241,1.6773,1.6484,1.6336,1.581,1.5352,1.5041,0.0,1.4504,1.4396,1.4072,1.3964,1.3748,1.364,1.3315,1.3098,1.3098,1.2989,1.2881,0.0,0.0,0.0,0.0,0.0,0.0,0.0,0.0,0.0,0.0,0.0,0.0,0.0,0.0,0.0,0.0,0.0,0.0,0.0,0.0,1.5209,1.4732,1.4321,1.3954,1.3477,1.3374,1.3451,1.3796,1.3623,1.3711,1.396,1.3623,1.369,1.4041,1.4076,1.4646,1.5606,1.599,1.6698,1.753,0.0,0.0,0.0,0.0,0.0,0.0,0.0,0.0,0.0,0.0,0.0,0.0,0.0,0.0,0.0,2.2359,2.2641,2.3083,2.4107,2.4615,2.511,2.6005,2.6865,2.7556,2.7776,2.7523,2.7193,2.6892,2.6841,2.7017,2.7498,2.7681,0.0,2.798,2.9046,2.9547,2.8364,2.8579,0.0,0.0,0.0,0.0,0.0,0.0,0.0,0.0,0.0,0.0,0.0,0.0,1.9671,1.9596,1.9004,1.844,1.8087,1.803,1.7782,1.7456,1.7217,1.6977,1.6842,1.6205,1.5897,1.5589,1.5256,1.5041,1.4934,1.4826,1.46,1.4385,1.4072,1.3748,1.3423,1.3315,1.3315,1.3315,0.0,0.0,0.0,0.0,0.0,0.0,0.0,0.0,0.0,0.0,0.0,0.0,0.0,0.0,0.0,0.0,0.0,0.0,0.0,0.0,1.5477,1.5061,1.4775,1.4374,1.3886,1.34,1.3385,1.3685,1.3685,1.387,1.4231,1.4462,1.4502,1.4657,1.5319,1.5884,1.6301,1.7401,1.7846,1.8019,1.8836,0.0,0.0,0.0,0.0,0.0,0.0,0.0,0.0,0.0,0.0,0.0,0.0,0.0,2.242,2.2629,2.3034,2.3638,2.436,2.488,2.5617,2.6897,2.7008,2.6771,2.6771,2.7033,2.7419,2.7653,2.7826,2.8074,2.8475,2.8639,2.856,2.8235,2.8817,2.9261,2.8928,0.0,0.0,0.0,0.0,0.0,0.0,0.0,0.0,0.0,0.0,0.0,0.0,0.0,0.0,1.9596,1.9044,1.8582,1.8087,1.8132,1.7912,1.754,1.7211,1.7094,1.7173,1.6537,1.6111,1.5897,1.5589,1.5256,1.5041,1.4934,1.4934,1.4934,1.46,1.418,1.364,1.3423,1.3315,1.3315,0.0,0.0,0.0,0.0,0.0,0.0,0.0,0.0,0.0,0.0,0.0,0.0,0.0,0.0,0.0,0.0,0.0,0.0,0.0,1.5706,1.5523,1.5279,1.4649,1.4337,1.4374,1.3858,1.3831,1.4153,1.4515,1.491,1.5206,1.5297,1.5542,1.5922,1.6163,1.6552,1.7041,1.789,1.8452,1.8784,1.9407,1.9818,0.0,0.0,0.0,0.0,0.0,0.0,0.0,0.0,2.1336,2.18,2.2173,2.2543,2.2909,2.309,2.3362,2.3714,2.4645,2.4893,2.5253,2.649,2.6557,2.6615,2.7429,2.7723,2.7846,2.7974,2.8024,2.8199,2.8373,0.0,2.8114,2.8051,2.8728,2.9258,0.0,0.0,0.0,0.0,0.0,0.0,0.0,0.0,0.0,0.0,0.0,0.0,0.0,0.0,0.0,1.9596,1.8936,1.8566,1.8381,1.8009,1.7749,1.7707,1.7427,1.7231,1.6856,1.6898,1.6554,1.5866,1.5931,1.5791,1.5577,1.5363,1.5267,1.5256,1.4826,1.4493,1.418,1.3975,1.3964,1.4072,0.0,0.0,0.0,0.0,0.0,0.0,0.0,0.0,0.0,0.0,0.0,0.0,0.0,0.0,0.0,0.0,0.0,0.0,1.5545,1.562,1.5538,1.5257,1.4653,1.4402,1.454,1.4153,1.4172,1.4475,1.5094,1.5609,1.6008,1.6081,1.6454,1.6951,1.7017,1.7363,1.7893,1.8707,1.9255,1.9798,2.0324,2.0859,0.0,0.0,0.0,0.0,0.0,0.0,0.0,0.0,2.18,2.2173,2.2543,2.2884,2.3271,2.345,2.3637,2.4029,2.4849,2.5191,2.5492,2.6602,2.6741,2.6947,2.8195,2.8296,2.8197,2.8574,2.855,2.8575,2.8737,0.0,0.0,0.0,2.908,0.0,0.0,0.0,0.0,0.0,0.0,0.0,0.0,0.0,0.0,0.0,0.0,0.0,0.0,0.0,0.0,0.0,1.9028,1.8658,1.8489,1.8009,1.7878,1.7919,1.7752,1.7355,1.6962,1.716,1.6858,1.6273,1.6343,1.6311,1.6099,1.5897,1.5696,1.5482,1.5041,1.4826,1.4708,1.4396,1.4396,1.46,0.0,0.0,0.0,0.0,0.0,0.0,0.0,0.0,1.6908,1.6908,1.656,0.0,0.0,0.0,0.0,0.0,0.0,0.0,1.486,1.5514,1.5574,1.5002,1.4909,1.4676,1.4379,1.4223,1.4299,1.4741,1.5357,1.5973,1.6574,1.682,1.713,1.7627,1.7814,1.8246,1.8929,1.9834,2.0467,2.097,2.1531,2.1822,2.1832,0.0,0.0,0.0,0.0,0.0,0.0,0.0,2.2359,2.2641,2.3005,2.333,2.3628,2.3628,2.4038,2.4638,2.514,2.573,2.6447,2.7367,2.7601,2.7881,2.8971,2.8646,2.8423,2.9553,2.9599,2.9514,2.9819,2.9537,0.0,2.94,2.9856,0.0,0.0,0.0,0.0,0.0,0.0,0.0,0.0,0.0,0.0,0.0,0.0,0.0,0.0,0.0,0.0,0.0,1.9379,1.9012,1.8489,1.8288,1.8176,1.8237,1.7963,1.7781,1.7463,1.7252,1.7173,1.7173,1.6842,1.6736,1.6736,1.643,1.6004,1.5482,1.5482,1.5256,1.4922,1.4708,1.46,1.46,0.0,0.0,0.0,0.0,0.0,0.0,0.0,0.0,1.6839,1.6682,1.6473,0.0,0.0,0.0,0.0,0.0,0.0,0.0,1.529,1.5213,1.5157,1.5296,1.4836,1.4866,1.5257,1.5658,1.5654,1.5234,1.5546,1.614,1.7004,1.7447,1.7803,1.8169,1.8562,1.9016,1.9396,2.0052,2.0605,2.1153,2.1773,2.215,2.2435,0.0,0.0,0.0,0.0,0.0,0.0,0.0,0.0,0.0,2.3005,2.3704,2.4374,2.4374,2.4563,2.4971,2.5329,2.555,2.5962,2.6918,2.7787,2.8682,2.9781,2.9302,2.8825,2.9372,2.982,2.9861,2.9242,2.9189,0.0,0.0,0.0,0.0,0.0,0.0,0.0,0.0,0.0,0.0,0.0,0.0,0.0,0.0,0.0,0.0,0.0,0.0,0.0,0.0,1.9579,1.9418,1.9287,1.9115,1.8907,1.8859,1.8596,1.8283,1.7781,1.7784,1.7475,1.7081,1.7081,1.6948,1.6736,1.643,1.6001,1.5539,1.5518,1.5151,1.4696,1.4652,1.46,1.46,0.0,0.0,0.0,0.0,0.0,0.0,0.0,0.0,1.6601,1.6378,1.6383,1.6333,0.0,0.0,0.0,0.0,0.0,0.0,0.0,1.5094,1.4981,1.5059,1.4971,1.5173,1.5713,1.6006,1.6179,1.632,1.6551,1.6885,1.7492,1.8265,1.8677,1.8933,1.954,1.9973,2.0415,2.074,2.1232,2.1912,2.2412,2.2886,2.3392,0.0,0.0,0.0,0.0,0.0,0.0,0.0,0.0,0.0,2.4086,2.4684,2.5275,2.5275,2.5581,2.5906,2.6033,2.6413,2.6921,2.7721,2.8486,2.934,3.0239,3.0114,2.9833,2.9849,2.9945,2.9811,2.9291,2.9325,0.0,0.0,0.0,0.0,0.0,0.0,0.0,0.0,0.0,0.0,0.0,0.0,0.0,0.0,0.0,0.0,0.0,0.0,0.0,0.0,2.0222,2.0107,1.9941,1.9654,1.9539,1.9407,1.9089,1.8861,1.86,1.8164,1.7816,1.7432,1.741,1.7095,1.6571,1.6486,1.6057,1.5523,1.5589,1.5423,1.4897,1.4824,1.4718,1.4628,0.0,0.0,1.5743,1.5811,0.0,0.0,0.0,0.0,1.6236,1.6035,1.636,1.6455,0.0,0.0,0.0,0.0,0.0,0.0,0.0,1.5097,1.4982,1.4649,1.5134,1.556,1.5858,1.5732,1.6317,1.7627,1.7842,1.8013,1.8049,1.9101,1.9681,1.9834,2.0497,2.1052,2.1491,2.177,2.2224,2.2865,2.322,2.3757,2.4371,2.4606,0.0,0.0,0.0,0.0,0.0,0.0,0.0,0.0,2.5647,2.5985,2.6136,2.6188,2.6658,2.7093,2.6956,2.7736,2.8739,2.9083,2.9574,3.0128,3.047,3.0958,3.111,3.0612,2.9999,2.9564,2.9843,2.9808,2.983,0.0,0.0,0.0,0.0,0.0,0.0,0.0,0.0,0.0,0.0,0.0,0.0,0.0,0.0,0.0,0.0,0.0,0.0,2.1019,2.106,2.0878,2.0427,2.0119,2.0,0.0,1.9527,1.9388,1.9672,1.8541,1.8016,1.7911,1.766,1.7082,1.6342,1.6558,1.6181,1.5451,1.5716,1.5656,1.5323,1.5139,1.4894,1.4593,0.0,0.0,1.6055,1.6235,0.0,0.0,0.0,0.0,0.0,1.6236,0.0,0.0,0.0,0.0,0.0,0.0,0.0,0.0,0.0,1.516,1.4944,1.4864,1.5267,1.5541,1.5756,1.6504,1.7171,1.7646,1.7648,1.8074,1.909,1.9196,1.9653,2.0274,2.0633,2.107,2.1585,2.2377,2.2815,2.3026,2.3966,2.4368,2.4484,2.4992,2.5229,0.0,0.0,0.0,0.0,0.0,0.0,0.0,2.5772,2.6047,2.6339,2.6854,2.6747,2.6587,2.704,2.7641,2.8332,2.8713,3.0105,3.1473,3.1889,3.1837,3.1319,3.0211,3.0284,3.0353,2.9731,2.9973,0.0,0.0,0.0,0.0,0.0,0.0,0.0,0.0,0.0,0.0,0.0,0.0,0.0,0.0,0.0,0.0,0.0,0.0,0.0,2.1587,2.1275,2.0978,2.0999,2.0702,2.0464,0.0,1.9979,1.9716,1.9376,1.8632,1.8108,1.7674,1.7445,1.7105,1.6639,1.6253,1.572,1.5195,1.5275,1.5011,1.4607,1.4706,1.4526,1.4276,0.0,0.0,0.0,0.0,0.0,0.0,0.0,0.0,0.0,0.0,0.0,0.0,0.0,0.0,0.0,0.0,0.0,0.0,0.0,0.0,1.498,1.5251,1.534,1.5733,1.6565,1.7136,1.7768,1.8615,1.8551,1.8866,1.9609,2.0282,2.0863,2.1287,2.1961,2.2331,2.2459,2.326,2.3503,2.3542,2.443,2.4917,2.5135,2.5581,2.5955,2.6114,0.0,0.0,0.0,0.0,0.0,0.0,0.0,0.0,2.7453,2.7776,2.7705,2.7517,2.7776,2.8249,2.8759,2.9363,3.0777,3.1913,3.1785,3.1785,3.1448,3.0343,3.0519,3.0738,3.0286,3.0528,0.0,0.0,0.0,0.0,0.0,0.0,0.0,0.0,0.0,0.0,0.0,0.0,0.0,0.0,0.0,2.3805,0.0,2.2739,2.2267,2.1977,2.1862,2.1675,2.1412,2.1114,2.0877,2.0704,2.0138,1.9641,1.9078,1.8646,1.8213,1.7793,1.7526,1.7067,1.6523,1.6266,1.5745,1.5108,1.5052,1.4843,1.4529,1.466,1.4524,1.4208,0.0,0.0,0.0,0.0,0.0,0.0,0.0,0.0,0.0,0.0,0.0,0.0,0.0,0.0,0.0,0.0,0.0,0.0,0.0,0.0,0.0,1.5634,1.5441,1.5926,1.7235,1.7398,1.8074,1.9344,1.9507,1.9851,2.0359,2.1423,2.2092,2.25,2.3393,2.3742,2.352,2.4241,2.4336,2.4105,2.4968,2.5467,2.5721,2.6177,0.0,0.0,0.0,0.0,2.7214,2.7482,0.0,0.0,0.0,0.0,2.8502,2.8502,2.863,2.8666,2.8429,2.8725,2.9295,3.0228,3.114,3.1672,3.1153,3.1339,3.1421,3.065,3.0726,3.0918,3.0844,0.0,0.0,0.0,0.0,0.0,0.0,0.0,0.0,0.0,0.0,0.0,0.0,0.0,0.0,0.0,0.0,2.42,2.3643,2.3062,2.2575,2.2185,2.2316,2.2011,2.141,2.1197,2.1064,2.1033,2.0101,1.9433,1.8974,1.8646,1.8213,1.8016,1.7634,1.7029,1.6343,1.6292,1.5808,1.5068,1.5068,1.4935,1.474,1.474,1.4497,1.4304,0.0,0.0,0.0,0.0,0.0,0.0,0.0,0.0,0.0,0.0,1.6565,1.6255,0.0,1.512,1.4768,1.4213,1.4179,1.4333,1.4726,0.0,0.0,1.5484,1.5681,1.5857,1.6297,1.6918,1.7586,1.832,1.9347,2.0766,2.2571,2.1758,2.2083,2.3324,2.374,2.3939,2.4007,2.5025,2.5148,2.4683,2.5877,2.6279,2.6114,0.0,0.0,0.0,0.0,0.0,0.0,2.7947,2.821,0.0,0.0,0.0,2.825,2.825,2.825,2.814,2.7528,2.7966,2.8918,3.0334,3.0679,3.0671,3.097,3.1052,3.1057,0.0,3.1163,3.1052,3.0737,0.0,0.0,0.0,0.0,0.0,0.0,0.0,0.0,0.0,0.0,0.0,0.0,0.0,0.0,0.0,2.4982,2.45,2.3855,2.316,2.2593,2.2185,2.1604,2.1059,2.0832,2.054,2.0311,2.0178,1.9816,1.9642,1.9583,1.8736,1.8213,1.8003,1.7418,1.6945,1.6251,1.609,1.5635,1.5101,1.5101,1.498,1.475,1.475,1.452,1.4292,0.0,0.0,0.0,0.0,0.0,0.0,0.0,0.0,0.0,0.0,0.0,1.6396,1.5437,1.5191,1.4827,1.4127,1.3887,1.4024,1.4641,1.5018,1.5394,1.5842,1.614,1.6439,1.6884,1.7279,1.8026,1.9107,1.9391,2.0977,0.0,2.3062,2.368,0.0,0.0,0.0,2.5644,2.5908,2.5859,2.5733,2.6396,2.6886,0.0,0.0,0.0,0.0,0.0,0.0,0.0,0.0,2.8509,2.8665,2.8858,0.0,0.0,0.0,2.8296,2.8241,2.7721,2.8356,2.936,3.0265,3.0521,3.0705,3.1066,3.0973,3.0825,3.0753,3.0906,3.0998,0.0,0.0,0.0,0.0,0.0,0.0,0.0,0.0,0.0,0.0,0.0,0.0,0.0,0.0,0.0,0.0,2.4714,2.4312,2.374,2.2943,2.2256,2.1866,2.1717,2.1451,2.1134,2.085,2.0539,2.0,1.9933,1.9879,1.9672,1.8959,1.8541,1.8213,1.7657,1.7131,1.6534,1.6247,1.5862,1.5299,1.5147,1.4987,1.4892,1.4783,1.4592,1.4496,0.0,0.0,0.0,0.0,0.0,0.0,0.0,0.0,0.0,0.0,0.0,1.6555,1.5683,0.0,0.0,0.0,1.3795,1.396,1.4754,1.5199,1.5633,1.6175,1.6542,1.6967,1.7472,1.7722,1.849,1.9738,1.9667,2.1226,2.4257,2.4384,2.5391,0.0,2.7061,2.6948,0.0,0.0,0.0,0.0,0.0,0.0,0.0,0.0,0.0,0.0,0.0,0.0,0.0,0.0,0.0,0.0,0.0,2.9066,0.0,0.0,0.0,2.7806,2.7974,2.8601,2.9268,2.9903,3.0196,3.045,3.095,3.0764,3.0517,0.0,3.0547,3.0666,0.0,0.0,0.0,0.0,0.0,0.0,0.0,0.0,0.0,0.0,0.0,0.0,0.0,0.0,0.0,0.0,2.4506,2.4031,2.333,2.247,2.1848,2.1458,2.1657,2.1479,2.1077,2.1047,2.0684,2.0,2.002,1.9983,1.9672,1.9182,1.8764,1.8541,1.7898,1.7422,1.6832,1.6609,1.6208,1.5673,1.5454,1.5338,1.5178,1.4975,1.4879,1.4783,0.0,0.0,0.0,0.0,0.0,0.0,0.0,0.0,0.0,0.0,0.0,1.6606,1.5869,1.5608,1.5085,1.419,1.3996,1.4347,1.5127,1.5216,1.5619,1.6507,1.6751,0.0,1.7411,1.7754,1.84,1.9224,2.0245,2.1903,2.4248,2.5223,2.6738,2.8551,2.8133,2.7406,2.6629,0.0,0.0,0.0,0.0,0.0,0.0,0.0,0.0,0.0,0.0,0.0,0.0,0.0,0.0,0.0,0.0,0.0,0.0,0.0,0.0,0.0,2.7917,2.7968,2.7931,2.9154,2.9349,2.9468,3.0262,3.0236,3.0173,3.0342,3.0241,2.9984,0.0,0.0,0.0,0.0,0.0,0.0,0.0,0.0,0.0,0.0,0.0,0.0,0.0,0.0,0.0,0.0,2.4431,2.3881,2.2795,2.2005,2.144,2.1032,2.0997,2.0721,2.0124,2.0345,2.03,2.0,2.002,1.9983,1.9672,1.9182,1.8869,1.8869,1.8227,1.763,1.7154,1.7141,1.6794,1.6273,1.6259,1.5879,1.5452,1.5439,1.5261,1.5083,0.0,0.0,0.0,0.0,0.0,0.0,0.0,0.0,0.0,0.0,0.0,0.0,0.0,1.6102,1.5722,1.4874,1.4675,1.4738,1.5145,1.574,1.6321,1.6802,1.7323,1.7735,1.7988,1.8347,1.8975,1.9906,2.0535,2.2062,2.4502,2.5219,2.6496,2.8009,2.7906,2.7891,2.7927,2.7484,0.0,0.0,0.0,0.0,0.0,0.0,0.0,0.0,0.0,0.0,0.0,0.0,0.0,0.0,0.0,0.0,0.0,0.0,2.706,2.7144,2.7223,2.7607,2.8118,2.8977,2.8833,2.8732,2.9794,2.9849,2.9748,2.9779,2.9732,0.0,0.0,0.0,0.0,0.0,0.0,0.0,0.0,0.0,0.0,0.0,0.0,0.0,0.0,0.0,0.0,0.0,0.0,2.3975,2.3112,2.2299,2.1606,2.1015,2.102,2.1097,2.1092,2.1196,2.1123,2.0836,2.0554,2.0189,1.9983,1.9583,1.9286,1.8869,1.866,1.8164,1.7449,1.7259,1.6833,1.6259,1.6059,1.583,1.5655,1.5744,1.5608,1.5382,0.0,0.0,0.0,0.0,0.0,1.9502,1.9069,1.8653,1.8214,0.0,0.0,0.0,0.0,0.0,1.6418,1.5605,1.5378,1.5396,1.5751,1.6421,1.6958,1.7373,1.794,1.8414,1.8751,1.9065,1.9695,2.0636,2.1195,2.259,2.4659,2.5362,2.6351,2.7593,2.7584,2.8106,0.0,0.0,0.0,2.8673,0.0,0.0,3.0556,0.0,0.0,0.0,0.0,0.0,0.0,0.0,0.0,0.0,0.0,0.0,0.0,0.0,0.0,0.0,2.7027,2.744,2.8124,2.8829,2.8275,2.7904,2.9156,2.9047,2.8903,2.9321,2.9277,0.0,0.0,0.0,0.0,0.0,0.0,0.0,0.0,0.0,0.0,0.0,0.0,0.0,0.0,0.0,0.0,0.0,0.0,0.0,2.3317,2.2483,2.1697,2.0925,2.1049,2.119,2.131,2.1494,2.1355,2.0852,2.0672,2.0246,1.9816,1.9731,1.948,1.9078,1.9078,1.8579,1.7756,1.7447,1.7032,1.6538,1.6251,1.6021,1.5953,1.5853,1.5704,1.5586,0.0,0.0,2.1627,2.1324,2.0859,2.0306,1.974,1.9316,1.8942,1.8498,0.0,0.0,0.0,0.0,0.0,1.6351,1.6147,1.6336,1.6921,1.7053,1.7492,1.8327,1.8684,1.9065,1.9615,1.9987,2.0533,2.1441,2.2297,2.3444,2.4802,0.0,2.6578,2.7434,2.7494,2.816,2.9374,0.0,2.9791,2.9907,0.0,3.1046,3.0897,0.0,0.0,0.0,3.2554,3.2033,0.0,3.1527,0.0,0.0,0.0,0.0,0.0,0.0,0.0,0.0,0.0,0.0,0.0,2.8592,2.7705,2.6952,2.8331,2.7968,2.7704,2.8893,2.8875,0.0,0.0,0.0,0.0,0.0,0.0,0.0,0.0,0.0,0.0,0.0,0.0,0.0,0.0,0.0,0.0,0.0,2.4622,2.3975,2.3142,2.2428,2.1588,2.0762,2.09,2.0908,2.0636,2.1045,2.082,1.9984,2.0342,2.002,1.9194,1.9523,1.9583,1.9272,1.9272,1.8772,1.8076,1.7974,1.761,1.6953,1.6787,1.6512,1.6238,1.5953,1.5845,1.5872,0.0,2.2521,2.228,2.2691,2.187,2.1176,2.1234,2.0785,2.0126,0.0,0.0,0.0,0.0,0.0,0.0,1.7292,1.7362,1.7605,1.8128,1.8415,1.8818,1.9336,1.9431,1.9704,2.0183,2.0613,2.1247,2.2232,2.3077,2.4006,0.0,0.0,0.0,0.0,2.8022,2.8778,2.976,2.894,0.0,0.0,3.0637,3.1391,0.0,0.0,0.0,0.0,0.0,3.2748,3.2348,0.0,3.1269,2.9476,0.0,0.0,0.0,0.0,0.0,0.0,2.7499,0.0,0.0,0.0,0.0,0.0,2.7709,2.7653,2.7615,2.7957,2.7999,0.0,0.0,0.0,0.0,0.0,0.0,0.0,0.0,0.0,0.0,0.0,0.0,0.0,0.0,0.0,0.0,0.0,2.5257,2.4543,2.4013,2.2281,2.1212,2.0907,2.0663,2.0534,2.0523,2.0718,2.0622,2.0231,2.0384,2.0194,1.9814,2.0153,1.9998,1.9583,1.9583,1.9184,1.8586,1.8382,1.7938,1.7372,1.7386,1.7107,1.6856,1.6981,1.658,1.6198,2.2965,2.2789,2.2834,2.3253,2.2585,2.2009,2.2209,2.1648,2.1031,0.0,0.0,0.0,0.0,0.0,0.0,1.9022,1.8865,1.8931,1.9313,1.967,1.9998,2.0364,2.0424,2.0725,2.1251,2.1493,2.2194,2.3256,2.3896,0.0,0.0,0.0,0.0,0.0,2.8223,2.8745,0.0,0.0,0.0,0.0,3.1098,0.0,0.0,3.3196,3.3536,0.0,0.0,0.0,3.3135,3.3243,3.1989,0.0,0.0,0.0,0.0,0.0,0.0,0.0,0.0,0.0,0.0,0.0,0.0,0.0,2.7274,2.7224,2.7087,0.0,2.7401,2.7434,0.0,0.0,0.0,0.0,0.0,0.0,0.0,0.0,0.0,0.0,0.0,0.0,0.0,2.6784,2.64,2.6207,2.5528,2.4676,2.3899,2.2117,2.1033,2.0766,2.0387,2.012,2.0062,2.0537,2.0508,2.0184,2.0484,2.0443,2.0015,2.0358,2.0308,1.9879,1.9879,1.9493,1.8992,1.8935,1.8513,1.7811,1.7711,1.7612,1.7456,1.7401,1.6981,1.6648,0.0,2.3014,2.3394,2.3438,2.3119,2.2821,2.2907,2.22,2.1755,0.0,0.0,0.0,0.0,0.0,0.0,0.0,2.0546,2.0381,2.0565,2.0839,2.1152,2.133,2.1486,2.1799,2.2398,2.2476,2.3095,2.4295,0.0,0.0,0.0,0.0,0.0,0.0,2.8222,2.8509,2.8729,0.0,0.0,3.035,3.178,3.2139,0.0,0.0,3.3813,3.3675,3.3813,3.3785,3.3561,3.3557,3.2321,0.0,0.0,0.0,0.0,0.0,2.7551,0.0,0.0,0.0,0.0,0.0,0.0,0.0,2.7074,2.6719,2.64,2.7062,2.6909,2.6723,0.0,0.0,0.0,0.0,0.0,0.0,0.0,0.0,0.0,0.0,0.0,0.0,2.6688,2.6496,2.6284,2.5761,2.5315,2.4564,2.3336,2.1898,2.0944,2.0606,2.0086,1.9803,1.9487,2.0232,2.0345,1.9749,2.0464,2.0537,1.9953,2.0342,2.0411,2.0189,2.0189,1.9816,1.9254,1.9553,1.9212,1.8364,1.811,1.7981,1.7881,1.7442,1.719,1.7186,2.3768,2.3835,2.4169,2.4505,2.3936,2.3638,2.4282,2.3567,2.3154,2.3841,2.3525,0.0,0.0,0.0,0.0,0.0,0.0,2.1889,2.2185,2.2044,2.2035,2.2166,2.2163,2.2297,2.2566,2.308,2.3695,2.4391,0.0,0.0,0.0,0.0,0.0,0.0,2.861,2.8931,2.9429,0.0,0.0,3.0211,3.1525,0.0,3.3025,3.3772,3.4059,3.3991,3.3951,3.3539,3.2872,0.0,3.1019,3.0291,0.0,0.0,0.0,0.0,0.0,0.0,0.0,0.0,0.0,0.0,0.0,0.0,2.7071,2.6829,2.6726,2.6482,2.6198,2.6088,2.6311,0.0,0.0,0.0,0.0,0.0,0.0,0.0,0.0,0.0,0.0,0.0,2.7125,2.6784,2.626,2.5615,2.46,2.3674,2.3054,2.1807,2.1069,2.0891,2.0145,1.9732,1.9579,1.9794,1.9581,1.9034,1.9733,2.0035,1.9889,2.0537,2.0719,2.0411,2.0411,2.0055,1.9583,1.9657,1.9346,1.8716,1.8979,1.8673,1.8236,1.8425,1.8009,1.7414,2.4441,2.4543,2.4681,2.4865,2.4434,2.4306,2.4983,2.4514,2.4303,2.4723,2.4565,0.0,0.0,0.0,0.0,0.0,0.0,0.0,0.0,2.368,2.3713,2.3869,2.3914,2.3929,2.3954,2.4448,2.4971,2.5354,0.0,0.0,0.0,0.0,0.0,0.0,0.0,0.0,0.0,0.0,3.0021,3.0319,3.161,0.0,3.2934,3.3917,3.4264,3.4235,3.385,3.3197,3.2442,3.124,3.0934,0.0,0.0,2.947,2.9896,0.0,2.8894,2.9149,0.0,0.0,0.0,2.8035,0.0,0.0,0.0,2.6936,2.6702,2.6611,2.6177,2.5847,2.607,0.0,0.0,0.0,0.0,0.0,0.0,0.0,0.0,0.0,0.0,0.0,2.6607,2.6567,2.6124,2.5192,2.4297,2.3448,2.2667,2.1699,2.1015,2.0817,2.0004,1.9558,1.9579,1.9668,1.9471,1.9113,1.9797,2.013,2.0146,2.0686,2.0822,2.0719,2.0719,2.0514,2.0101,1.9983,1.9686,1.9243,1.9317,1.9081,1.8803,1.8979,1.873,1.8411,2.4993,2.5033,2.5158,2.5087,2.4826,2.4844,2.5526,2.5378,2.5233,0.0,0.0,0.0,0.0,0.0,0.0,0.0,0.0,0.0,0.0,0.0,2.551,2.5611,2.5576,2.5536,2.5639,2.5939,2.6233,2.6417,0.0,0.0,0.0,0.0,0.0,0.0,0.0,0.0,0.0,0.0,0.0,3.0848,0.0,3.2362,3.2489,3.3798,3.4292,3.4138,3.3434,3.2667,3.1868,3.1034,0.0,3.1406,3.0099,3.0498,0.0,0.0,0.0,0.0,0.0,0.0,0.0,0.0,0.0,2.7662,0.0,0.0,0.0,2.6714,2.6064,0.0,0.0,0.0,0.0,0.0,0.0,0.0,0.0,0.0,0.0,0.0,0.0,0.0,0.0,2.5859,2.5579,2.4813,2.4032,2.3261,2.2483,2.1644,2.1015,2.0744,1.9984,1.9625,1.9671,1.9674,1.9571,1.9462,1.9924,2.0257,2.04,2.0686,2.0861,2.0925,2.0925,2.0719,2.0514,2.0292,1.9983,1.9776,1.9376,1.9242,1.9199,1.933,1.9386,1.9333,2.5265,2.5473,2.577,2.5535,2.5324,2.5589,2.6572,2.6332,0.0,0.0,0.0,0.0,0.0,0.0,0.0,0.0,0.0,0.0,2.5769,0.0,0.0,2.6401,2.6175,2.6285,2.6812,2.6897,2.687,2.6722,0.0,0.0,0.0,0.0,0.0,0.0,3.0557,0.0,0.0,0.0,3.182,0.0,3.2616,3.2324,0.0,3.3323,3.382,3.3667,3.2573,3.1618,3.0949,0.0,3.09,3.1177,0.0,3.1544,3.1979,0.0,0.0,0.0,0.0,0.0,0.0,0.0,2.862,0.0,0.0,0.0,2.65,2.5871,0.0,0.0,0.0,0.0,0.0,0.0,0.0,0.0,0.0,0.0,0.0,0.0,0.0,0.0,0.0,2.4382,2.4083,2.4771,2.3317,2.25,2.285,2.1679,2.0997,2.0997,2.0512,2.0059,1.9837,1.972,1.9608,1.9636,1.9542,1.9812,2.04,2.0432,2.0623,2.0925,2.0925,2.0719,2.0514,2.0514,2.0308,1.9983,1.948,1.9096,1.8921,1.9491,1.955,1.9403,2.6569,2.6357,2.6302,2.6233,2.607,2.63,2.741,2.7385,0.0,0.0,0.0,0.0,0.0,0.0,0.0,0.0,0.0,2.7959,0.0,0.0,0.0,2.7706,2.7695,2.7633,2.7525,2.8071,2.8207,2.7908,2.8886,0.0,0.0,0.0,0.0,0.0,3.0893,0.0,3.1646,0.0,3.2299,0.0,0.0,0.0,0.0,3.3579,3.3827,3.3289,3.2327,3.1504,3.0708,0.0,3.0703,0.0,0.0,0.0,0.0,0.0,0.0,0.0,0.0,0.0,0.0,0.0,0.0,0.0,2.6881,0.0,2.5899,0.0,0.0,0.0,0.0,0.0,0.0,0.0,2.4213,0.0,0.0,0.0,0.0,0.0,0.0,0.0,0.0,0.0,0.0,0.0,2.2963,2.2226,2.2389,2.1499,2.0907,2.0817,2.0473,2.0201,1.9928,1.9853,1.9737,1.9625,1.9649,1.9814,2.0295,2.0404,2.0591,2.0925,2.0925,2.0822,2.0719,2.0514,2.0519,2.0585,2.0166,1.9762,1.9347,1.9905,1.9945,1.9901,2.7789,0.0,2.6985,2.6918,2.6977,2.7297,2.8439,0.0,0.0,0.0,0.0,0.0,2.8456,2.8363,0.0,0.0,2.9308,2.9504,0.0,0.0,2.9376,0.0,0.0,0.0,0.0,2.9317,2.9364,2.9064,2.9732,0.0,0.0,0.0,0.0,0.0,0.0,3.2203,3.242,0.0,3.3549,3.3232,3.3621,3.341,3.2864,3.374,3.3599,3.2824,3.2339,3.1517,3.0636,3.0713,3.0999,0.0,3.1596,0.0,0.0,0.0,0.0,0.0,2.9823,0.0,0.0,0.0,0.0,0.0,0.0,0.0,0.0,0.0,0.0,0.0,0.0,0.0,0.0,0.0,0.0,0.0,0.0,0.0,0.0,0.0,0.0,0.0,0.0,0.0,0.0,0.0,0.0,2.2135,2.1969,2.1391,2.0907,2.0744,2.0473,2.0201,2.0019,1.9928,1.9904,1.9836,1.9706,1.9922,2.0265,2.0329,2.0552,2.0883,2.0883,2.0829,2.0925,2.083,2.0898,2.1118,2.0909,2.059,2.0227,2.0491,2.0589,2.0633,2.8739,2.8222,0.0,0.0,2.7926,2.8726,2.9876,0.0,0.0,0.0,0.0,0.0,0.0,0.0,0.0,0.0,0.0,3.1031,3.0637,0.0,3.0856,0.0,0.0,2.9931,0.0,0.0,3.0083,3.0025,3.0387,0.0,0.0,0.0,0.0,0.0,3.3048,3.3903,3.3991,3.5489,3.6089,3.6,3.5406,3.4942,3.4551,0.0,3.2869,3.2082,3.2511,0.0,0.0,3.165,3.1931,0.0,0.0,0.0,0.0,0.0,0.0,0.0,0.0,0.0,0.0,2.852,0.0,0.0,0.0,0.0,2.6239,0.0,0.0,0.0,0.0,0.0,0.0,0.0,0.0,0.0,0.0,0.0,0.0,0.0,0.0,0.0,0.0,0.0,0.0,0.0,0.0,0.0,2.1951,2.1391,2.0907,2.0744,2.0473,2.0292,2.0292,2.0019,2.0113,2.0483,1.9853,1.9975,2.0539,2.0289,2.0344,2.0832,2.0832,2.0825,2.0941,2.1186,2.1328,2.1375,2.1493,2.1511,2.1542,2.157,2.1582,2.1532,2.9435,0.0,0.0,0.0,2.8758,0.0,0.0,3.0334,0.0,0.0,0.0,0.0,0.0,3.0966,3.1287,0.0,0.0,3.3024,3.3227,3.2807,0.0,0.0,0.0,3.1276,0.0,0.0,0.0,0.0,0.0,0.0,0.0,0.0,0.0,0.0,0.0,3.3469,0.0,0.0,0.0,0.0,0.0,3.4486,3.4668,0.0,0.0,3.3225,3.2687,3.205,0.0,3.1612,3.1611,3.1482,3.1847,3.1817,3.1569,3.1347,3.1048,0.0,0.0,0.0,2.9757,2.8675,0.0,0.0,0.0,0.0,0.0,0.0,0.0,0.0,0.0,0.0,0.0,0.0,0.0,0.0,0.0,0.0,0.0,0.0,0.0,0.0,0.0,0.0,0.0,0.0,0.0,0.0,0.0,2.1391,2.0997,2.0907,2.0473,2.0292,2.0292,2.0201,2.0269,2.0388,1.9995,2.0012,2.0495,2.0516,2.0751,2.1131,2.126,2.1322,2.113,2.1258,2.1474,2.1798,2.1802,2.2134,2.2418,2.1865,2.1612,2.1658,3.0083,3.0021,0.0,0.0,0.0,0.0,0.0,0.0,0.0,0.0,3.1377,0.0,3.2708,0.0,3.2913,0.0,3.4489,3.4623,3.4754,3.4396,0.0,3.3936,3.3396,0.0,0.0,0.0,0.0,0.0,0.0,3.1871,3.1395,3.1664,0.0,0.0,0.0,3.3806,3.4322,3.6164,3.6589,0.0,0.0,3.4721,0.0,0.0,3.3808,3.3443,0.0,3.2457,3.2014,3.1928,3.17,3.1496,3.1683,3.1596,3.1272,3.1123,3.0823,3.0546,3.0368,2.9985,0.0,2.8672,2.7898,0.0,2.6428,0.0,0.0,0.0,0.0,0.0,0.0,0.0,0.0,0.0,0.0,0.0,0.0,2.4095,0.0,0.0,0.0,0.0,0.0,0.0,0.0,0.0,0.0,0.0,0.0,0.0,2.1105,2.0997,2.0637,2.0473,2.0473,2.0382,2.0292,2.0292,2.0246,2.0357,2.061,2.087,2.1045,2.1329,2.1545,2.161,2.1436,2.1566,2.1869,2.2188,2.2188,2.2512,2.2877,2.2305,2.2004,2.1892,3.0686,3.0686,0.0,0.0,2.9812,0.0,0.0,0.0,3.1903,0.0,3.2835,3.355,3.4024,3.4369,3.4867,3.552,3.5942,3.5927,3.5321,3.5264,0.0,0.0,3.5039,3.4756,3.506,0.0,0.0,0.0,0.0,0.0,3.1829,3.1657,3.1627,3.189,3.3667,0.0,3.5549,3.7434,3.8272,3.8112,3.6487,3.5495,3.4802,3.4157,3.3511,3.2958,3.317,3.2626,3.193,3.251,3.23,3.1817,3.1669,3.1447,3.1198,3.0849,3.052,3.0368,3.0164,2.9754,2.9217,2.8491,0.0,0.0,0.0,0.0,2.7167,0.0,0.0,0.0,0.0,0.0,0.0,0.0,0.0,0.0,0.0,0.0,0.0,0.0,0.0,0.0,0.0,0.0,0.0,0.0,0.0,0.0,0.0,0.0,2.132,2.0997,2.0817,2.0744,2.0744,2.0473,2.0292,2.0292,2.0668,2.0857,2.0891,2.1251,2.1434,2.161,2.1626,2.1712,2.1725,2.2105,2.2274,2.2387,2.2403,2.2622,2.3022,2.3022,2.278,2.2445,3.1872,3.199,3.1723,0.0,3.0968,3.1117,0.0,0.0,0.0,0.0,3.3431,3.4596,3.4626,3.541,3.6172,3.6808,3.7085,0.0,0.0,0.0,0.0,3.7311,3.6803,3.631,3.5874,3.5454,0.0,3.3931,0.0,0.0,3.2317,3.2375,3.2163,3.1829,0.0,3.3547,3.4269,3.5674,3.6373,3.6458,3.5389,3.4844,0.0,0.0,3.3796,3.3585,3.3241,3.2834,3.2483,3.2506,3.2155,3.1669,3.1596,3.1373,3.1048,3.0773,3.052,3.0292,2.9934,2.9521,2.9081,2.8802,2.8149,2.7603,0.0,0.0,0.0,0.0,0.0,0.0,0.0,0.0,0.0,0.0,0.0,0.0,0.0,0.0,0.0,2.3841,0.0,0.0,0.0,0.0,0.0,0.0,0.0,0.0,0.0,0.0,0.0,2.1302,2.1015,2.0907,2.0907,2.0744,2.0564,2.0564,2.0486,2.06,2.0891,2.1251,2.1627,2.1906,2.2178,2.2096,2.1661,2.203,2.2088,2.2031,2.2306,2.2622,2.3022,2.3022,2.2847,2.2371,3.2425,3.2851,0.0,3.1659,0.0,0.0,3.1397,3.1753,0.0,3.2134,3.3839,0.0,3.523,3.6312,3.7344,3.8135,3.8339,0.0,3.8716,0.0,0.0,3.8381,3.8262,3.7933,3.7451,3.7261,0.0,3.5175,0.0,0.0,3.2792,3.2432,3.2189,3.1944,0.0,3.3487,3.4147,3.5603,3.6186,3.6014,3.5389,0.0,0.0,3.4088,3.3882,3.387,3.3536,3.3068,3.2704,3.2489,3.2009,3.1596,3.1596,3.1224,3.0849,3.0622,3.0444,3.0139,2.9754,2.9365,2.9052,2.887,2.8282,2.7751,2.7514,2.7275,2.7105,0.0,0.0,0.0,0.0,0.0,0.0,0.0,0.0,0.0,0.0,0.0,0.0,0.0,2.358,0.0,0.0,0.0,0.0,0.0,0.0,0.0,0.0,0.0,0.0,2.1571,2.1284,2.1195,2.1195,2.0925,2.0922,2.1081,2.098,2.1181,2.1579,2.1844,2.2021,2.2244,2.2449,2.2417,2.2299,2.2503,2.2478,2.2461,2.2618,2.2688,2.2799,2.2958,2.2784,2.2356,3.2863,3.3675,0.0,0.0,0.0,0.0,0.0,3.2254,0.0,3.2893,0.0,3.5473,3.6035,3.7345,3.8495,3.9391,0.0,3.9313,3.8883,3.9253,3.9354,3.913,3.9324,3.9354,3.91,3.9078,3.8135,0.0,0.0,0.0,3.3264,3.2394,3.1974,3.2057,0.0,0.0,0.0,3.6253,3.6594,3.5993,3.5654,3.5195,3.4631,3.4174,3.4025,3.4041,3.3996,3.3512,3.277,3.2636,3.2253,3.1835,3.1761,3.1386,3.0829,3.0573,3.0318,3.0087,2.9521,2.9209,2.9052,2.8816,2.8339,2.7938,2.7787,2.751,2.7241,2.7417,2.7175,2.716,0.0,0.0,0.0,0.0,0.0,0.0,0.0,0.0,0.0,0.0,0.0,0.0,0.0,0.0,0.0,0.0,0.0,0.0,0.0,0.0,0.0,2.1823,2.1589,2.141,2.1554,0.0,2.1265,2.1529,2.1731,2.1926,2.2327,2.2512,2.2601,2.2653,2.2653,2.274,2.3032,2.3032,2.3161,2.3217,2.3087,2.2799,2.2529,2.2831,2.2688,2.2198,3.4778,0.0,0.0,0.0,0.0,3.4685,3.4607,3.394,3.3606,3.414,3.5938,3.7203,3.7157,3.8662,3.9647,3.9666,3.9768,0.0,0.0,0.0,0.0,3.9829,3.9879,3.9879,3.9829,3.939,3.8659,0.0,0.0,0.0,0.0,0.0,0.0,0.0,0.0,0.0,3.3754,3.5026,0.0,3.5112,3.4911,3.4718,3.4486,3.4593,3.4654,3.4598,3.452,3.4029,3.3487,3.3608,3.3315,3.293,3.262,3.2332,3.1913,3.1057,3.0773,3.0489,2.9489,2.9131,2.8973,2.8657,2.8339,2.798,2.7396,2.7392,2.7256,2.6507,2.6971,2.7234,2.6612,0.0,0.0,0.0,0.0,0.0,0.0,0.0,0.0,0.0,0.0,2.3493,0.0,0.0,0.0,0.0,0.0,0.0,0.0,0.0,0.0,0.0,2.1825,0.0,0.0,0.0,2.1338,2.141,2.1603,2.1714,2.1909,2.231,2.246,2.2653,2.2653,2.2586,2.2638,2.2638,2.279,2.2889,2.3213,2.3023,2.2498,2.2561,2.218,2.1549,3.6055,0.0,0.0,0.0,0.0,0.0,0.0,3.5918,0.0,3.491,3.6462,3.7562,3.7628,3.9154,4.0331,4.0401,4.0401,4.047,4.057,4.047,4.047,4.057,4.047,0.0,4.057,4.0201,3.9524,3.8376,0.0,0.0,0.0,0.0,0.0,3.2627,0.0,3.3517,0.0,0.0,0.0,3.5398,3.5477,3.5386,3.5206,3.5239,3.521,3.5079,3.5058,3.4858,3.4431,3.3946,3.356,3.3223,3.283,3.246,3.2037,3.1156,3.0741,3.0378,2.9357,2.9052,2.8895,2.8419,2.8179,2.7867,2.7289,2.7186,2.6976,2.6318,2.6573,2.6674,2.6118,2.5717,0.0,0.0,0.0,0.0,0.0,0.0,0.0,0.0,0.0,0.0,0.0,0.0,0.0,0.0,0.0,2.3575,0.0,0.0,0.0,0.0,0.0,0.0,0.0,0.0,0.0,2.188,2.2003,2.2114,2.2294,2.26,2.2681,2.2653,2.2653,2.2655,2.2877,2.315,2.3207,2.3053,2.3484,2.3359,2.2736,2.2766,2.2272,2.1703,0.0,3.7158,0.0,0.0,3.6628,0.0,3.7705,3.7919,3.755,3.6291,3.7249,3.8149,3.8308,3.9694,4.0746,4.1086,4.1018,4.1018,4.1153,4.1018,4.1018,4.1153,4.095,4.095,4.1117,4.095,4.0293,0.0,0.0,0.0,0.0,0.0,0.0,0.0,0.0,0.0,0.0,0.0,3.6114,3.6143,3.6324,3.6244,3.6029,3.5926,3.5793,3.5582,3.5592,3.5581,3.5421,3.4332,3.3779,3.3595,3.3038,3.2662,3.2235,3.1352,3.0778,3.0338,2.945,2.8968,2.8712,2.8339,2.8042,2.7777,2.7151,2.6953,2.6693,2.6191,2.6069,2.6096,2.6037,2.5806,0.0,0.0,0.0,0.0,0.0,0.0,0.0,0.0,0.0,0.0,2.3827,0.0,0.0,0.0,0.0,2.3756,2.3563,2.3199,0.0,0.0,0.0,2.1876,2.1949,0.0,2.197,0.0,2.2514,2.2721,2.2664,2.2927,2.2955,2.2653,2.2653,2.2758,2.3169,2.3708,2.3687,2.3502,2.3883,2.3599,2.2991,2.2892,2.2489,2.1809,0.0,0.0,0.0,0.0,0.0,0.0,3.9495,3.9715,3.9622,3.8968,3.9563,4.0034,4.0034,4.0653,4.1086,4.1256,4.1256,4.1323,4.1522,4.139,4.1256,4.1256,4.1153,4.1117,4.1117,4.1117,4.0743,0.0,0.0,0.0,0.0,0.0,0.0,0.0,0.0,0.0,0.0,3.6802,3.6931,3.6821,3.667,3.6315,3.6057,3.6442,3.6522,3.6307,3.6309,3.6322,3.6136,3.5251,3.4926,3.4735,3.3907,3.3572,3.3275,3.2156,3.1406,3.0803,2.9829,2.9156,2.8712,2.8339,2.8042,2.7683,2.6794,2.6725,2.6685,2.5747,2.5766,2.5953,2.6109,2.6022,2.5911,0.0,0.0,0.0,0.0,0.0,0.0,0.0,0.0,0.0,0.0,2.4436,0.0,0.0,2.5192,2.5024,2.4137,2.4006,2.361,2.2919,0.0,2.2274,2.2628,2.2373,2.2116,2.1805,2.2848,2.3117,2.2559,2.3117,2.3256,2.2955,2.2754,2.2758,2.3169,2.3815,2.4013,2.3846,2.4233,2.3728,2.2839,2.2917,2.229,2.1361,0.0,0.0,0.0,0.0,0.0,0.0,0.0,4.0453,4.0804,4.1212,4.1023,4.0801,4.0801,4.1308,4.172,4.1785,4.1785,4.1851,4.1916,4.1851,4.1785,4.1785,4.162,4.1586,4.1586,4.1355,4.0876,0.0,0.0,0.0,0.0,0.0,0.0,0.0,0.0,3.6712,3.7075,3.7386,3.7511,3.7399,3.7113,3.6982,3.6928,3.6739,3.676,3.6718,3.6452,3.6298,3.6058,3.5331,3.4977,3.4729,3.3979,3.3641,3.3369,3.239,3.1754,3.1206,3.0499,2.9609,2.8874,2.8573,2.8092,2.7487,2.6712,2.6662,2.6505,2.5892,2.591,2.6217,2.6605,2.6338,2.6199,0.0,0.0,0.0,0.0,0.0,0.0,0.0,0.0,0.0,0.0,0.0,0.0,0.0,0.0,2.5059,2.4361,2.4156,2.3756,2.2885,0.0,2.234,2.2509,2.2572,2.2427,2.2279,2.307,2.3262,2.2847,2.3206,2.3155,2.2754,2.2894,2.298,2.3169,2.3922,2.4013,2.3846,2.4454,2.4048,2.3145,2.3419,2.2947,2.2159,3.8764,0.0,3.9148,0.0,3.9204,3.9804,4.0561,4.1167,4.1841,4.232,4.1973,4.1752,4.1851,4.2013,4.2205,4.2494,4.2302,4.2174,4.2238,4.2238,4.2174,4.2174,4.2077,0.0,4.22,4.1904,4.1614,4.1295,4.0974,0.0,0.0,0.0,0.0,0.0,3.7147,3.7609,3.7963,3.8056,3.8119,3.8046,3.7711,3.7601,3.7567,3.7139,3.6997,3.6978,3.6536,3.6218,3.5871,3.5331,3.4944,3.4607,3.3946,3.3641,3.331,3.2506,3.1943,3.1515,3.0954,3.0108,2.9284,2.8952,2.8386,2.7661,2.7024,2.6745,2.649,2.599,2.5999,2.6239,2.6797,2.6615,2.6494,2.6865,0.0,0.0,0.0,0.0,0.0,0.0,2.6194,2.5475,2.5262,2.5381,0.0,0.0,0.0,0.0,2.4434,2.4113,0.0,0.0,0.0,0.0,0.0,2.3035,2.3093,2.2889,2.3407,2.345,2.3257,2.3476,2.3309,2.3045,2.3203,2.3445,2.3599,2.4132,2.419,2.4107,2.4599,2.4242,2.3578,2.3821,2.3553,2.2888,3.8453,3.9072,3.952,3.8898,4.0193,4.1295,4.1016,4.2196,4.2818,4.213,4.2654,4.3252,4.3622,4.2719,4.2462,4.3427,4.2816,4.2429,4.2555,4.2429,4.2365,0.0,0.0,4.2364,4.2868,4.29,4.3115,4.3674,0.0,0.0,4.1024,0.0,3.7977,3.7879,3.8202,3.8751,3.9337,3.8943,3.8767,3.8767,3.8323,3.7976,3.7625,3.7596,3.7366,3.6978,3.6536,3.6218,3.5871,3.5331,3.5042,3.4727,3.399,3.3725,3.3556,3.2636,3.2007,3.1504,3.1051,3.047,2.9978,2.947,2.9009,2.8467,2.7775,2.7054,2.649,2.599,2.5906,2.6021,2.6533,2.6615,2.6674,2.6978,0.0,0.0,0.0,0.0,0.0,0.0,2.7014,2.6372,2.5916,2.6033,0.0,0.0,0.0,0.0,0.0,0.0,0.0,2.3789,2.35,0.0,2.4044,2.4184,2.3994,2.3299,2.3727,2.374,2.345,2.3673,2.3871,2.3959,2.3959,2.428,2.468,2.468,2.4689,2.4812,2.4812,2.4573,2.4173,2.4344,2.3897,2.3291,3.8723,3.9226,3.9625,3.9468,3.9887,4.05,4.1163,4.1782,4.2377,4.2867,4.3591,4.4253,4.4849,4.352,4.3005,0.0,4.3524,4.3362,0.0,4.3848,4.3816,4.3331,4.3138,4.3039,4.3065,4.2967,4.3182,4.3737,0.0,0.0,0.0,4.0146,3.9306,3.8705,3.9234,3.9444,3.9337,3.8943,3.8797,3.8738,3.7886,3.763,3.7567,3.7139,3.6997,3.6978,3.6536,3.6138,3.5791,3.5538,3.5214,3.4882,3.474,3.4553,3.4262,3.3841,3.3202,3.2607,3.2317,3.1312,3.0381,3.0013,2.9464,2.8835,2.8236,2.7757,2.7325,2.7304,2.7171,2.7277,2.7742,2.7665,2.7594,2.767,2.7819,0.0,0.0,0.0,0.0,0.0,2.676,2.6243,0.0,2.5747,0.0,0.0,0.0,0.0,0.0,0.0,0.0,0.0,2.3699,0.0,2.4322,2.4486,2.4355,2.4032,2.4234,2.4049,2.3673,2.409,2.414,2.3994,2.4508,2.4774,2.5021,2.5051,2.5023,2.5017,2.4923,2.4573,2.4282,2.4565,2.4377,2.386,3.8971,3.9496,3.9935,3.9781,4.0251,4.0769,4.1133,4.1966,4.2765,4.319,4.392,4.4688,4.5557,4.4414,0.0,4.482,4.4528,4.4301,4.4398,4.4756,4.4659,4.414,4.3944,4.3941,4.4064,0.0,0.0,4.4566,4.4102,4.3043,4.146,4.0909,4.0069,3.9039,3.9839,3.9866,3.9367,3.921,3.9033,3.8738,3.7944,3.7659,3.7567,3.7196,3.6977,3.6878,3.6626,3.6306,3.5925,3.5929,3.573,3.5466,3.5558,3.5451,3.5161,3.4371,3.3843,3.3367,3.281,3.201,3.1192,3.0602,3.0003,2.93,2.8423,2.7942,2.7701,2.7697,2.7673,2.7644,2.8028,2.8021,2.7971,2.8164,2.8186,2.8186,2.8279,0.0,0.0,0.0,0.0,0.0,0.0,2.631,2.627,0.0,0.0,0.0,0.0,0.0,0.0,2.4205,2.4271,0.0,2.4902,2.516,2.5179,2.479,2.4808,2.4619,2.419,2.4608,2.4778,2.4733,2.5218,2.5416,2.545,2.5353,2.5331,2.5221,2.4923,2.4675,2.4504,2.4881,2.4881,2.4675,3.9166,3.9953,0.0,0.0,4.1287,0.0,4.1104,4.2747,4.3796,4.316,4.3762,4.4649,4.5744,4.5284,4.5359,4.6389,0.0,0.0,0.0,4.5245,4.5114,4.4918,4.472,4.4876,4.5584,4.5208,4.5349,4.6112,4.484,4.3519,4.224,4.1403,4.0345,3.9191,3.9944,4.0008,3.9457,3.9683,3.9445,3.8782,3.8468,3.8092,3.7682,3.7739,3.7381,3.6837,3.6961,3.6687,3.6377,3.6538,3.6452,3.6263,3.6314,3.6303,3.6063,3.4601,3.4096,3.3857,3.2822,3.2587,3.2328,3.1352,3.0631,2.9829,2.8384,2.7943,2.7701,2.7413,2.7413,2.7455,2.7731,2.7817,2.7969,2.8423,2.8395,2.8488,2.8746,0.0,0.0,0.0,0.0,0.0,0.0,2.7348,2.7317,0.0,0.0,0.0,0.0,0.0,2.4485,2.4842,2.5071,2.5332,2.5781,2.6211,2.6106,2.5585,2.5488,2.5179,2.4831,2.5234,2.5619,2.5968,2.5986,2.6117,2.6136,2.5789,2.5586,2.5273,2.4958,2.4881,2.4932,2.5275,2.5412,2.5463,0.0,0.0,4.0837,4.1287,4.1562,4.1988,4.2706,4.3225,4.362,4.3853,4.4968,4.5905,4.6118,4.6895,4.7467,4.7734,4.6651,4.6029,4.6224,4.6486,4.645,4.5797,4.5765,4.5594,4.5346,4.5277,4.5451,4.5896,4.4768,4.4018,4.3675,4.1976,4.0974,4.0527,4.01,3.9901,3.9892,3.9815,3.9635,3.9367,3.9402,3.9003,3.8318,3.8644,3.8521,3.8032,3.7731,3.7284,3.6994,3.6885,3.6701,3.6521,3.6565,3.6514,3.6213,3.5491,3.4932,3.4495,3.3811,3.338,3.2879,3.2055,3.1149,3.0279,2.9331,2.9149,2.8967,2.851,2.8418,2.844,2.8571,2.8593,2.8615,2.8932,2.8861,2.8768,2.9046,2.8751,0.0,0.0,2.7748,2.75,2.7296,2.7146,2.7222,0.0,0.0,0.0,0.0,2.6635,2.635,2.5317,2.5714,2.5976,2.623,2.666,2.655,2.6021,2.5618,2.5326,2.5234,2.5637,2.5876,2.5968,2.6298,2.6499,2.6482,2.5916,2.5856,2.6028,2.5466,2.5412,2.5686,2.5771,2.5806,2.5823,3.9485,4.0539,4.1574,4.1808,4.2412,4.3014,4.3518,4.3871,4.427,4.4845,4.5538,4.6253,4.6831,4.745,4.7988,4.8322,4.7473,4.698,4.7111,4.7275,4.7206,4.6613,4.6513,4.6309,4.6035,4.5789,4.5698,4.5823,4.5008,4.4518,4.4174,4.2509,4.1504,4.1013,4.0704,4.0441,4.0084,4.0524,4.0353,3.9857,3.9844,3.9441,3.8945,3.9045,3.8779,3.8311,3.797,3.765,3.7437,3.74,3.7131,3.679,3.6913,3.664,3.6263,3.5812,3.5304,3.4844,3.4197,3.3837,3.3407,3.2485,3.1482,3.0652,3.01,2.9734,2.9393,2.9209,2.9117,2.9117,2.8932,2.8954,2.8932,2.8932,2.8839,2.8839,2.8932,2.8664,0.0,2.8191,2.7995,2.7839,2.7779,2.7729,2.7734,2.8105,0.0,0.0,2.7389,2.7862,2.7431,2.5984,2.6466,2.6705,2.668,2.6987,2.7072,2.695,2.6424,2.6125,2.6125,2.6258,2.6243,2.6261,2.6481,2.6591,2.6609,2.6316,2.6292,2.6412,2.6005,2.5984,2.6174,2.6114,2.6182,2.6217,4.0368,4.1464,4.2415,4.2383,4.3473,4.4268,4.4144,4.4633,4.5239,4.583,4.5987,4.6456,4.749,4.7603,4.7876,4.8416,4.8227,4.8001,4.777,4.7704,4.7571,4.7267,4.7098,4.6961,4.6823,4.639,4.6063,4.575,4.5477,4.5017,4.4257,4.3033,4.2053,4.1316,4.1579,4.122,4.041,4.1351,4.1234,4.045,4.0141,3.9791,3.9463,3.9168,3.8783,3.8363,3.8168,3.8006,3.7758,3.7926,3.7598,3.7108,3.7108,3.6734,3.6263,3.5812,3.5428,3.5017,3.4294,3.4006,3.3744,3.2818,3.1926,3.1088,3.0808,3.0142,2.969,2.9597,2.9597,2.9483,2.9231,2.9183,2.9205,2.8954,2.8932,2.8932,2.8954,0.0,2.8309,2.8795,2.8462,2.8305,2.8445,2.8524,2.8645,2.8775,2.8655,2.8502,0.0,2.8723,2.8243,2.6818,2.7322,2.7436,2.7207,2.7246,2.7487,2.7853,2.7314,2.6989,2.6989,2.6682,2.6591,2.6591,2.6591,2.6591,2.6628,2.6662,2.6749,2.6727,2.6549,2.651,2.6598,2.6575,2.6576,2.6628,4.1419,4.2086,4.2952,4.4083,4.4401,4.4595,4.4902,4.5603,4.6007,4.5898,4.6986,4.7751,4.7808,4.8293,4.8572,4.8483,4.8292,4.8163,4.8098,4.7836,4.7638,4.747,4.7403,4.7131,4.6404,4.6548,4.6287,4.5531,4.5841,4.5597,4.4794,4.3666,4.2999,4.2652,4.2047,4.1624,4.145,4.1627,4.1368,4.0775,4.1047,4.0601,3.9731,4.0068,3.9747,3.9135,3.8836,3.8505,3.8107,3.7965,3.769,3.7413,3.7201,3.6734,3.6263,3.5812,3.5428,3.5114,3.4727,3.4198,3.3648,3.3266,3.2557,3.1806,3.1354,3.085,3.0394,3.0229,3.0158,3.0001,2.9575,2.9844,3.0001,2.9759,2.9508,2.9485,2.9691,0.0,2.8958,2.9024,2.9146,2.9117,2.879,2.9202,2.9451,2.9031,2.9345,2.93,2.8901,2.9413,2.9332,2.8186,2.8307,2.8237,2.8086,2.7931,2.7795,2.7853,2.7314,2.6989,2.6989,2.6682,2.6591,2.6591,2.6591,2.6591,2.6628,2.6662,2.6911,2.7158,2.6971,2.7068,2.7347,2.7073,2.6987,2.6987,4.1736,4.2903,4.4108,4.4572,4.4983,4.5268,4.5407,4.5937,4.6392,4.6556,4.7486,4.8184,4.8443,4.8692,4.8769,4.8707,4.8356,4.8227,4.8227,4.7902,4.7638,4.747,4.7403,4.7225,4.6909,4.7289,4.7024,4.6033,4.6122,4.5752,4.4874,4.382,4.3213,4.2986,4.2349,4.1918,4.1745,4.1938,4.1762,4.1299,4.1365,4.0943,4.0209,4.0173,3.9715,3.9033,3.889,3.8452,3.7907,3.8043,3.769,3.7294,3.7108,3.6734,3.6263,3.5812,3.5332,3.492,3.4823,3.4558,3.4197,3.3785,3.3191,3.2625,3.2144,3.1563,3.1221,3.1126,3.1126,3.0963,3.0642,3.0683,3.0773,3.0526,3.0184,0.0,0.0,2.9665,2.9413,2.968,2.9831,2.9891,2.9818,3.0022,3.0209,3.0057,3.0149,2.9998,2.9584,3.0034,2.9766,2.8921,2.8605,2.8404,2.8301,2.8174,2.8067,2.8067,2.7638,2.7422,2.7206,2.6899,2.6682,2.6591,2.6811,2.6903,2.6958,2.745,2.77,2.7919,2.7848,2.786,2.802,2.7539,2.7297,2.7297,4.2537,4.3886,4.508,4.4949,4.5416,4.5805,4.5823,4.6266,4.6803,4.7387,4.8021,4.8523,4.8951,4.8894,4.8769,4.8707,4.842,4.8163,4.8163,4.8002,4.7768,4.747,4.7362,4.7335,4.7645,4.802,4.7719,4.6649,4.6684,4.6081,4.5015,4.4219,4.3579,4.3229,4.2737,4.2346,4.1981,4.2268,4.2146,4.1619,4.148,4.0972,4.032,4.0114,3.9376,3.8564,3.8809,3.8372,3.7838,3.8081,3.7664,3.7108,3.7108,3.6734,3.6263,3.5812,3.5211,3.4823,3.4823,3.4726,3.4628,3.4261,3.3856,3.3355,3.2868,3.2287,3.1849,3.1777,3.1777,3.1731,3.1331,3.149,3.1508,3.1275,0.0,0.0,0.0,3.0278,3.0072,3.0476,3.0633,3.06,3.0652,3.0798,3.0921,3.0986,3.0817,3.0579,3.0397,3.0409,3.0016,2.9271,2.874,2.8388,2.8301,2.8398,2.8437,2.833,2.8114,2.7848,2.7597,2.7191,2.6992,2.6866,2.7086,2.7233,2.7361,2.8095,2.8388,2.8443,2.8491,2.8517,2.8397,2.7762,2.7521,2.7401,4.4777,4.507,4.5229,4.5645,4.5768,4.5979,4.6443,4.7038,4.7626,4.8206,4.8745,4.9101,4.8984,4.8894,4.8707,4.8547,4.8292,4.8163,4.8001,4.8263,4.8125,4.7503,4.74,4.7718,4.8381,4.8707,4.8324,4.7138,4.7824,4.7215,4.5526,4.5309,4.4739,4.3897,4.3427,4.3031,4.2629,4.2444,4.2063,4.1396,4.1396,4.052,3.9308,3.9775,3.9114,3.7891,3.8389,3.8304,3.7848,3.7874,3.7598,3.7108,3.7108,3.6734,3.6263,3.5812,3.5211,3.4823,3.4823,3.4628,3.4433,3.4433,3.4237,3.4017,3.372,3.2831,3.2016,3.1849,3.1777,3.1616,3.1157,3.1823,3.2282,3.1846,0.0,0.0,3.1708,3.1399,3.1281,3.1326,3.1443,3.1435,3.1009,3.1495,3.175,3.1252,3.1222,3.1176,3.1073,3.0681,2.9953,2.9197,2.9112,2.8814,2.8301,2.8672,2.8777,2.8468,2.8468,2.8328,2.8108,2.7343,2.7289,2.7655,2.7325,2.738,2.7765,2.8205,2.8388,2.8443,2.8491,2.8517,2.8397,2.7762,2.7521,2.7401,4.4681,4.5166,4.5591,4.5717,4.6152,4.6464,4.6669,4.7575,4.8243,4.8401,4.9316,4.982,4.9535,4.991,4.9883,4.9057,4.9359,4.9261,4.8563,4.9055,4.9075,4.8464,4.861,4.8829,4.9117,4.9406,4.897,4.7887,4.8168,4.7339,4.5432,4.5196,4.4625,4.3754,4.317,4.285,4.2688,4.2199,4.1731,4.1396,4.1198,4.0547,3.9692,3.9913,3.942,3.8728,3.8765,3.8815,3.8688,3.807,3.7831,3.7595,3.7024,3.664,3.6263,3.5812,3.5551,3.5453,3.4919,3.4726,3.4628,3.4433,3.4261,3.4064,3.3767,3.3267,3.2892,3.2989,3.2817,3.2748,3.2661,3.3012,3.3123,3.284,0.0,3.2406,3.231,3.1865,3.1796,3.2071,3.2179,3.2143,3.2203,3.2241,3.2151,3.1772,3.1826,3.175,3.124,3.0703,3.0203,2.9855,2.9748,2.9307,2.8301,2.8711,2.8816,2.8707,2.8868,2.8745,2.854,2.8219,2.7921,2.7765,2.8103,2.8233,2.8187,2.859,2.8755,2.8773,2.8801,2.8874,2.8755,2.802,2.7779,2.7779,4.4858,4.5351,4.5787,4.5684,4.6291,4.6826,4.7015,4.7842,4.8562,4.8626,4.9569,5.0101,4.9813,5.0389,5.0492,4.9693,4.9991,4.9955,4.9187,4.9637,4.9818,4.9354,4.9395,4.9553,4.9777,4.9757,4.9362,4.8604,4.8524,4.7614,4.5917,4.5544,4.4769,4.3818,4.3019,4.2688,4.2526,4.1951,4.1619,4.1396,4.1029,4.0516,3.9996,3.9936,3.9584,3.9051,3.9033,3.9082,3.9124,3.8568,3.8376,3.8159,3.7559,3.7051,3.6693,3.6306,3.6284,3.6084,3.5622,3.5208,3.4942,3.4579,3.4457,3.4261,3.3965,3.365,3.3412,3.3534,3.3435,3.3337,3.3534,3.3674,3.379,3.3592,3.3366,3.3231,3.3036,3.2734,3.2642,3.2989,3.2938,3.3047,3.3353,3.3095,3.2734,3.2583,3.2707,3.2332,3.1589,3.0999,3.0599,3.0411,3.0289,2.9715,2.88,2.9231,2.9336,2.9225,2.9269,2.9086,2.8861,2.8709,2.839,2.8081,2.8589,2.8676,2.859,2.8865,2.8975,2.8975,2.8975,2.8975,2.8975,2.8379,2.814,2.802,4.5699,4.5787,4.5787,4.5632,4.6291,4.698,4.7464,4.8049,4.8592,4.9127,4.9565,4.9846,4.9782,5.0192,5.0426,5.0426,5.0119,4.9912,4.9912,5.0,5.0098,5.0098,4.9501,4.9546,5.0246,4.9852,4.9501,4.9291,4.9078,4.8379,4.7262,4.6458,4.5384,4.4287,4.3146,4.2637,4.2421,4.1897,4.1564,4.1424,4.0887,4.0457,4.0023,3.9788,3.9257,3.8682,3.9241,3.9084,3.8815,3.9416,3.9188,3.88,3.88,3.8285,3.7593,3.7593,3.7218,3.6816,3.6816,3.6227,3.5497,3.4968,3.4823,3.4726,3.4433,3.4029,3.3648,3.3361,3.3264,3.3264,3.3264,3.3711,3.4064,3.4064,3.4064,3.4064,3.4064,3.4087,3.4087,3.4064,3.3889,3.3877,3.4365,3.3902,3.3718,3.3899,3.3604,3.3156,3.221,3.1763,3.1293,3.088,3.0452,3.0126,3.0036,3.0472,3.0348,2.9757,2.9672,2.9466,2.9297,2.8799,2.8633,2.8834,2.8834,2.8843,2.8975,2.8975,2.8975,2.8975,2.8975,2.8975,2.8975,2.8636,2.8517,2.8397,4.5494,4.5528,4.5649,4.6006,4.6763,4.7464,4.8049,4.8626,4.9195,4.9757,5.0312,5.0691,5.0927,5.1593,5.1688,5.1121,5.1272,5.1284,5.0994,5.0671,5.0422,5.0422,5.0192,5.0055,5.0278,4.9852,4.9452,4.9078,4.88,4.8018,4.6766,4.6554,4.5883,4.4757,4.43,4.3793,4.3454,4.3027,4.2594,4.2157,4.1831,4.1474,4.0995,4.0905,4.0811,4.067,4.0147,4.0314,4.0631,3.9711,3.9375,3.9338,3.8536,3.8088,3.7792,3.7693,3.7766,3.7787,3.7317,3.6795,3.6251,3.5521,3.4892,3.4531,3.4433,3.4216,3.4024,3.4098,3.3926,3.3926,3.4,3.424,3.4261,3.4064,3.4261,3.4261,3.4064,3.417,3.4263,3.4111,3.4318,3.4462,3.4435,3.4223,3.408,3.3922,3.3498,3.3095,3.2678,3.2253,3.1885,3.1705,3.1581,3.1502,3.1613,3.0997,3.0463,3.0101,3.0161,3.0084,3.0083,2.9949,2.9737,2.9615,2.9615,2.9456,2.9331,2.9094,2.8975,2.8975,2.8975,2.8975,2.8975,2.8636,2.8517,2.8397,4.5423,4.5423,4.5612,4.6206,4.6996,4.7695,4.8216,4.9025,4.9656,4.994,5.069,5.1296,5.1458,5.2051,5.2175,5.1673,5.1783,5.1647,5.1275,5.082,5.0512,5.0324,5.0089,5.001,5.001,4.9693,4.9291,4.8996,4.8635,4.8004,4.7159,4.6803,4.6137,4.5272,4.4807,4.4294,4.3777,4.3428,4.2988,4.2452,4.2182,4.1957,4.1753,4.1349,4.1369,4.1352,4.0813,4.0843,4.1077,4.0311,4.0094,4.0027,3.907,3.8868,3.8768,3.8466,3.8589,3.8686,3.8262,3.7562,3.6844,3.6303,3.5376,3.4531,3.4531,3.4457,3.4457,3.4628,3.4652,3.4652,3.4823,3.4823,3.4628,3.4555,3.4722,3.4841,3.4667,3.4993,3.5105,3.4899,3.5011,3.5051,3.5015,3.4877,3.4729,3.4504,3.4095,3.3661,3.3412,3.2742,3.2501,3.2517,3.2147,3.2138,3.2248,3.164,3.1043,3.0584,3.0431,3.0354,3.0354,3.0354,3.0142,2.9928,3.0081,2.9922,2.945,2.9331,2.9094,2.8975,2.8975,2.8975,2.8975,2.8755,2.8755,2.8636,4.5423,4.5371,4.5558,4.6275,4.6975,4.7615,4.8107,4.9283,5.0071,4.9914,5.0827,5.1558,5.1555,5.1905,5.2119,5.2119,5.1721,5.1275,5.0896,5.0666,5.0324,4.9931,4.9693,4.9613,4.9533,4.9372,4.9128,4.8914,4.8469,4.8133,4.7964,4.7075,4.6267,4.5636,4.5047,4.4383,4.3688,4.3512,4.3158,4.2593,4.2139,4.2103,4.2261,4.1556,4.1315,4.1293,4.1293,4.0905,4.0592,4.1115,4.1097,4.0795,4.0287,4.0083,3.9981,3.98,3.949,3.9362,3.9362,3.8259,3.7218,3.7218,3.6013,3.4823,3.4823,3.4823,3.492,3.5235,3.5235,3.5332,3.5524,3.5428,3.5235,3.5284,3.5501,3.5641,3.5689,3.6146,3.6357,3.6105,3.5868,3.5793,3.5898,3.5672,3.5449,3.5378,3.5091,3.4758,3.4086,3.3454,3.3077,3.3182,3.2446,3.2179,3.2363,3.2363,3.1903,3.1325,3.0564,3.0254,3.0254,3.0254,3.0159,2.9968,3.0219,3.0039,2.9568,2.9568,2.9331,2.8975,2.8975,2.8975,2.8975,2.8975,2.8975,2.8856,4.5561,4.5318,4.5623,4.6794,4.7056,4.752,4.8606,4.9526,5.0177,5.0458,5.1229,5.1896,5.2146,5.2131,5.2119,5.2119,5.1573,5.1199,5.0896,5.0589,5.0246,4.9931,4.9693,4.9452,4.9159,4.9078,4.8883,4.8469,4.8218,4.788,4.7452,4.7043,4.6723,4.6373,4.6021,4.543,4.471,4.4556,4.4068,4.3322,4.3038,4.2863,4.278,4.2548,4.2285,4.1879,4.1879,4.161,4.1141,4.1045,4.0795,4.0491,4.0185,3.9981,3.98,3.9697,3.9697,3.9594,3.9594,3.8564,3.7494,3.7494,3.6505,3.5428,3.5428,3.5428,3.5428,3.5524,3.5524,3.5524,3.562,3.5428,3.5357,3.577,3.5743,3.5761,3.617,3.6494,3.6582,3.6357,3.6611,3.6697,3.6309,3.5995,3.5617,3.5423,3.5091,3.4758,3.4086,3.3866,3.3642,3.3182,3.2985,3.2851,3.2612,3.2363,3.1903,3.1325,3.111,3.0954,3.0742,3.0742,3.0742,3.0626,3.047,3.0157,2.9804,2.9568,2.9331,2.8975,2.8975,2.8975,2.8975,2.8975,2.8975,2.8856,4.5868,4.5726,4.6041,4.7408,4.7588,4.792,4.9164,4.9944,5.0589,5.0994,5.166,5.2154,5.2269,5.2086,5.1868,5.1721,5.1275,5.0972,5.0743,5.0324,4.9931,4.9613,4.9452,4.9128,4.88,4.9057,4.889,4.8301,4.8268,4.7955,4.7309,4.7346,4.7052,4.6403,4.6225,4.5747,4.511,4.4954,4.4369,4.3586,4.3519,4.3259,4.29,4.29,4.2582,4.2065,4.2065,4.1796,4.1224,4.0997,4.0795,4.0593,4.0185,3.9981,3.9878,3.9697,3.9697,3.9697,3.9697,3.8968,3.8216,3.8216,3.7392,3.6422,3.5766,3.562,3.562,3.5716,3.5812,3.5886,3.6326,3.6183,3.6161,3.6702,3.6597,3.6662,3.6952,3.7252,3.7283,3.6996,3.7133,3.7156,3.6554,3.6225,3.584,3.5423,3.5312,3.498,3.4311,3.4199,3.3861,3.3409,3.3296,3.309,3.2727,3.2612,3.2133,3.1556,3.1325,3.1112,3.0898,3.0898,3.0898,3.0898,3.0762,3.0411,2.9922,2.9804,2.945,2.8975,2.8975,2.8975,2.9012,2.9195,2.9148,2.9028,4.6357,4.6349,4.6624,4.7903,4.8082,4.8402,4.9443,5.0188,5.0727,5.1225,5.1851,5.2241,5.2086,5.1868,5.1573,5.1199,5.0972,5.0743,5.0589,5.0089,4.9693,4.9372,4.9047,4.88,4.8521,4.8852,4.8858,4.8401,4.8641,4.8263,4.7402,4.7733,4.7288,4.6225,4.6135,4.5747,4.511,4.5018,4.4462,4.3586,4.3614,4.3232,4.29,4.29,4.2582,4.219,4.2092,4.1796,4.1224,4.0997,4.0896,4.0795,4.0287,4.0083,3.9981,3.98,3.9697,3.9697,3.9697,3.9295,3.8868,3.8969,3.8386,3.7404,3.6376,3.5936,3.5812,3.6003,3.6173,3.6372,3.7111,3.7067,3.7096,3.7643,3.7735,3.7643,3.774,3.7919,3.7998,3.7702,3.7596,3.7358,3.682,3.6495,3.6059,3.5423,3.5423,3.5091,3.4534,3.4311,3.3974,3.3636,3.3409,3.3069,3.2727,3.2727,3.2383,3.1787,3.1556,3.1228,3.0898,3.0898,3.0898,3.0898,3.0898,3.0528,2.9922,2.9922,2.9568,2.9094,2.8975,2.8975,2.9012,2.9342,2.9349,2.9125,4.7238,4.6965,4.7121,4.7971,4.8022,4.8146,4.8866,4.9577,5.0154,5.0526,5.1225,5.1715,5.2092,5.1794,5.135,5.0972,5.0743,5.0589,5.0356,4.9931,4.9533,4.9291,4.8883,4.8552,4.8385,4.797,4.8188,4.8875,4.9249,4.8865,4.7852,4.7703,4.7109,4.6225,4.5776,4.5413,4.5018,4.4676,4.4209,4.3586,4.3451,4.3163,4.29,4.29,4.2679,4.2413,4.219,4.1796,4.1224,4.0997,4.0795,4.0491,4.0185,3.9981,3.98,3.9697,3.9697,3.9697,3.9697,3.9295,3.8969,3.9196,3.8789,3.8282,3.8375,3.7419,3.6546,3.6358,3.6734,3.7111,3.7161,3.7367,3.7668,3.8214,3.8209,3.8123,3.8251,3.8372,3.821,3.7998,3.7465,3.7143,3.7036,3.6603,3.6059,3.5423,3.5423,3.5091,3.4534,3.4423,3.4199,3.3636,3.3523,3.3296,3.2727,3.2727,3.2383,3.1787,3.1787,3.146,3.0898,3.0898,3.0898,3.0898,3.0898,3.0645,3.0274,3.0039,2.9686,2.945,2.9094,2.8975,2.8993,2.9048,2.9067,2.8947,4.7715,4.7573,4.7691,4.8409,4.8422,4.8534,4.8986,4.9258,4.9626,5.0055,5.0644,5.1098,5.1139,5.1164,5.1048,5.0743,5.0589,5.0324,5.0089,4.9693,4.9372,4.9128,4.8718,4.8385,4.8301,4.8243,4.8347,4.8648,4.8655,4.8358,4.7732,4.7342,4.6628,4.5776,4.5413,4.5138,4.4954,4.4705,4.4209,4.3586,4.3519,4.3259,4.29,4.29,4.2582,4.219,4.1796,4.1498,4.1224,4.0997,4.0694,4.0517,4.0389,3.9981,3.9697,3.9878,3.9775,3.9697,3.9697,3.9599,3.9626,3.9728,3.9497,3.9287,3.9287,3.8523,3.784,3.7577,3.7585,3.7739,3.8065,3.8216,3.8466,3.9016,3.891,3.8803,3.8607,3.8526,3.8291,3.7974,3.7702,3.7449,3.7167,3.7113,3.6786,3.5666,3.578,3.5491,3.478,3.4646,3.4419,3.4225,3.4133,3.379,3.333,3.3215,3.2608,3.1787,3.1787,3.146,3.0898,3.0898,3.0898,3.0898,3.0898,3.0762,3.0392,3.0274,3.0039,2.9686,2.945,2.9342,2.9287,2.9067,2.9122,2.9342]}]]